[[[{"header":{"parameterUnit":"kt","parameterCategory":2,"dx":1,"dy":1,"la1":29.285339999999998,"la2":30.599998999999997,"lo1":-89.70041500000002,"lo2":-87.6738589999976,"nx":112,"ny":82,"refTime":"2022-09-18T18:00:00:Z","depth":0,"parameterNumber":1,"parameterNumberName":"U-component_of_WINDS"},"data":[2.9694,3.055,3.0764,2.6953,2.6847,2.6631,2.2734,2.2669,2.292,2.1094,2.0911,2.1445,2.2124,2.0118,1.876,2.0043,1.8915,1.7768,0.0,1.7426,0.0,0.0,2.0764,2.2466,2.407,0.0,0.0,3.2575,3.2119,3.3448,3.77,3.8725,3.9143,3.9143,3.9674,3.9978,3.9978,3.9978,3.9978,3.9978,3.9978,3.9978,3.9978,4.0167,4.0281,4.0318,4.0467,4.0425,4.0425,4.0425,4.0425,4.0269,4.0114,4.0114,4.004,3.9749,3.9711,4.0012,4.0312,4.0425,4.0425,4.0425,4.0425,4.0425,4.0425,4.058,4.058,4.0425,4.0734,4.0889,4.0734,4.0734,4.0889,4.0889,4.0889,4.0889,4.0889,4.0889,4.0813,4.0509,4.0433,4.0357,4.0016,3.9978,3.9978,3.9978,3.9978,3.9978,3.9978,3.9978,3.9978,3.9978,3.9978,3.9978,3.9978,3.9978,3.9978,3.9978,3.9978,3.9978,3.9978,3.9978,4.013,4.0433,4.013,4.013,4.0433,4.013,3.9978,3.9978,3.9978,3.9978,2.6774,2.7669,2.8069,2.3672,2.3623,2.3718,2.0289,2.0225,2.0419,1.8575,1.9291,1.9819,1.8425,1.7587,1.7274,1.7806,1.7464,1.7009,0.0,1.6933,0.0,0.0,0.0,2.4017,2.4849,0.0,0.0,0.0,3.1549,3.2954,3.6865,3.7852,3.8307,3.8307,3.8839,3.9256,3.956,3.956,3.9674,3.9978,3.9978,3.9978,3.9978,3.9978,3.9978,3.9978,3.9978,3.9978,3.9978,3.9978,3.9827,3.9675,3.9675,3.9372,3.922,3.9827,3.9978,3.9978,3.9978,3.9978,3.9978,3.9978,3.9978,3.9978,3.9978,3.9978,3.9978,3.9978,3.9978,3.9978,3.9978,3.9978,3.9978,3.9978,3.9978,3.9978,3.9978,3.9978,3.9978,3.9978,3.9978,3.9978,3.9978,3.9978,3.9978,3.9978,3.9978,3.9978,3.9978,3.9978,3.9978,3.9978,3.9978,3.9978,3.9978,3.9978,3.9978,3.9978,3.9978,3.9978,3.9978,3.9978,3.9978,3.9978,3.9978,3.9978,3.9978,3.9978,3.9978,3.9978,3.9408,3.9143,2.3612,2.3152,2.3137,1.9253,1.8996,1.9256,1.7686,1.791,1.8209,1.7424,1.7835,1.8134,1.7387,1.6755,1.6311,1.6287,1.6425,0.0,0.0,1.8268,0.0,0.0,0.0,0.0,0.0,2.5341,2.6044,0.0,2.9765,3.098,3.5915,3.6979,3.7434,3.7434,3.7472,3.7852,3.8649,3.8649,3.9067,3.9902,3.9902,3.994,3.994,3.9978,3.9978,3.9978,3.9978,3.9978,3.9978,3.9978,3.9978,3.9978,3.9978,3.9978,3.9978,3.9978,3.9978,3.9978,3.9978,3.9978,3.9978,3.9978,3.9978,3.9978,3.9978,3.9978,3.9978,3.9978,3.9978,3.9978,3.9978,3.9978,3.9978,3.9978,3.9978,3.9978,3.9978,3.9978,3.9978,3.9978,3.9978,3.9978,3.9978,3.994,3.9902,3.9902,3.9902,3.9902,3.9902,3.9902,3.9902,3.9902,3.9902,3.9902,3.9902,3.9902,3.9902,3.9902,3.9902,3.9902,3.9902,3.9902,3.9902,3.9902,3.9902,3.9902,3.9902,3.9902,3.9902,3.9864,3.8231,3.751,1.9718,2.0791,2.2139,1.9414,1.9819,2.0335,1.8369,1.7628,1.7431,1.7208,1.6452,0.0,0.0,0.0,1.5507,1.599,0.0,1.9214,1.7461,2.0764,0.0,0.0,0.0,0.0,0.0,2.9575,3.0524,3.3713,3.1853,3.1967,3.5156,3.6105,3.6561,3.6561,3.7168,3.7586,3.7814,3.7814,3.7928,3.8193,3.8763,3.9067,3.9067,3.9712,3.9978,3.9978,3.9978,3.9978,3.9978,3.9978,3.9978,3.9978,3.9978,3.9978,3.9978,3.9978,3.9978,3.9978,3.9978,3.9978,3.9978,3.9978,3.9978,3.9978,3.9978,3.9978,3.9978,3.9978,3.9978,3.9978,3.9978,3.9978,3.9978,3.9978,3.9978,3.9978,3.9978,3.9978,3.9978,3.9978,3.9978,3.9978,3.9978,3.8991,3.8155,3.8155,3.8155,3.8155,3.8155,3.8155,3.8155,3.8155,3.8155,3.8155,3.8155,3.8155,3.8155,3.8155,3.8155,3.8155,3.8155,3.8155,3.8155,3.8155,3.8155,3.8155,3.8155,3.8155,3.8155,3.8155,3.77,3.751,1.7848,1.8757,1.9977,1.7601,1.8261,1.8878,1.6224,1.5507,1.532,1.5056,0.0,0.0,0.0,0.0,0.0,0.0,1.8457,2.0121,0.0,0.0,2.464,0.0,0.0,0.0,2.9384,3.0256,3.1739,3.4321,3.2461,3.2347,3.489,3.546,3.5726,3.5726,3.6181,3.6637,3.6941,3.6979,3.713,3.751,3.7966,3.8193,3.8231,3.8725,3.8953,3.8953,3.8953,3.8953,3.8953,3.9294,3.9446,3.9408,3.9067,3.8953,3.8953,3.8953,3.8953,3.8953,3.8953,3.9143,3.9408,3.9029,3.8953,3.8953,3.8953,3.8953,3.8991,3.9332,3.9446,3.9446,3.9446,3.9446,3.937,3.9029,3.8953,3.8953,3.8953,3.8953,3.8953,3.8953,3.8953,3.8953,3.8953,3.8117,3.751,3.751,3.751,3.751,3.751,3.751,3.751,3.751,3.751,3.751,3.751,3.751,3.751,3.751,3.751,3.751,3.751,3.751,3.751,3.751,3.751,3.751,3.751,3.751,3.713,3.6447,3.6447,3.6447,1.7184,1.7022,1.7296,1.5195,1.5619,1.583,1.3314,0.0,1.3115,1.2975,0.0,1.2974,1.3969,0.0,0.0,1.5277,1.8291,2.0485,2.0187,2.3018,2.4384,2.2035,2.6785,2.9395,2.7075,2.8597,3.0816,3.3321,3.2111,3.2262,3.4739,3.489,3.489,3.5004,3.5004,3.5346,3.6067,3.5969,3.6447,3.7206,3.732,3.7358,3.7358,3.7434,3.751,3.751,3.751,3.751,3.7548,3.8269,3.8573,3.8497,3.7776,3.751,3.751,3.751,3.751,3.751,3.751,3.7966,3.8459,3.7738,3.751,3.751,3.751,3.751,3.7662,3.8383,3.8573,3.8573,3.8573,3.8573,3.8383,3.7662,3.751,3.751,3.751,3.751,3.751,3.751,3.751,3.7434,3.7244,3.7206,3.7206,3.7206,3.7206,3.7206,3.7206,3.7206,3.7206,3.7206,3.7206,3.7206,3.7206,3.7206,3.7206,3.7206,3.7206,3.7206,3.7206,3.7206,3.7206,3.7206,3.7206,3.7206,3.7206,3.7206,3.6447,3.5004,3.5004,3.5004,1.5477,1.5515,1.6294,1.5449,1.4673,1.4396,0.0,0.0,0.0,1.7599,1.7184,1.6562,1.7375,1.7635,1.7782,1.7778,2.1307,0.0,0.0,2.3777,0.0,2.5284,2.69,2.785,2.7323,2.8298,2.9697,3.1159,3.1029,3.1732,3.3979,3.4017,3.4321,3.5004,3.5004,3.508,3.5232,3.5232,3.5308,3.5498,3.6143,3.6447,3.6485,3.7168,3.751,3.751,3.751,3.751,3.751,3.7662,3.7738,3.77,3.7548,3.751,3.751,3.751,3.751,3.751,3.751,3.7586,3.77,3.7548,3.751,3.751,3.751,3.751,3.751,3.7662,3.7738,3.7738,3.7738,3.7738,3.77,3.751,3.751,3.751,3.751,3.751,3.751,3.751,3.751,3.7054,3.5726,3.5498,3.5498,3.5498,3.5498,3.5498,3.5498,3.5498,3.5498,3.5498,3.5498,3.5498,3.5498,3.5498,3.5498,3.5498,3.5498,3.5498,3.5498,3.5498,3.5498,3.5498,3.5498,3.5498,3.5498,3.5498,3.5308,3.5004,3.5004,3.5004,1.3664,1.3348,1.347,1.2978,1.2342,0.0,0.0,1.2351,1.2623,1.5689,1.5518,1.5425,1.7589,1.8389,1.861,1.8552,2.1863,2.3677,2.1605,2.3058,2.4367,2.4367,2.5248,2.58,2.58,2.6852,2.7985,2.8977,2.9482,3.0244,3.1176,3.1339,3.1775,3.2818,3.2818,3.3298,3.4397,3.4397,3.4587,3.5004,3.5422,3.5612,3.5612,3.6067,3.6257,3.6257,3.6257,3.6257,3.6295,3.6713,3.6599,3.6257,3.6257,3.6257,3.6257,3.6257,3.6257,3.6257,3.6257,3.6523,3.6789,3.6371,3.6523,3.6789,3.6371,3.6257,3.6333,3.6751,3.6865,3.6865,3.6865,3.6865,3.6751,3.6333,3.6257,3.6257,3.6257,3.6257,3.6257,3.6257,3.6257,3.5991,3.5156,3.5004,3.4852,3.4473,3.4397,3.4245,3.3827,3.3751,3.3751,3.3751,3.3751,3.3751,3.3751,3.3751,3.3751,3.3751,3.3751,3.3751,3.3751,3.3751,3.3751,3.3751,3.3751,3.3979,3.4397,3.3979,3.3751,3.3751,3.3751,3.3751,1.1835,1.1297,1.0985,1.0544,1.018,0.0,1.0458,1.0269,1.0923,1.3885,1.4189,1.4715,1.7584,1.8593,1.9055,1.9055,2.138,2.286,2.1621,2.1788,2.2278,2.2272,2.3201,2.3826,2.3948,2.4931,2.5782,2.6455,2.7413,2.806,2.8445,2.8479,2.905,3.0318,3.0318,3.1142,3.2888,3.3143,3.3481,3.4119,3.438,3.4625,3.4777,3.4777,3.4852,3.5004,3.5004,3.5004,3.508,3.5726,3.5095,3.3985,3.4133,3.4171,3.4171,3.4474,3.4607,3.4607,3.4872,3.5422,3.5878,3.5232,3.546,3.5878,3.5194,3.5004,3.5156,3.5802,3.5855,3.5855,3.5855,3.5855,3.584,3.5156,3.5004,3.5004,3.5004,3.5004,3.489,3.4587,3.4511,3.4511,3.4511,3.4511,3.4321,3.3638,3.3562,3.3296,3.2612,3.2414,3.2414,3.2414,3.2414,3.2414,3.2414,3.2414,3.2414,3.2414,3.2414,3.2414,3.2414,3.2414,3.2414,3.2414,3.2414,3.2878,3.3524,3.2688,3.2347,3.2414,3.2414,3.2414,0.9939,1.0326,1.1089,1.1037,0.9869,0.0,1.4477,1.4415,1.4519,1.8903,1.9704,1.9761,2.0212,2.0327,2.0385,2.0385,2.1216,2.1592,2.0876,2.0736,2.0992,2.1561,2.1734,2.2081,2.2656,2.2835,2.2985,2.3043,2.4161,2.5648,2.7428,2.7584,2.8009,2.89,2.8934,2.9094,2.9323,3.046,3.1159,3.1231,3.2268,3.3182,3.3941,3.3941,3.4321,3.5004,3.5004,3.5004,3.5004,3.5118,3.3176,3.0387,3.0764,3.1033,3.1136,3.2526,3.3065,3.3333,3.4569,3.508,3.5118,3.5042,3.508,3.5118,3.5042,3.5004,3.5042,3.5118,3.5156,3.5156,3.5156,3.5156,3.5118,3.5042,3.5004,3.5004,3.5004,3.5004,3.4587,3.3068,3.2802,3.2802,3.2802,3.2802,3.2764,3.2688,3.265,3.2612,3.2537,3.2414,3.2414,3.2414,3.2414,3.2414,3.2414,3.2414,3.2414,3.2414,3.2414,3.2414,3.2414,3.2414,3.2414,3.2414,3.2414,3.2575,3.265,3.1777,3.1777,3.2414,3.2414,3.2414,0.9087,0.9245,0.9609,0.9609,0.0,0.0,1.2604,1.3047,1.3905,1.781,1.8385,1.8655,2.0309,2.0594,2.0594,2.0594,2.048,2.0338,2.0082,2.0338,2.0679,2.0935,2.0963,2.1077,2.1333,2.1703,2.2049,2.2049,2.2723,2.3648,2.4526,2.4526,2.5014,2.6153,2.6153,2.6715,2.8042,2.8537,2.8991,2.9565,3.0103,3.0531,3.0851,3.0851,3.1028,3.1312,3.1312,3.1312,3.1312,3.1312,3.0456,2.9184,2.9356,2.9456,2.9587,3.024,3.05,3.05,3.1312,3.1441,3.1441,3.157,3.1441,3.1312,3.1312,3.1312,3.1312,3.1312,3.1956,3.2633,3.3308,3.3562,3.3562,3.3562,3.3562,3.3562,3.3562,3.3562,3.3372,3.2527,3.2414,3.2414,3.2414,3.2414,3.2347,3.1853,3.1777,3.1587,3.1094,3.1018,3.1018,3.1018,3.1018,3.1018,3.1018,3.1018,3.1018,3.1018,3.1018,3.1018,3.1018,3.1018,3.1018,3.1018,3.1018,3.1018,3.1018,3.0676,3.0676,3.1018,3.1018,3.1018,0.8157,0.0,0.0,0.0,0.0,0.0,1.2148,1.2773,1.3721,1.6708,1.7022,1.7435,1.9527,1.9945,1.9945,1.9945,1.9577,1.9266,1.9371,1.9769,2.011,2.0309,2.0309,2.0395,2.0565,2.0992,2.1276,2.1276,2.1703,2.1959,2.1959,2.2249,2.2752,2.3739,2.3859,2.4584,2.6057,2.6422,2.6895,2.7545,2.7952,2.8177,2.8378,2.8378,2.8479,2.8807,2.8807,2.8193,2.7361,2.7431,2.7496,2.7529,2.7596,2.7661,2.7789,2.8044,2.8205,2.8299,2.8807,2.8934,2.8807,2.8934,2.8934,2.8807,2.8807,2.906,2.9187,2.8807,2.9691,3.0978,3.1759,3.2253,3.2414,3.2414,3.2414,3.2414,3.2414,3.2157,3.1815,3.1815,3.1815,3.1815,3.1815,3.1815,3.1745,3.098,3.1099,3.0908,3.0182,3.0219,3.0219,3.0219,3.0219,3.0219,3.0219,3.0219,3.0219,3.0219,3.0219,3.0219,3.0219,3.0219,3.0181,3.0068,3.0068,3.0068,2.9955,2.9611,2.9382,2.9382,2.9382,2.9271,0.0,0.0,0.0,1.0622,1.0622,1.1406,1.5583,1.5727,1.5406,1.7397,1.7878,1.7979,1.8238,1.8339,1.8339,1.8339,1.8339,1.8413,1.8615,1.8745,1.8972,1.9598,1.9655,1.9911,2.0508,2.0594,2.0622,2.0622,2.0622,2.0622,2.0622,2.1219,2.1963,2.2564,2.2592,2.2592,2.2742,2.3769,2.4367,2.4487,2.5706,2.6695,2.7483,2.7483,2.7885,2.8807,2.8807,2.6759,2.3678,2.418,2.4417,2.4506,2.49,2.5004,2.5135,2.6307,2.6696,2.6954,2.8299,2.8807,2.8807,2.8807,2.8807,2.8807,2.8807,2.9691,3.0318,2.906,2.9691,3.0693,3.0693,3.1635,3.2414,3.2414,3.2414,3.2414,3.2414,3.1208,3.0031,3.0031,3.0031,3.0031,3.0031,3.0296,3.0409,2.9993,3.0484,3.0861,3.0596,3.0709,3.0934,3.0934,3.0934,3.0934,3.0934,3.0934,3.0934,3.0934,3.0934,3.0934,3.0934,3.0934,3.0709,3.0484,3.0484,3.0332,2.9955,2.8788,2.8082,2.7875,2.7875,2.7771,0.6727,0.8168,0.992,1.0891,1.2115,1.3638,1.5388,1.6093,1.661,1.7492,1.7599,1.7701,1.8007,1.8007,1.8007,1.8007,1.821,1.8284,1.8385,1.8587,1.8773,1.8972,1.9001,1.9086,1.9314,1.9712,1.9939,1.9939,2.0338,2.0594,2.0594,2.0793,2.1105,2.1534,2.1563,2.188,2.2405,2.2639,2.2964,2.3409,2.3649,2.389,2.4222,2.4343,2.4587,2.4924,2.517,2.4557,2.3589,2.3676,2.3765,2.3794,2.3879,2.3967,2.3967,2.4462,2.4585,2.4709,2.5292,2.5415,2.5292,2.5537,2.5415,2.5292,2.5292,2.5537,2.5903,2.5415,2.6147,2.7323,2.8161,2.9265,3.0361,3.1215,3.1331,3.1215,3.1215,3.0869,3.0558,3.0558,3.0558,3.0558,3.0558,3.0709,3.0515,2.9823,2.9855,2.977,2.9079,2.9001,2.9107,2.9107,2.9614,2.9731,2.9146,2.9653,2.9731,2.9146,2.9107,2.9107,2.9107,2.9107,2.9107,2.9001,2.9001,2.8856,2.8749,2.838,2.8108,2.8005,2.8005,2.8005,0.6656,0.8089,0.9714,1.0854,1.2398,1.3835,1.4673,1.5372,1.606,1.6781,1.6858,1.7088,1.7803,1.7191,1.6883,1.7395,1.7599,1.7878,1.8385,1.8587,1.8688,1.8688,1.8688,1.8688,1.8688,1.9058,1.9285,1.9285,1.9683,1.9911,1.9911,2.011,2.0362,2.0442,2.0782,2.1212,2.1846,2.1762,2.1966,2.2375,2.2491,2.2488,2.2488,2.296,2.3197,2.3168,2.3052,2.3076,2.3076,2.3076,2.3076,2.3106,2.3229,2.3319,2.3349,2.3469,2.3559,2.3559,2.3679,2.3679,2.3559,2.3679,2.3679,2.3559,2.3559,2.3799,2.4039,2.3679,2.4367,2.5523,2.6347,2.7048,2.801,2.931,2.9424,2.9389,2.9344,2.9668,2.9886,2.9886,2.9886,2.9886,2.9886,2.9995,2.9908,2.9146,2.928,2.9189,2.8495,2.8417,2.8519,2.8519,2.9031,2.9149,2.8598,2.9071,2.9149,2.8559,2.8519,2.8519,2.8519,2.8519,2.8519,2.8417,2.8417,2.8142,2.7574,2.7574,2.7475,2.7276,2.7375,2.7315,0.6573,0.7568,0.8685,1.0791,1.1729,1.247,1.3562,1.3772,1.4169,1.5392,1.5702,1.6114,1.7497,1.606,1.5128,1.6472,1.6755,1.7267,1.8486,1.8688,1.8688,1.8688,1.8688,1.8688,1.8688,1.8688,1.8688,1.8688,1.8688,1.8688,1.8688,1.9257,1.957,1.9704,2.0276,2.0701,2.0921,2.12,2.137,2.1399,2.199,2.2255,2.2285,2.3053,2.3469,2.338,2.2691,2.2329,2.2329,2.2329,2.2329,2.2391,2.2731,2.286,2.292,2.3349,2.3469,2.3469,2.3469,2.3469,2.3469,2.3469,2.3469,2.3469,2.3469,2.4275,2.4836,2.3798,2.4275,2.5191,2.5191,2.5159,2.5544,2.6863,2.7095,2.7172,2.7233,2.7695,2.8108,2.8211,2.8211,2.8211,2.8211,2.8519,2.8622,2.8275,2.8684,2.895,2.8707,2.891,2.9011,2.9011,2.9051,2.9051,2.9011,2.9051,2.9051,2.9011,2.9011,2.9011,2.9011,2.9011,2.891,2.8707,2.8707,2.7969,2.6476,2.6476,2.6198,2.5694,2.5973,2.5826,0.6351,0.8579,1.0685,1.1635,1.2601,1.3479,1.3709,1.3772,1.3876,1.4169,1.4481,1.469,1.5105,1.5543,1.5957,1.6011,1.7062,1.7979,1.8284,1.8486,1.8688,1.8688,1.8688,1.8688,1.8688,1.8688,1.8688,1.8688,1.8688,1.8688,1.8918,1.9091,1.9381,1.9891,2.004,2.0232,2.0262,2.1057,2.1574,2.1871,2.1688,2.1635,2.1635,2.215,2.2466,2.263,2.2484,2.2329,2.2329,2.2329,2.2329,2.236,2.2514,2.2496,2.2496,2.2569,2.263,2.263,2.263,2.263,2.263,2.263,2.263,2.263,2.263,2.2854,2.3078,2.2742,2.2854,2.3301,2.4268,2.4598,2.4818,2.6019,2.6344,2.6452,2.7078,2.6862,2.6929,2.8622,2.8968,2.8968,2.8968,2.907,2.883,2.8049,2.8068,2.7925,2.7146,2.7065,2.716,2.716,2.7764,2.7885,2.7201,2.7764,2.7844,2.7201,2.716,2.716,2.716,2.716,2.7065,2.7065,2.7025,2.6825,2.6476,2.6476,2.6384,2.6291,2.6251,2.6291,0.5821,0.7983,1.0233,1.1121,1.177,1.2298,1.2298,1.2298,1.2404,1.3122,1.3017,1.2931,1.2931,1.3646,1.4377,1.4667,1.5496,1.632,1.6755,1.7471,1.7979,1.7979,1.8385,1.8688,1.8688,1.8688,1.8688,1.8817,1.8817,1.8918,1.925,1.925,1.9351,1.9752,1.9752,1.9853,2.0053,2.052,2.0917,2.1315,2.1376,2.1389,2.1419,2.1909,2.1943,2.1464,2.1464,2.1464,2.1464,2.1464,2.1464,2.1495,2.1804,2.1928,2.1959,2.2236,2.2329,2.2329,2.2329,2.2329,2.2329,2.2329,2.2329,2.2329,2.2329,2.2329,2.2329,2.2329,2.2329,2.2548,2.331,2.3418,2.3602,2.4247,2.4462,2.4505,2.4815,2.4572,2.4638,2.6286,2.6943,2.7239,2.7239,2.7672,2.7804,2.7281,2.7241,2.704,2.6516,2.6476,2.6476,2.6476,2.6919,2.6999,2.6516,2.6919,2.6999,2.6516,2.6476,2.6476,2.6476,2.6476,2.6476,2.6476,2.6476,2.6476,2.6476,2.6476,2.6384,2.6251,2.6384,2.6384,0.5494,0.6938,0.8572,0.9875,1.0266,1.0297,1.0297,1.0297,1.0601,1.1839,1.1664,1.115,1.1256,1.1575,1.2193,1.3227,1.3541,1.396,1.4897,1.6139,1.6858,1.6858,1.7674,1.8182,1.8182,1.8385,1.8486,1.8716,1.8947,1.9149,1.9422,1.9552,1.9552,1.9552,1.9552,1.9752,2.0053,2.0053,2.0153,2.0353,2.097,2.1248,2.1248,2.1804,2.1434,2.0452,2.0452,2.0452,2.0452,2.0452,2.0452,2.0514,2.1001,2.1248,2.131,2.1866,2.2159,2.219,2.219,2.2267,2.2267,2.2159,2.2267,2.2298,2.2159,2.2159,2.2159,2.2082,2.2082,2.2082,2.2082,2.2082,2.2082,2.2082,2.2082,2.2062,2.1771,2.1804,2.2196,2.2973,2.3995,2.4717,2.4811,2.5787,2.6476,2.6476,2.6476,2.6476,2.6476,2.6476,2.6476,2.6476,2.6476,2.6476,2.6476,2.6476,2.6476,2.6476,2.6476,2.6476,2.6476,2.6476,2.6476,2.6476,2.6476,2.6476,2.6476,2.6476,2.6291,2.6066,2.6384,2.6291,0.6962,0.7625,0.8225,0.9614,1.0198,1.0297,1.0297,1.0297,1.0404,1.0617,1.0617,1.0617,1.0937,1.1875,1.2807,1.3311,1.4355,1.5082,1.5312,1.5519,1.5623,1.5623,1.5829,1.5908,1.5908,1.6858,1.7369,1.7471,1.8413,1.9149,1.9422,1.9752,2.0053,2.0253,2.0253,2.0153,2.0053,2.0253,2.0253,2.0053,2.0476,2.0638,2.0638,2.0732,2.0669,2.0452,2.0452,2.0452,2.0452,2.0452,2.0452,2.0452,2.0476,2.0638,2.0538,2.0763,2.0996,2.14,2.14,2.1701,2.1969,2.15,2.1701,2.1902,2.0996,2.1097,2.1299,2.0895,2.0692,2.0692,2.0692,2.0692,2.0692,2.0692,2.0692,2.0732,2.0683,2.1345,2.2,2.2196,2.2973,2.39,2.4717,2.5787,2.6476,2.6476,2.6476,2.6476,2.6476,2.6476,2.6476,2.6476,2.6476,2.6476,2.6476,2.6476,2.6476,2.6476,2.6476,2.6476,2.6476,2.6476,2.6569,2.6753,2.6569,2.6476,2.6476,2.6476,2.6384,2.6384,2.6384,2.6384,0.612,0.6958,0.7809,0.8531,0.9375,1.0135,1.0135,1.0172,1.0297,1.0297,1.051,1.0617,1.083,1.1451,1.2087,1.2298,1.2912,1.3437,1.3437,1.4064,1.4585,1.4585,1.5001,1.5416,1.5416,1.5805,1.6217,1.6422,1.696,1.7674,1.8615,1.8918,1.9422,2.0153,2.0353,2.0353,2.0253,2.0353,2.0353,2.0253,2.0353,2.0452,2.0452,2.0452,2.0452,2.0452,2.0751,2.085,2.085,2.1147,2.1246,2.1246,2.1246,2.1246,2.1246,2.1246,2.1411,2.1641,2.1641,2.1706,2.1902,2.1706,2.1804,2.1902,2.1313,2.1444,2.151,2.1313,2.1048,2.085,2.085,2.0651,2.0452,2.0452,2.085,2.1246,2.1246,2.1608,2.2,2.2,2.2293,2.2973,2.3995,2.4565,2.5264,2.6066,2.6569,2.6753,2.6661,2.6661,2.6569,2.6476,2.6476,2.6476,2.6661,2.6661,2.6661,2.6845,2.6661,2.6661,2.6845,2.6661,2.6661,2.6845,2.6569,2.6476,2.6476,2.6476,2.6476,2.6476,2.6476,2.6476,0.5333,0.6305,0.7497,0.7711,0.8641,0.9504,0.9804,0.9819,0.9884,1.0172,1.044,1.0633,1.0904,1.1082,1.1171,1.1469,1.1575,1.177,1.177,1.2721,1.3457,1.3457,1.4169,1.469,1.469,1.4897,1.5209,1.5496,1.5805,1.6525,1.7701,1.8007,1.8615,1.9552,1.9752,1.9853,1.9853,2.0023,2.0122,2.0122,2.0353,2.0452,2.0353,2.0053,1.9953,1.9953,2.0421,2.062,2.0719,2.1115,2.1214,2.1313,2.151,2.1608,2.1608,2.1902,2.2,2.2098,2.1902,2.1902,2.1902,2.151,2.151,2.151,2.1313,2.1313,2.1411,2.151,2.1313,2.1016,2.1313,2.1048,2.0651,2.0452,2.1246,2.2,2.2,2.2,2.2,2.2,2.2,2.2293,2.3395,2.3492,2.4127,2.5787,2.6661,2.7161,2.6978,2.6845,2.6845,2.6661,2.6569,2.6661,2.6845,2.6845,2.6978,2.7161,2.707,2.6937,2.7253,2.707,2.6937,2.7029,2.6753,2.6569,2.6569,2.6569,2.6569,2.6569,2.6569,2.6569,0.6446,0.677,0.7096,0.8247,0.8109,0.8149,0.9583,0.9051,0.854,0.975,0.9662,0.9828,1.1031,1.0966,1.1051,1.1839,1.2,1.2,1.2,1.2105,1.2211,1.2211,1.2317,1.2317,1.2317,1.3352,1.419,1.4608,1.5853,1.6883,1.7524,1.7803,1.8007,1.8108,1.8108,1.8108,1.8108,1.8789,1.9191,1.9191,2.0023,2.0452,2.0353,1.8817,1.821,1.8486,1.8486,1.8688,1.889,1.899,1.899,1.9091,1.9992,2.0421,2.0521,2.1608,2.2293,2.2488,2.1641,2.1608,2.1706,2.0191,1.9962,2.0161,1.9292,1.9292,1.9762,2.0222,2.0322,2.0521,2.1608,2.1804,2.151,2.0521,2.1115,2.2,2.2,2.2,2.2,2.2,2.2,2.2293,2.3395,2.3492,2.4127,2.5787,2.6661,2.7253,2.7161,2.7161,2.7161,2.7161,2.7161,2.7161,2.7161,2.7161,2.7161,2.7253,2.7161,2.7161,2.7253,2.7161,2.7303,2.7576,2.7303,2.7161,2.7161,2.7161,2.7161,2.7161,2.7161,2.7161,0.3974,0.4389,0.4967,0.5477,0.5888,0.6359,0.7253,0.7084,0.6896,0.7895,0.8588,0.9068,0.9333,1.0343,1.1104,1.1241,1.1731,1.2,1.2,1.2,1.2,1.2,1.2,1.2211,1.2615,1.3037,1.3562,1.4086,1.4608,1.5312,1.6139,1.6447,1.696,1.7599,1.7803,1.8108,1.8587,1.889,1.9091,1.9091,1.9392,1.9592,1.9592,1.9191,1.9392,2.0023,2.0421,2.0688,2.1182,2.1477,2.1575,2.1673,2.2162,2.2098,2.1608,2.2196,2.2196,2.1706,2.1313,2.1345,2.1411,2.0719,2.0589,2.0688,2.0322,2.0191,2.0191,2.0421,2.0092,1.9892,2.0291,2.0688,2.1016,2.1608,2.2098,2.2585,2.3263,2.336,2.336,2.336,2.336,2.3456,2.3876,2.3972,2.4318,2.5413,2.6344,2.7212,2.7891,2.7667,2.7394,2.7253,2.7253,2.7253,2.7394,2.7485,2.7485,2.7667,2.7485,2.7758,2.8479,2.8162,2.7981,2.8029,2.7527,2.7485,2.7987,2.7485,2.7485,2.7987,2.7485,2.7253,0.2445,0.2811,0.3381,0.3727,0.429,0.4915,0.5372,0.5323,0.5273,0.5854,0.7011,0.7833,0.7808,0.9099,1.0144,1.0102,1.0792,1.1256,1.1256,1.1681,1.1893,1.1893,1.2317,1.2721,1.3247,1.3247,1.3457,1.3981,1.3981,1.4399,1.5312,1.5519,1.6036,1.6781,1.6986,1.7497,1.8081,1.8385,1.8486,1.8486,1.8688,1.8688,1.8385,1.8659,1.9191,1.9923,2.0291,2.0688,2.1115,2.1575,2.1771,2.1869,2.2357,2.2162,2.1608,2.2098,2.1804,2.1115,2.0818,2.0719,2.062,2.0322,2.0222,2.0222,2.0222,2.0023,1.9892,2.0191,1.9892,1.9463,1.9892,1.9992,2.0291,2.1477,2.2,2.2488,2.3167,2.3395,2.3456,2.378,2.3876,2.3972,2.4259,2.4259,2.4508,2.5226,2.6119,2.717,2.8162,2.8209,2.8029,2.7848,2.7848,2.7939,2.8119,2.8119,2.8209,2.8389,2.8209,2.8479,2.9279,2.8925,2.8701,2.8701,2.8162,2.8209,2.8792,2.8209,2.8209,2.8792,2.8029,2.7618,0.2918,0.2918,0.3091,0.389,0.3896,0.3901,0.4554,0.4101,0.3621,0.4064,0.4954,0.5961,0.683,0.7322,0.7813,0.8492,0.9107,0.9519,0.9519,1.0814,1.1664,1.1664,1.2931,1.3772,1.3772,1.3772,1.3981,1.4503,1.4608,1.4839,1.5359,1.5359,1.5359,1.5359,1.5359,1.5567,1.5981,1.6781,1.7165,1.7165,1.7878,1.7776,1.6781,1.6472,1.6472,1.6755,1.6755,1.6883,1.7217,1.7422,1.7701,1.8007,1.9062,1.9463,1.9563,2.0818,2.1246,2.1016,1.9892,1.9463,1.9262,1.8311,1.7905,1.7905,1.7905,1.7905,1.8108,1.9162,1.9463,1.9663,2.0917,2.0291,1.9463,1.9463,2.039,2.1246,2.1214,2.1246,2.151,2.2585,2.278,2.307,2.4164,2.4259,2.4508,2.5226,2.6119,2.717,2.7848,2.8747,2.9367,2.9367,2.9367,2.9367,2.9367,2.9367,2.9367,2.9367,2.9367,2.9367,2.9367,2.9367,2.9367,2.9367,2.9367,2.9367,2.9367,2.9367,2.9367,2.9367,2.8836,2.8568,0.141,0.1469,0.1603,0.218,0.221,0.2161,0.2484,0.2681,0.2901,0.3027,0.3446,0.4237,0.5702,0.7418,0.858,0.856,0.9107,0.9519,0.9519,0.9946,1.0159,1.0159,1.0797,1.1345,1.177,1.2596,1.3332,1.3981,1.4712,1.5151,1.5359,1.5359,1.5359,1.5359,1.5567,1.5981,1.6472,1.6858,1.7062,1.7062,1.7165,1.7191,1.7293,1.7497,1.7979,1.8559,1.8961,1.9262,1.9522,1.9622,1.9823,2.0222,2.0719,2.0421,1.9823,2.0322,2.0122,1.9392,1.9091,1.889,1.889,1.8486,1.8385,1.8385,1.8385,1.8311,1.8182,1.8587,1.8486,1.8615,1.9522,1.9321,1.9091,1.9792,2.0222,2.0719,2.1411,2.1608,2.1706,2.1967,2.2293,2.278,2.3588,2.4068,2.4545,2.5114,2.6105,2.6753,2.6436,2.7262,2.7716,2.7353,2.8029,2.8657,2.9279,2.9367,2.9367,2.9367,2.9894,3.0242,3.0242,2.9981,2.9894,2.9894,2.9981,3.0109,3.0283,3.0109,3.0109,3.0283,2.9102,2.8568,0.0753,0.0768,0.0888,0.1238,0.1136,0.1129,0.1531,0.1795,0.2093,0.2304,0.2533,0.3006,0.4349,0.6211,0.7392,0.7231,0.7743,0.8341,0.8569,0.9091,0.9519,0.9519,1.0266,1.092,1.1239,1.2069,1.2701,1.3122,1.419,1.4734,1.4734,1.5151,1.5359,1.5359,1.5774,1.6188,1.6575,1.6858,1.696,1.696,1.6755,1.6986,1.7319,1.7701,1.821,1.8688,1.9091,1.9392,1.9693,1.9693,2.0023,2.0421,2.0521,2.0222,1.9722,1.9823,1.9522,1.899,1.899,1.899,1.899,1.899,1.8789,1.8587,1.8918,1.8615,1.8311,1.8615,1.8514,1.8413,1.8716,1.8615,1.8789,1.9722,1.9923,2.0122,2.0688,2.0917,2.1115,2.1869,2.2259,2.2877,2.4127,2.4603,2.4887,2.5264,2.6198,2.6661,2.6159,2.7262,2.7896,2.7576,2.8479,2.9279,2.9807,2.9894,2.9894,2.9894,3.0588,3.0979,3.0979,3.076,3.0588,3.0502,3.0846,3.097,3.114,3.1225,3.1225,3.1055,3.0023,2.9367,0.0728,0.0758,0.0772,0.0938,0.0632,0.0545,0.1388,0.1333,0.1299,0.1896,0.2045,0.2325,0.3117,0.3945,0.4715,0.5031,0.5624,0.6286,0.6964,0.8354,0.9305,0.9412,1.0797,1.1752,1.1752,1.1857,1.1963,1.1963,1.3017,1.3667,1.3667,1.4608,1.5151,1.5255,1.567,1.5981,1.6369,1.6575,1.6653,1.6575,1.6653,1.6781,1.7012,1.7114,1.7319,1.7497,1.7497,1.7803,1.8284,1.8284,1.8615,1.9048,1.9048,1.925,1.9451,1.9321,1.9321,1.9351,1.9321,1.925,1.925,1.925,1.8817,1.8311,1.9019,1.8716,1.8311,1.9019,1.9149,1.8846,1.8311,1.8182,1.8413,1.912,1.9321,1.9321,1.9321,1.9451,2.0023,2.1967,2.2357,2.3035,2.5038,2.5413,2.5507,2.56,2.6291,2.6753,2.6753,2.8119,2.9102,2.9102,2.9981,3.0502,3.0502,3.0721,3.0807,3.0807,3.1235,3.149,3.149,3.149,3.1405,3.1188,3.178,3.1983,3.1816,3.2531,3.2531,3.1816,3.1395,3.0846,0.0459,0.0484,0.0565,0.0874,0.0248,-0.0415,-0.0218,0.0202,0.0687,0.1121,0.1265,0.1584,0.2816,0.3358,0.4108,0.5471,0.6131,0.6543,0.6943,0.7288,0.7708,0.7911,0.8448,0.8891,0.9105,1.0052,1.0691,1.0691,1.1752,1.2491,1.2491,1.2931,1.3562,1.4377,1.492,1.5543,1.6266,1.6575,1.6163,1.5128,1.5957,1.6472,1.6575,1.7293,1.7701,1.7803,1.7803,1.8007,1.8284,1.8284,1.8486,1.8817,1.8947,1.9048,1.9149,1.8716,1.8514,1.8413,1.783,1.7626,1.7626,1.7626,1.7524,1.7422,1.7626,1.7524,1.7422,1.7626,1.7932,1.8108,1.7701,1.7701,1.7701,1.7626,1.8108,1.8514,1.8514,1.9019,1.9522,2.0122,2.0421,2.0917,2.2098,2.3132,2.3995,2.4508,2.5546,2.6159,2.5973,2.6251,2.6528,2.6528,2.8034,2.9058,2.9058,3.0415,3.132,3.132,3.1405,3.149,3.149,3.149,3.149,3.1358,3.2032,3.2399,3.2399,3.3137,3.33,3.3025,3.2515,3.2018,-0.0288,-0.0368,-0.0444,-0.0101,-0.0452,-0.082,-0.0737,-0.0407,0.0,0.0459,0.0519,0.0853,0.186,0.2105,0.2665,0.3839,0.4534,0.5312,0.6238,0.6676,0.6856,0.7061,0.7708,0.8031,0.7708,0.877,0.9626,0.9626,1.0797,1.154,1.154,1.2174,1.2912,1.3541,1.4169,1.4712,1.5128,1.5543,1.5336,1.4608,1.5232,1.5543,1.5543,1.6344,1.6858,1.6986,1.7293,1.7497,1.7701,1.7701,1.7905,1.8108,1.8311,1.8514,1.8615,1.821,1.821,1.8385,1.7803,1.7599,1.7599,1.7599,1.7524,1.7319,1.7701,1.7497,1.7191,1.7497,1.7395,1.7191,1.7422,1.7524,1.7524,1.7803,1.8108,1.8486,1.8486,1.9221,1.9923,2.039,2.1083,2.1902,2.278,2.384,2.466,2.5076,2.5826,2.6291,2.6066,2.6344,2.6528,2.6344,2.8124,2.9323,2.9323,3.0674,3.149,3.149,3.1913,3.2081,3.1913,3.2282,3.2282,3.1744,3.2696,3.2974,3.2564,3.3219,3.3381,3.3025,3.2729,3.2233,-0.1211,-0.1482,-0.1872,-0.1716,-0.1584,-0.1359,-0.1125,-0.104,-0.0859,-0.0284,-0.0144,0.0052,0.0712,0.0881,0.1145,0.1789,0.2418,0.3473,0.5076,0.5835,0.6315,0.6315,0.7493,0.7911,0.7158,0.8019,0.8676,0.8891,0.9961,1.0601,1.0707,1.1752,1.2491,1.2807,1.3352,1.3562,1.3457,1.3981,1.419,1.419,1.4399,1.4608,1.4816,1.5312,1.5829,1.6291,1.6678,1.6883,1.7114,1.7114,1.7319,1.7524,1.7626,1.7905,1.8311,1.8108,1.821,1.8486,1.8182,1.8081,1.7979,1.7979,1.7701,1.7395,1.8081,1.7674,1.7062,1.7471,1.696,1.6472,1.6883,1.7191,1.7497,1.8182,1.8385,1.8486,1.8486,1.9392,2.0489,2.1346,2.2454,2.3588,2.445,2.517,2.5694,2.5787,2.6291,2.6661,2.6569,2.712,2.7485,2.7262,2.8792,2.9981,3.0068,3.0932,3.149,3.149,3.2248,3.258,3.2498,3.3137,3.3056,3.2032,3.3269,3.3542,3.2893,3.3462,3.3462,3.2974,3.2974,3.2399,-0.1683,-0.264,-0.373,-0.3918,-0.3821,-0.3522,-0.3257,-0.2629,-0.1893,-0.1162,-0.0796,-0.0507,0.0052,0.0439,0.0816,0.1392,0.1817,0.2597,0.3775,0.4391,0.4789,0.5114,0.5539,0.6188,0.7266,0.7708,0.8354,0.9305,0.9426,0.964,1.0068,1.0281,1.1027,1.2404,1.2807,1.2701,1.1981,1.2317,1.2423,1.2423,1.3457,1.4481,1.5599,1.6036,1.6781,1.7905,1.7293,1.7114,1.7114,1.7319,1.7422,1.7524,1.8007,1.821,1.8284,1.8486,1.821,1.7701,1.7599,1.7191,1.6575,1.6575,1.6575,1.6575,1.6678,1.6575,1.6163,1.4563,1.5416,1.6369,1.5336,1.5957,1.6781,1.6678,1.7191,1.7701,1.7701,1.9019,2.0222,2.039,2.1411,2.2196,2.2391,2.3263,2.4127,2.4623,2.56,2.6384,2.707,2.7253,2.7253,2.7253,2.8166,2.9102,2.989,3.0932,3.149,3.149,3.166,3.2081,3.2746,3.2861,3.2861,3.2746,3.2861,3.3623,3.4782,3.486,3.499,3.5121,3.5121,3.434,-0.3127,-0.4063,-0.4836,-0.4119,-0.3818,-0.3587,-0.3325,-0.2742,-0.2181,-0.1966,-0.1301,-0.0771,-0.0816,-0.0362,0.0111,0.0402,0.0656,0.1129,0.1958,0.3444,0.4368,0.4125,0.5215,0.5755,0.5323,0.608,0.6835,0.7374,0.8126,0.8676,0.8984,0.9854,1.0814,1.1558,1.1981,1.177,1.0904,1.1664,1.2087,1.2087,1.3247,1.4086,1.469,1.5128,1.575,1.6266,1.6394,1.6497,1.6497,1.6806,1.6883,1.6883,1.7088,1.7267,1.7471,1.7369,1.7395,1.7114,1.6266,1.575,1.5543,1.4897,1.5209,1.5726,1.5128,1.5128,1.5232,1.4295,1.4816,1.5439,1.4712,1.5024,1.5543,1.5439,1.6163,1.6883,1.6883,1.8385,1.9792,1.9792,2.1182,2.2391,2.2391,2.3552,2.4471,2.466,2.5507,2.6251,2.6753,2.6753,2.6845,2.7161,2.7987,2.8748,2.919,3.0369,3.1443,3.2115,3.2248,3.2448,3.3106,3.3025,3.3188,3.3674,3.3593,3.3674,3.3943,3.4288,3.4654,3.4733,3.5145,3.4913,-0.5299,0.0,-0.5904,-0.4504,-0.4299,-0.4312,0.0,-0.3226,-0.3009,-0.2963,-0.1977,-0.1225,-0.1525,-0.0994,-0.0473,-0.0399,-0.028,0.0,0.0517,0.2436,0.3522,0.299,0.4509,0.4952,0.3588,0.4998,0.5972,0.5972,0.7374,0.8234,0.8341,0.9747,1.0494,1.0601,1.1239,1.1239,1.0478,1.1434,1.1875,1.1875,1.2826,1.3352,1.3646,1.3876,1.419,1.4503,1.5024,1.5232,1.5359,1.5647,1.575,1.5853,1.5853,1.606,1.6163,1.5957,1.6163,1.6291,1.5024,1.4712,1.4712,1.396,1.4377,1.5001,1.419,1.4399,1.4816,1.4295,1.4608,1.492,1.4608,1.4816,1.5024,1.5024,1.5647,1.6369,1.6369,1.7878,1.9363,1.9363,2.1083,2.2585,2.2585,2.3804,2.4849,2.4698,2.5452,2.6066,2.6384,2.6476,2.6661,2.7345,2.7987,2.8614,2.9014,2.9936,3.1055,3.2365,3.2365,3.2614,3.3106,3.3025,3.3351,3.4023,3.3995,3.3674,3.3075,3.3835,3.4102,3.4102,3.468,3.4758,0.0,-0.8128,-0.7246,-0.6289,-0.7062,-0.7432,-0.5195,-0.5229,0.0,-0.4348,-0.3109,-0.2139,-0.1804,-0.1282,-0.0802,-0.0459,-0.0363,-0.024,0.0213,0.0629,0.0973,0.1329,0.1866,0.2516,0.3036,0.5423,0.6943,0.6943,0.7708,0.8474,0.9011,0.9226,0.9441,0.9961,1.083,1.1256,1.115,1.1256,1.1363,1.1363,1.1363,1.2087,1.3207,1.2596,1.2912,1.4169,1.3437,1.3247,1.3583,1.3876,1.4064,1.4377,1.4608,1.4712,1.4712,1.4712,1.4712,1.4712,1.4608,1.4608,1.4608,1.4503,1.4503,1.4608,1.4503,1.5336,1.575,1.3541,1.4481,1.5957,1.4816,1.5336,1.6163,1.6163,1.6266,1.6369,1.6369,1.7776,1.9062,1.9062,2.0688,2.2,2.2,2.2877,2.3744,2.4127,2.5038,2.588,2.6384,2.6476,2.6845,2.7848,2.7939,2.8703,3.0455,3.0068,3.0155,3.1188,3.097,3.1225,3.2115,3.2696,3.3025,3.3106,3.3563,3.3806,3.3776,3.4313,3.4497,3.434,3.4419,3.3995,-0.9042,-0.8916,-0.8712,-0.736,-0.7703,-0.8016,-0.685,-0.6237,-0.5768,-0.5319,-0.3806,-0.264,-0.2812,-0.2166,-0.1507,-0.1365,-0.1008,-0.068,-0.0582,-0.0483,0.0,0.134,0.2153,0.2575,0.2285,0.3263,0.4023,0.4023,0.5755,0.7061,0.7374,0.8998,0.9426,0.8354,0.9533,1.0281,1.0404,1.1027,1.1451,1.177,1.2317,1.2845,1.3352,1.3247,1.3352,1.3667,1.3646,1.3751,0.0,1.419,1.4295,1.4399,1.4503,1.4816,1.5105,1.5105,1.5336,1.5543,1.4816,1.4608,1.4503,1.3772,1.3437,1.3667,1.4399,1.4608,1.4399,1.2807,1.3017,1.3541,1.3122,1.3855,1.4712,1.4712,1.5209,1.5726,1.5726,1.6883,1.7803,1.7803,1.9392,2.0688,2.0688,2.1967,2.3263,2.384,2.4318,2.4981,2.6066,2.6159,2.6569,2.7394,2.7987,2.8614,2.9278,2.9146,2.9235,2.9981,2.9936,3.0109,3.0713,3.0838,3.1225,3.1864,3.2282,3.2779,3.332,3.3915,3.455,3.5019,3.5044,3.5044,-0.7389,-0.728,-0.7531,-0.6948,-0.6836,-0.7028,-0.773,-0.6625,-0.5694,-0.6269,-0.4812,-0.3455,-0.3625,-0.2812,-0.2076,-0.2027,-0.1337,-0.089,-0.0896,-0.0742,-0.0266,0.0749,0.1732,0.2143,0.2036,0.2707,0.2941,0.2292,0.4246,0.5647,0.5864,0.8019,0.8891,0.8246,0.9105,0.9854,1.0297,1.092,1.1451,1.177,1.2423,1.274,1.274,1.2951,1.2826,1.2423,1.3227,1.3437,1.3437,1.3981,1.4086,1.3772,1.3772,1.3751,1.373,1.373,1.4043,1.4377,1.396,1.3772,1.3667,1.3227,1.3122,1.3332,1.4086,1.3981,1.3332,1.2491,1.228,1.228,1.228,1.2912,1.3562,1.3876,1.4481,1.5105,1.5416,1.6266,1.7012,1.7088,1.8284,1.9162,1.9162,2.0787,2.2162,2.2648,2.3263,2.3936,2.4849,2.5319,2.5826,2.6661,2.7534,2.8034,2.7631,2.7811,2.817,2.8703,2.8303,2.8392,2.9014,2.9321,2.9845,3.0581,3.1851,3.2893,3.3513,3.4154,3.4707,3.5228,3.5252,3.5352,-0.3402,-0.3169,-0.3159,-0.4793,-0.4406,-0.4439,-0.7716,-0.6652,-0.538,-0.7153,-0.6092,-0.4662,-0.4136,-0.3198,-0.241,-0.2173,-0.1264,-0.0636,-0.0747,-0.0083,0.009,-0.0874,-0.0202,0.093,0.2373,0.4361,0.4781,0.2728,0.3594,0.4463,0.4897,0.6188,0.7911,0.9854,0.9854,1.0404,1.1256,1.1256,1.1256,1.1256,1.1256,1.1256,1.1256,1.1256,1.0937,1.0404,1.1558,1.1857,1.177,1.2951,1.2826,1.2069,1.2069,1.1328,1.0266,1.0266,1.0266,1.0478,1.1646,1.2069,1.228,1.3352,1.3772,1.3772,1.3772,1.3332,1.2807,1.2807,1.2807,1.2807,1.2807,1.2807,1.3017,1.396,1.4169,1.4481,1.567,1.6266,1.6755,1.7062,1.7471,1.7803,1.7905,1.9363,2.0427,2.026,2.1869,2.2973,2.278,2.3684,2.4603,2.56,2.6528,2.6763,2.5708,2.6183,2.6823,2.7318,2.6183,2.5947,2.6905,2.8572,2.9493,2.9493,3.2711,3.434,3.434,3.4942,3.5073,3.476,3.476,3.4471,-0.505,-0.4772,-0.4726,-0.5249,-0.541,-0.5451,-0.5671,-0.4936,-0.4245,-0.3966,-0.3113,-0.2345,-0.2218,-0.1849,-0.1336,-0.0622,-0.0713,-0.0438,0.0853,0.0565,0.0359,0.0679,0.0808,0.1042,0.1284,0.2599,0.3485,0.3703,0.4897,0.5656,0.6089,0.608,0.6727,0.8354,0.9212,0.9854,1.0297,1.0175,1.0281,1.0601,1.0388,1.0297,1.0297,1.0494,1.0388,1.0068,1.092,1.1239,1.1133,1.1681,1.1239,1.0372,1.1133,1.0478,0.917,1.0037,1.0037,0.9809,1.0128,1.0765,1.1399,1.0976,1.1839,1.2807,1.1294,1.0659,1.034,0.949,0.9277,0.9277,0.9277,0.9916,1.0765,1.1927,1.2137,1.2453,1.3541,1.3855,1.396,1.4043,1.4794,1.5519,1.6217,1.7342,1.8659,2.0061,2.0755,2.1542,2.3,2.3385,2.3995,2.5114,2.4149,2.3218,2.293,2.379,2.4359,2.4548,2.4905,2.517,2.517,2.5375,2.5708,2.5947,2.7151,2.8177,2.8923,2.9617,2.9617,2.901,2.953,2.9444,-0.241,-0.3941,-0.611,-0.7252,-0.8818,-0.9784,-0.8766,-0.7362,-0.5599,-0.344,-0.2413,-0.1899,-0.192,-0.1351,-0.0718,-0.0111,0.0248,0.0837,0.1995,0.1765,0.172,0.2132,0.2184,0.2126,0.2173,0.2506,0.3159,0.4029,0.4355,0.4897,0.5872,0.5439,0.5864,0.7601,0.8341,0.8984,0.9626,0.9412,0.9305,0.9291,0.9091,0.9091,0.9091,0.9184,0.9091,0.877,0.9626,0.9839,0.9732,1.0266,0.9839,0.8877,0.9626,0.8877,0.7685,0.8328,0.8435,0.8209,0.8636,0.9277,0.9794,0.9596,0.9688,0.9567,0.8196,0.8423,0.897,0.7577,0.7255,0.7147,0.7029,0.7459,0.8303,0.9688,1.0007,1.0325,1.1399,1.161,1.1734,1.2261,1.2682,1.3416,1.4459,1.5289,1.6525,1.8228,1.8732,1.9533,2.1215,2.1802,2.2386,2.3035,2.1607,2.0396,2.0198,2.0365,2.053,2.0727,2.0629,2.0499,2.0695,2.0404,2.0859,2.2277,2.365,2.5224,2.693,2.7692,2.7781,2.7289,2.7646,2.856,0.0931,-0.33,-0.8157,-1.0724,-1.3206,-1.4972,-1.4836,-1.1715,-0.8066,-0.5223,-0.3991,-0.3369,-0.3246,-0.2581,-0.1704,-0.0731,0.0435,0.161,0.2675,0.3135,0.3358,0.3361,0.3263,0.348,0.3811,0.3371,0.3263,0.3697,0.2941,0.305,0.4463,0.4355,0.5215,0.7374,0.7374,0.7804,0.8757,0.8864,0.8435,0.747,0.7577,0.7685,0.7685,0.7685,0.747,0.7158,0.7995,0.8102,0.7685,0.8743,0.8423,0.7363,0.7351,0.6609,0.5431,0.5431,0.5431,0.5423,0.6492,0.6922,0.7233,0.8303,0.6783,0.4638,0.4659,0.607,0.747,0.6169,0.5846,0.5738,0.5414,0.5307,0.563,0.7233,0.7768,0.8196,0.9582,0.9582,0.9809,1.1099,1.1082,1.1294,1.2261,1.3227,1.4147,1.5289,1.6114,1.7036,1.8053,1.9133,1.9732,1.9533,1.8502,1.7796,1.7519,1.622,1.5787,1.6602,1.4533,1.379,1.4852,1.4489,1.5523,1.8036,2.0438,2.2917,2.5391,2.5726,2.5817,2.5436,2.506,2.7046,-1.2612,-1.4897,-1.6002,-1.6654,-1.3032,-1.0316,-1.4196,-1.0127,-0.6135,-0.8236,-0.8568,-0.8168,-0.7053,-1.0192,-1.0479,-0.2959,-0.5698,-0.598,0.2186,0.2794,0.2379,0.2179,0.1962,0.1526,0.0653,0.163,0.239,0.2498,0.3811,0.3811,0.2179,0.3485,0.5331,0.7601,0.7266,0.6835,0.6404,0.6619,0.6296,0.5531,0.608,0.6619,0.7158,0.7158,0.7374,0.7601,0.704,0.6825,0.6717,0.6267,0.5514,0.445,0.4429,0.3135,0.1302,0.1296,0.0757,0.0,0.0217,0.0864,0.1722,0.1947,0.0973,-0.0217,-0.0217,0.0,0.0324,0.1192,0.1193,0.1302,0.2285,0.2611,0.272,0.3046,0.4558,0.6502,0.8543,0.8984,0.8877,0.8663,0.8556,0.877,0.9383,1.0431,1.1487,1.2643,1.2957,1.3459,1.4555,1.5685,1.5709,1.3979,1.2813,1.2813,1.4585,1.2074,1.1587,1.4099,1.2289,1.1738,1.3108,1.1617,1.0846,1.1086,0.9883,0.9602,1.0089,0.6538,0.4732,0.4569,0.1086,0.0,-1.7605,-2.0656,-2.2944,-2.2944,-2.2475,-2.1898,-2.162,-1.879,-1.5072,-1.0718,-1.1708,-1.1944,-0.7254,-1.2282,-1.397,-0.4035,-0.697,-0.7143,0.2496,0.3512,0.3159,0.2941,0.2724,0.2285,0.1415,0.1956,0.2173,0.1959,0.2615,0.0838,-0.4294,-0.0932,0.2278,0.4666,0.0889,0.0689,0.4558,0.4016,0.3361,0.2495,0.2386,0.2491,0.2815,0.2815,0.2923,0.314,0.2707,0.2491,0.2491,0.2055,0.1517,0.0976,0.0973,0.0217,-0.0868,-0.0865,-0.1192,-0.2253,-0.5682,-0.4224,-0.16,-0.6159,-0.5353,-0.2495,-0.1953,-0.1408,-0.1082,-0.1083,-0.1083,-0.1085,-0.0652,-0.0544,-0.0435,0.0,0.0976,0.2274,0.3459,0.4112,0.4544,0.4652,0.5207,0.5747,0.6374,0.7008,0.7851,0.9008,0.9552,1.0187,1.119,1.0633,0.9899,0.9567,0.9461,0.9552,0.9855,0.7767,0.6795,0.7416,0.6009,0.5379,0.6152,0.4658,0.4327,0.5371,0.4202,0.3114,0.2053,-0.0464,-0.2818,-0.5106,-0.5096,-0.4306,-2.1451,-2.5616,-2.9527,-2.9612,-3.2786,-3.4799,-3.0607,-2.9041,-2.5603,-1.5524,-1.6634,-1.7346,-1.0559,-1.4919,-1.6837,-0.8668,-0.9931,-0.9351,-0.1729,0.0102,0.0308,-0.0691,0.0101,0.062,0.0413,0.0,-0.0414,-0.0518,-0.2517,-0.6537,-1.3116,-0.8609,-0.4927,-0.295,-0.7521,-0.663,0.0619,0.0746,-0.0839,-0.4239,-0.3772,-0.3523,-0.3419,-0.3419,-0.2738,-0.141,-0.1627,-0.1736,-0.1841,-0.3358,-0.3942,-0.4027,-0.5499,-0.6015,-0.6092,-0.6288,-0.6277,-0.7174,-1.3089,-1.0467,-0.6164,-1.656,-1.4366,-0.7529,-0.6633,-0.5644,-0.4894,-0.4577,-0.4519,-0.4356,-0.3448,-0.3154,-0.2937,-0.2281,-0.1847,-0.1736,-0.1736,-0.0868,0.0217,0.0865,0.1733,0.2603,0.3135,0.3346,0.3878,0.4838,0.5587,0.6549,0.7697,0.5463,0.4409,0.6043,0.6901,0.6783,0.557,0.3539,0.1717,0.0535,-0.1073,-0.1722,-0.14,-0.2802,-0.2939,-0.1281,-0.1672,-0.308,-0.5448,-0.6272,-0.8525,-1.1878,-0.8661,-0.5545,-3.3513,-3.591,-3.6604,-3.6731,-3.2677,-2.9735,-3.394,-3.011,-2.6177,-2.809,-2.9045,-2.9251,-2.8151,-2.6521,-2.5431,-2.5616,-2.4789,-2.3315,-2.1018,-1.6569,-1.5454,-2.044,-1.5789,-1.1694,-1.0531,-1.1132,-1.111,-0.9829,-1.7037,-2.1957,-2.2998,-2.1335,-2.0185,-1.9866,-1.3837,-1.0624,-1.0656,-0.4503,-0.8022,-2.1121,-1.4271,-1.0738,-1.0203,-1.0203,-0.6572,-0.0325,-0.1298,-0.173,-0.2353,-0.9604,-1.2531,-1.3261,-2.049,-2.3285,-2.3308,-2.4269,-2.4642,-2.4679,-2.5775,-2.1363,-1.7604,-3.1225,-3.0745,-2.4734,-2.4521,-2.4573,-2.3136,-1.5917,-1.4121,-1.2638,-0.5303,-0.348,-0.3371,-0.3263,-0.2495,-0.173,-0.173,-0.0865,-0.0108,-0.0433,-0.0325,-0.0433,-0.0868,-0.0108,0.0646,0.0754,0.0861,0.1507,0.313,0.2595,0.2599,0.3777,0.2915,0.3022,0.4838,-0.0753,-0.3233,-0.0754,-0.4302,-0.5703,-0.3872,-0.6549,-0.9487,-1.2549,-1.4605,-1.7417,-2.099,-2.5107,-2.6427,-2.502,-2.8207,-2.8096,-3.5841,-3.7533,-3.8075,-3.8197,-3.6039,-3.4564,-3.7099,-3.5413,-3.2668,-3.0736,-3.3293,-3.4421,-2.9812,-3.3116,-3.4996,-3.0049,-3.1022,-3.0524,-2.5045,-2.2184,-2.157,-2.4074,-2.1874,-1.9903,-1.9254,-1.9693,-1.9755,-1.9045,-2.3843,-2.8219,-3.1569,-2.8004,-2.7428,-3.0885,-2.3388,-2.1615,-2.6379,-1.913,-1.886,-2.5415,-2.2511,-2.0872,-2.0402,-2.059,-1.8711,-1.5312,-1.6027,-1.6338,-1.6654,-2.0407,-2.1955,-2.2314,-2.6,-2.7349,-2.7345,-2.7872,-2.8047,-2.8556,-3.2619,-3.1371,-2.8884,-3.5211,-3.2401,-2.659,-2.659,-2.6875,-2.639,-2.262,-2.1802,-2.1298,-1.7548,-1.668,-1.6826,-1.6823,-1.6584,-1.6374,-1.6236,-1.2822,-0.9572,-0.9128,-0.5499,-0.2607,-0.3041,-0.2711,-0.2383,-0.2383,-0.2058,-0.4458,-1.1884,-1.3024,-1.262,-1.1184,-0.8072,-0.6261,-0.6591,-0.8929,-0.9167,-0.6296,-1.1139,-1.3443,-1.185,-1.3149,-1.5653,-1.9619,-2.0687,-2.2705,-2.5798,-2.8353,-2.9452,-2.9153,-2.891,-2.77,-3.6155,-3.7444,-3.8359,-3.8527,-3.8858,-3.9184,-3.9182,-3.9413,-3.8198,-3.3151,-3.6314,-3.8348,-3.2575,-3.722,-4.0348,-3.5341,-3.6355,-3.609,-3.1319,-2.9481,-2.9041,-3.0343,-2.9185,-2.8076,-2.768,-2.8181,-2.9224,-3.1014,-3.2634,-3.5557,-3.9974,-3.5948,-3.556,-4.0075,-3.3072,-3.1922,-3.7479,-3.2174,-3.0301,-3.1997,-3.0961,-3.0301,-3.0004,-3.0111,-2.8994,-2.6969,-2.7137,-2.7191,-2.7367,-2.9298,-3.0092,-3.0218,-3.2102,-3.2811,-3.2786,-3.2786,-3.2759,-3.3439,-3.8453,-3.9349,-3.8194,-3.83,-3.4844,-3.0652,-3.0652,-3.0984,-3.1031,-2.9123,-2.8851,-2.8718,-2.692,-2.6628,-2.6774,-2.6685,-2.711,-2.7422,-2.7292,-2.3416,-1.972,-1.876,-1.3905,-0.9997,-1.0197,-1.0197,-1.0197,-1.0197,-0.9707,-1.3324,-2.4198,-2.5036,-2.4232,-2.2937,-1.8229,-1.5842,-1.7598,-1.7685,-1.6712,-1.4758,-1.9114,-2.13,-2.006,-2.0314,-2.2161,-2.5807,-2.5355,-2.6536,-2.9398,-2.9523,-2.9684,-2.9953,-2.6948,-2.4688,-3.6913,-3.8025,-3.9046,-3.9384,-3.9401,-3.9445,-3.9562,-3.9662,-3.9572,-3.9197,-4.0808,-4.2563,-4.3586,-3.89,-3.7933,-4.7235,-4.3434,-4.1443,-4.76,-4.3977,-4.2607,-4.7841,-4.2485,-3.7806,-3.6416,-3.7513,-4.1016,-4.7605,-4.8221,-4.842,-4.871,-4.8453,-4.8453,-4.871,-4.1798,-3.8194,-3.8574,-3.8208,-4.1275,-4.7555,-4.0546,-3.7209,-3.714,-3.6677,-3.2753,-2.6267,-2.5812,-2.5594,-2.6098,-3.2943,-3.5761,-3.6445,-4.3226,-4.5765,-4.5734,-4.5734,-4.5654,-4.537,-4.4682,-4.4354,-4.4272,-4.4272,-4.4424,-4.47,-4.47,-4.5023,-4.4033,-3.7321,-3.5443,-3.3921,-2.7293,-2.5555,-2.5488,-2.5371,-2.5963,-2.6499,-2.6303,-2.6705,-2.7055,-2.7014,-2.6663,-2.6368,-2.6368,-2.6429,-2.6429,-2.6429,-2.6368,-2.6621,-2.7393,-2.5502,-2.4071,-2.4071,-2.3705,-2.3561,-2.366,-2.5664,-2.678,-2.635,-2.7527,-2.7695,-2.6385,-2.7429,-2.9316,-3.214,-3.0516,-3.1487,-3.5323,-3.3652,-3.1367,-2.8485,-2.8309,-2.6195,-2.5438,-2.9665,-3.37,-3.3105,-3.6298,-3.9562,-3.9666,-3.9674,-3.9678,-3.9764,-4.1982,-4.4039,-4.4723,-4.4605,-4.5637,-4.9279,-4.7811,-4.7045,-4.9541,-4.8139,-4.7532,-4.9506,-4.7457,-4.5548,-4.5009,-4.5481,-4.6821,-4.9337,-4.9273,-4.911,-4.8991,-4.896,-4.8774,-4.863,-4.626,-4.4964,-4.4793,-4.4793,-4.6006,-4.8278,-4.522,-4.3568,-4.3103,-4.2956,-4.1411,-3.8882,-3.881,-3.8839,-3.9019,-4.1664,-4.2588,-4.2499,-4.509,-4.5794,-4.5409,-4.5409,-4.5329,-4.511,-4.3662,-4.2904,-4.2677,-4.3076,-4.3404,-4.3559,-4.3559,-4.3846,-4.3724,-4.1567,-4.1146,-4.0984,-3.8901,-3.8416,-3.8577,-3.8399,-3.8748,-3.8971,-3.8779,-3.5517,-3.2615,-3.2615,-2.9443,-2.672,-2.672,-2.7201,-2.7574,-2.7574,-3.4524,-3.9685,-3.9685,-3.9306,-3.8966,-3.8966,-3.496,-3.2391,-3.2565,-3.2879,-3.1743,-2.8639,-3.1691,-3.3106,-3.1916,-3.1407,-3.2762,-3.6215,-3.4578,-3.3565,-3.3395,-3.2103,-2.9489,-2.5986,-2.6447,-2.4604,-2.0808,-2.5899,-3.0679,-2.9635,-3.4636,-3.9704,-3.9709,-3.971,-3.9786,-3.9864,-4.2439,-4.4784,-4.4857,-4.7656,-4.9932,-4.9946,-4.9928,-4.99,-4.9856,-4.9715,-4.9625,-4.9616,-4.9563,-4.9521,-4.9477,-4.9326,-4.9295,-4.9198,-4.8916,-4.8677,-4.8633,-4.8505,-4.8298,-4.8142,-4.8331,-4.8205,-4.7897,-4.7897,-4.7687,-4.7339,-4.7061,-4.6552,-4.5866,-4.5599,-4.5384,-4.5212,-4.5074,-4.4936,-4.4936,-4.507,-4.4867,-4.4594,-4.4594,-4.4177,-4.3657,-4.387,-4.346,-4.2574,-4.1588,-4.0927,-4.0616,-4.1051,-4.1358,-4.1477,-4.1477,-4.1946,-4.251,-4.2843,-4.3394,-4.3862,-4.4332,-4.4558,-4.4681,-4.4442,-4.4869,-4.5358,-4.5119,-4.1816,-3.8993,-3.8993,-3.563,-3.2842,-3.2842,-3.333,-3.3673,-3.3673,-4.0793,-4.6274,-4.6463,-4.6915,-4.7205,-4.7205,-4.3067,-4.0301,-4.0526,-3.9602,-3.7674,-3.4429,-3.6805,-3.7745,-3.6557,-3.5594,-3.5848,-3.7407,-3.5742,-3.3712,-3.1525,-3.027,-2.817,-2.5397,-2.56,-2.4207,-2.3948,-2.7494,-3.0475,-2.9688,-3.4594,-3.9628,-3.9818,-3.9662,-3.9598,-3.9836,-4.2571,-4.4927,-4.4867,-4.7659,-4.9991,-4.9991,-4.9809,-4.9678,-4.9566,-4.9426,-4.9341,-4.9339,-4.9474,-4.9541,-4.9502,-4.9054,-4.8751,-4.8584,-4.8352,-4.8187,-4.8187,-4.8116,-4.7954,-4.8014,-4.7954,-4.777,-4.7195,-4.7195,-4.6811,-4.6073,-4.6154,-4.5907,-4.5346,-4.4363,-4.3862,-4.3811,-4.2817,-4.2371,-4.2371,-4.2371,-4.2313,-4.2313,-4.2313,-4.1893,-4.141,-4.2016,-4.0802,-3.8819,-3.8819,-3.8819,-3.8887,-3.8887,-3.9244,-3.9594,-3.9594,-4.0428,-4.135,-4.135,-4.1834,-4.2313,-4.2371,-4.2371,-4.2313,-4.1898,-4.2952,-4.4031,-4.3728,-4.4892,-4.592,-4.592,-4.5837,-4.5796,-4.5796,-4.5711,-4.5669,-4.5669,-4.5626,-4.5754,-4.6274,-4.6803,-4.7097,-4.7133,-4.6912,-4.6832,-4.676,-4.5549,-4.4606,-4.4363,-4.2928,-4.1579,-4.0302,-4.0108,-3.8728,-3.5947,-3.3948,-3.2267,-3.0612,-2.8837,-2.7576,-2.6753,-2.5973,-2.5358,-1.3509,-1.9196,-2.469,-2.8576,-3.0953,-3.3697,-3.8695,-3.5967,-3.3807,-3.8783,-4.2582,-4.4931,-4.4904,-4.7596,-4.9833,-4.9787,-4.9687,-4.9578,-4.9566,-4.946,-4.9355,-4.9339,-4.929,-4.9148,-4.8745,-4.8704,-4.846,-4.804,-4.8057,-4.7881,-4.7538,-4.777,-4.7739,-4.7411,-4.7339,-4.7167,-4.6841,-4.6463,-4.5991,-4.5523,-4.4914,-4.451,-4.4065,-4.3192,-4.2817,-4.2761,-4.2004,-4.1652,-4.1652,-4.123,-4.0802,-4.0427,-4.0427,-4.0105,-3.9512,-3.9058,-3.8366,-3.7636,-3.7806,-3.8005,-3.8274,-3.875,-3.8965,-3.9101,-3.9101,-3.9311,-3.971,-3.9983,-4.0553,-4.1113,-4.1109,-4.1775,-4.2191,-4.1537,-4.2068,-4.264,-4.2349,-4.2622,-4.3006,-4.3006,-4.3523,-4.3863,-4.3629,-4.4454,-4.5114,-4.5025,-4.3594,-4.2777,-4.3247,-4.3456,-4.3712,-4.4111,-4.5257,-4.5793,-4.5302,-4.4937,-4.4701,-4.4606,-4.2436,-4.0985,-4.0554,-3.9457,-3.8494,-3.7593,-3.4623,-3.2835,-3.2348,-2.9409,-2.7576,-2.6753,-2.5973,-2.5358,-0.9065,-1.4155,-2.032,-2.6088,-2.8595,-3.1479,-3.8305,-3.5681,-3.3382,-3.8764,-4.2019,-4.4048,-4.4697,-4.6924,-4.8921,-4.9526,-4.9503,-4.9474,-4.9385,-4.9306,-4.9166,-4.911,-4.9086,-4.8819,-4.8457,-4.8197,-4.7897,-4.7656,-4.7334,-4.7132,-4.6844,-4.6954,-4.6917,-4.6728,-4.6618,-4.6274,-4.5836,-4.5574,-4.5005,-4.4215,-4.3811,-4.334,-4.2808,-4.2421,-4.1957,-4.1356,-4.0616,-4.03,-4.03,-4.0044,-3.9655,-3.9318,-3.9318,-3.8974,-3.8274,-3.6871,-3.6206,-3.6112,-3.6281,-3.6151,-3.6151,-3.7291,-3.7363,-3.7162,-3.7921,-3.8274,-3.8552,-3.8847,-3.9385,-3.9907,-3.985,-4.0425,-4.074,-4.0173,-4.0616,-4.105,-4.0865,-4.1295,-4.1656,-4.1656,-4.2235,-4.2677,-4.2566,-4.3089,-4.3389,-4.2957,-4.2049,-4.1596,-4.2178,-4.2171,-4.2566,-4.3574,-4.4654,-4.5098,-4.4749,-4.4247,-4.3728,-4.3261,-4.1637,-4.0491,-3.9915,-3.8974,-3.8005,-3.7234,-3.4546,-3.2673,-3.1939,-2.9321,-2.7758,-2.7303,-2.6159,-2.4905,-0.8702,-1.1828,-1.7451,-2.3309,-2.6556,-3.0063,0.0,-3.5666,-3.4305,-3.7842,-4.0297,-4.23,-4.3889,-4.5651,-4.7401,-4.8837,-4.9101,-4.9064,-4.9181,-4.9091,-4.8885,-4.8755,-4.8707,-4.8633,-4.8325,-4.7656,-4.7161,-4.7127,-4.647,-4.6172,-4.6172,-4.5978,-4.5936,-4.6131,-4.5851,-4.5416,-4.4742,-4.4645,-4.3996,-4.2705,-4.2752,-4.2357,-4.16,-4.1656,-4.1112,-3.9976,-3.9237,-3.8887,-3.8819,-3.868,-3.8611,-3.868,-3.8483,-3.8063,-3.7291,-3.5068,-3.4419,-3.4419,-3.4209,-3.368,-3.3309,-3.4937,-3.486,-3.4418,-3.6057,-3.6944,-3.7507,-3.7306,-3.8005,-3.875,-3.8483,-3.8622,-3.876,-3.8494,-3.905,-3.9523,-3.9451,-4.03,-4.1109,-4.1109,-4.1477,-4.1843,-4.1843,-4.154,-4.1113,-4.0357,-4.074,-4.1356,-4.1829,-4.1824,-4.251,-4.4048,-4.4247,-4.4393,-4.4606,-4.3728,-4.2667,-4.147,-4.0924,-4.0111,-3.8956,-3.8552,-3.7593,-3.6096,-3.4313,-3.2592,-3.1072,-2.9146,-2.8166,-2.8166,-2.6119,-2.398,0.0,0.0,0.0,0.0,0.0,0.0,0.0,-2.5299,-2.4116,-2.9375,-3.4613,-3.8812,-4.0385,-4.3024,-4.5571,-4.7041,-4.7256,-4.7577,-4.8808,-4.8991,-4.8841,-4.8505,-4.827,-4.8043,-4.778,-4.7484,-4.7025,-4.6463,-4.6416,-4.6172,-4.5819,-4.6048,-4.6213,-4.6213,-4.5505,-4.5029,-4.4843,-4.42,-4.3378,-4.2126,-4.1952,-4.1295,-4.0167,-4.0033,-3.9836,-3.9572,-3.9371,-3.8965,-3.8344,-3.7,-3.6854,-3.7348,-3.5961,-3.5352,-3.5044,-3.3249,-3.2955,-3.3279,-3.1788,-3.1705,-3.2202,-3.2611,-3.248,-3.2398,-3.2804,-3.3974,-3.4753,-3.3447,-3.5516,-3.765,-3.5722,-3.7089,-3.875,-3.8145,-3.8494,-3.9033,-3.8965,-3.9169,-3.9311,-3.9311,-3.9438,-3.9572,-3.9644,-4.0037,-4.0037,-3.9042,-3.9378,-3.9902,-3.9972,-3.9972,-4.0359,-4.1173,-4.1652,-4.251,-4.3964,-4.4314,-4.3897,-4.2722,-4.1643,-4.0427,-3.8956,-3.8819,-3.8483,-3.7793,-3.6096,-3.5061,-3.47,-3.094,-2.9319,-2.958,-2.4529,-2.1736,0.0,0.0,0.0,0.0,0.0,0.0,0.0,0.0,0.0,0.0,0.0,-3.3839,-3.7589,0.0,-4.2833,-4.5108,-4.6195,-4.6961,-4.7703,-4.8439,-4.8384,-4.7059,-4.6845,-4.6898,-4.7239,-4.6987,-4.6534,-4.6006,-4.5749,-4.5599,-4.5328,-4.5509,-4.5485,-4.5304,-4.4886,-4.4382,-4.3913,-4.3192,-4.2421,-4.1416,-4.0927,-4.0231,-3.9371,-3.9169,-3.9024,-3.875,-3.8274,-3.7721,-3.7146,-3.581,-3.5505,-3.5658,-3.3971,-3.3572,-3.3652,-3.1516,-3.1008,-3.1299,-3.1251,-3.1251,-3.1371,-3.2284,-3.2284,-3.1905,-3.1905,-3.248,-3.3016,-3.207,-3.3367,-3.4623,-3.3447,-3.4235,-3.5289,-3.4984,-3.5797,-3.6668,-3.6668,-3.7521,-3.8413,-3.8413,-3.8622,-3.8887,-3.8691,-3.8906,-3.9109,-3.9033,-3.9237,-3.9498,-3.9498,-3.9498,-3.9836,-4.0678,-4.1049,-4.1765,-4.3168,-4.3537,-4.3677,-4.3813,-4.2635,-4.1334,-4.005,-3.905,-3.8483,-3.8274,-3.6668,-3.5797,-3.5742,-3.1477,-2.9316,-2.9229,-2.323,-1.987,0.0,0.0,0.0,0.0,0.0,0.0,0.0,0.0,0.0,0.0,0.0,0.0,0.0,0.0,0.0,-4.2691,-4.4647,-4.586,-4.6078,-4.7022,-4.7056,-4.5197,-4.4964,-4.5229,-4.5988,-4.5897,-4.5669,-4.5331,-4.5098,-4.4858,-4.4858,-4.481,-4.4616,-4.4385,-4.4166,-4.3685,-4.2919,-4.2357,-4.1596,-4.074,-4.0228,0.0,-3.875,-3.875,-3.8542,-3.805,-3.7202,-3.6689,-3.6336,-3.5505,-3.5044,-3.4733,-3.3168,-3.3037,-3.352,-3.1008,-2.9849,-2.9761,-3.1093,-3.0744,-2.9926,-3.1455,-3.1455,-3.0819,-3.0819,-3.112,0.0,-3.0903,-3.1323,-3.1823,-3.1407,-3.1574,-3.1905,-3.1905,-3.2936,-3.3974,-3.4287,-3.5872,-3.7306,-3.765,-3.8204,-3.8542,-3.8344,-3.8133,-3.8145,-3.8769,-3.9237,-3.9498,-3.9498,-3.9498,-3.9907,-4.111,-4.141,-4.194,-4.2777,-4.2677,-4.2805,-4.3454,-4.1867,-4.0266,-3.8754,-3.732,-3.6858,-3.7586,-3.6283,-3.5801,-3.6244,-3.1676,-2.9358,-2.8834,-2.166,-1.7501,0.0,0.0,0.0,0.0,0.0,0.0,0.0,0.0,0.0,0.0,0.0,0.0,0.0,0.0,0.0,0.0,-4.1126,-4.2616,-4.3895,-4.4106,-4.3885,-4.3291,-4.3131,-4.3123,-4.3204,-4.3738,-4.4015,-4.3975,-4.457,-4.4858,-4.4858,-4.4567,0.0,0.0,0.0,-4.3028,-4.2919,-4.2536,-4.172,-4.0485,-4.0421,-3.9704,-3.8344,-3.8344,-3.8274,-3.8121,-3.7979,-3.7765,-3.7348,-3.7202,-3.6689,-3.5734,-3.4733,-3.4888,-3.5375,-3.352,-3.1754,-3.0316,-2.9712,0.0,0.0,-2.7129,-2.7129,-2.7079,-2.7079,-2.817,-2.9101,-2.7492,-2.9406,-3.149,-2.984,-3.0697,-3.1905,-3.1905,-3.1988,-3.2561,-3.4052,-3.4652,-3.5267,-3.6854,-3.7275,-3.7564,-3.8204,-3.7579,-3.6871,-3.6686,-3.8297,-3.9498,-3.9632,-3.9565,-3.9907,-4.111,-4.2106,0.0,-4.3998,-4.3171,-4.1576,-3.9151,-3.6029,-3.3146,-3.0561,-3.0325,-3.1711,-3.4915,-3.4836,-3.5815,-3.8005,-3.2663,-3.0237,-3.0394,-1.9476,-1.3799,0.0,0.0,0.0,0.0,0.0,0.0,0.0,0.0,0.0,0.0,0.0,0.0,0.0,0.0,0.0,0.0,-3.8658,-4.0141,-3.9521,-4.0138,-4.0804,-4.1435,-4.135,-4.1569,-4.2202,-4.2533,-4.255,-4.2117,-4.2297,-4.2903,-4.361,-4.3537,-4.354,-4.396,-4.3592,-4.316,-4.2649,-4.2138,-4.136,-4.0421,-3.9972,-3.9177,-3.8191,-3.8191,-3.805,-3.7836,-3.7202,-3.691,-3.6689,-3.6036,-3.5886,-3.5961,0.0,0.0,0.0,0.0,-3.1424,-2.9612,-3.0509,-3.0316,-2.9496,-2.8349,-2.8349,-2.8527,-2.6896,-2.6896,-2.722,-2.662,-2.7451,-2.8394,-2.7721,-2.817,-2.8749,-2.8749,-2.9493,-3.0612,-3.1823,-3.3016,-3.4104,-3.5352,-3.5582,0.0,-3.7218,-3.7017,-3.7089,-3.8017,-3.8906,-3.9498,-3.9565,-3.9498,-3.9976,-4.1283,-4.192,-4.1615,-4.0108,-3.9583,0.0,0.0,0.0,-3.1091,-2.9317,-2.9249,0.0,0.0,0.0,-3.3363,-3.333,-2.7299,0.0,0.0,-1.6601,-1.2547,0.0,0.0,0.0,0.0,0.0,0.0,0.0,0.0,0.0,0.0,0.0,0.0,0.0,0.0,0.0,0.0,-3.5879,-3.7492,-3.5938,-3.6956,-3.8244,-3.9059,-3.9473,-3.9816,-4.0113,-4.0831,-4.1044,-4.048,-4.0697,-4.1221,-4.2173,-4.2404,-4.2778,-4.3256,-4.3446,-4.3214,-4.2536,-4.1962,-4.136,-4.0675,-3.9907,-3.9109,-3.8402,-3.8121,-3.7908,-3.7621,-3.6836,-3.6485,-3.6336,-3.5582,-3.5658,-3.6281,-3.6181,-3.5507,-3.4448,-3.3123,-3.16,-3.0328,-3.0944,-3.1013,-3.062,-2.9233,-2.8923,-2.8832,-2.7541,-2.6296,-2.5521,-2.6124,-2.5822,-2.5431,-2.5852,-2.6023,-2.6063,-2.6304,-2.7402,-2.8793,-3.0184,-3.1539,-3.2824,-3.4182,-3.405,-3.4078,-3.5114,-3.6226,-3.7378,-3.8701,-3.9237,-3.9498,-3.9565,-3.9841,-4.0554,-4.1905,-4.245,-4.1208,-3.7705,-3.6843,-3.4302,-2.9016,-2.8117,-2.7109,-2.553,-2.5861,-2.6827,-2.8474,-3.047,-3.0994,0.0,0.0,0.0,0.0,0.0,0.0,0.0,0.0,0.0,0.0,0.0,0.0,0.0,0.0,0.0,0.0,0.0,0.0,0.0,0.0,0.0,0.0,0.0,0.0,-3.4146,-3.5421,-3.6315,-3.5968,-3.7222,-3.7453,-3.5771,-3.7957,-3.9565,-3.946,-4.031,-4.0891,-4.085,-4.161,-4.2047,-4.2047,-4.2626,-4.2984,-4.2919,-4.2536,-4.2021,-4.136,-4.0423,-3.9644,-3.9033,-3.8133,-3.7693,-3.7492,-3.7492,-3.7275,-3.7057,-3.7057,-3.7057,-3.6831,-3.4477,-3.4241,-3.5129,-3.3226,-3.317,-3.3542,-3.02,-2.8475,-2.7716,-2.7939,-2.677,-2.5662,-2.8132,-2.6364,-2.3894,-2.5427,-2.4716,-2.3595,-2.4638,-2.4924,-2.5252,-2.6183,-2.6476,-2.722,-2.9926,-3.0526,-3.1371,-3.3891,-3.3067,-3.1905,-3.1705,-3.4777,-3.7393,-3.7535,-3.8632,0.0,-3.9632,-4.074,-4.1961,-4.3153,-4.4525,-4.3533,-3.9003,-3.6687,-3.1863,-2.35,-2.0964,-1.8623,-1.5846,-1.7102,-1.7909,-1.7976,-2.5274,-2.9628,-3.0712,0.0,0.0,0.0,0.0,0.0,0.0,0.0,0.0,0.0,0.0,0.0,0.0,0.0,0.0,0.0,0.0,0.0,0.0,0.0,0.0,0.0,0.0,0.0,0.0,-3.3583,-3.6307,-3.6159,-3.7227,-3.6902,-3.4204,-3.649,-3.7673,-3.6493,-3.7598,-3.8613,-3.9236,-3.9544,-4.032,-4.1804,-4.2089,-4.1875,-4.1166,-4.1969,-4.1334,-3.9315,-3.9992,-3.9704,-3.8552,-3.8622,-3.8133,-3.7275,-3.7636,-3.7107,-3.6001,-3.6001,-3.5576,-3.4928,-3.341,-3.3085,-3.3171,-3.1169,-3.1165,-3.1737,-2.9142,-2.8077,-2.7723,-2.6155,-2.5607,-2.5563,-2.5309,-2.4218,-2.3314,-2.4014,-2.3641,-2.3145,-2.3713,-2.3878,-2.4075,-2.4945,-2.5143,-2.5712,-2.7863,-2.8349,-2.8704,-3.0058,-3.112,-3.1789,-3.132,-3.4647,-3.6694,-3.4985,-3.7389,-3.9498,-3.9565,-3.9911,-4.1104,-4.3394,-4.4082,-4.1562,-3.4663,-3.3384,-2.86,-1.8509,-1.6447,-1.5341,-1.4355,-1.4019,-1.5027,-1.7548,-2.0171,-2.01,-1.7306,0.0,0.0,0.0,0.0,0.0,0.0,0.0,0.0,0.0,0.0,0.0,0.0,0.0,0.0,0.0,0.0,0.0,0.0,0.0,0.0,0.0,0.0,0.0,0.0,0.0,0.0,-3.6123,-3.6372,0.0,-3.2732,-3.4031,-3.4578,-3.3444,-3.5172,-3.6544,-3.7183,-3.8002,-3.912,-4.057,-4.0849,-4.0677,-4.0002,-4.0755,-4.0209,-3.824,-3.8817,-3.8573,-3.7537,-3.7537,-3.7138,-3.632,-3.6469,-3.5999,-3.5119,-3.4662,-3.3403,-3.168,-3.0876,-3.0305,-2.9745,-2.773,-2.7792,-2.8637,-2.6999,-2.6432,-2.6151,-2.4805,-2.3779,-2.288,-2.2774,-2.115,-1.9539,-2.0541,-2.0777,-2.0821,-2.088,-2.1816,-2.275,-2.3045,-2.3816,-2.4915,-2.6371,-2.7013,-2.7673,-2.9361,-3.1642,-3.2574,-3.0307,-3.2836,-3.4623,-3.2806,-3.4842,-3.7272,-3.9252,-4.0365,-4.1741,-4.3527,-4.2913,-3.9488,-3.2311,-2.9536,-2.4374,-1.5385,-1.3772,-1.3122,-1.3122,-1.2491,-1.2099,-1.2205,-1.416,-1.2794,0.0,0.0,0.0,0.0,0.0,0.0,0.0,0.0,0.0,0.0,0.0,0.0,0.0,0.0,0.0,0.0,0.0,0.0,0.0,0.0,0.0,0.0,0.0,0.0,0.0,0.0,0.0,-3.4898,-3.4296,0.0,0.0,0.0,0.0,-3.0243,-3.2885,-3.4476,-3.4588,-3.6835,-3.8232,-3.837,-3.9041,-3.939,-3.9324,-3.9009,-3.8566,-3.794,-3.7186,-3.6585,-3.6137,-3.53,-3.4869,-3.4744,-3.4308,-3.4372,-3.4572,-3.3164,-3.0657,-2.7652,-2.6934,-2.5984,-2.488,-2.3051,-2.3243,-2.4266,-2.4075,-2.3642,-2.3195,-2.3903,-2.1232,-1.8148,-2.0462,-1.7182,0.0,0.0,-1.613,-1.6651,-1.6503,-1.8994,-2.1379,-2.105,-2.2807,-2.49,-2.5809,-2.678,-2.8264,-3.1171,-3.3605,-3.343,-2.7893,0.0,-3.0545,-3.048,-3.0828,-3.2983,-3.8115,-4.1286,-4.3083,-4.2995,-4.0725,-3.6968,-3.1541,-2.5448,-1.9516,-1.4039,-1.2596,-1.1839,-1.161,-1.1417,-0.8438,-0.2028,-0.712,0.0,0.0,0.0,0.0,0.0,0.0,0.0,0.0,0.0,0.0,0.0,0.0,0.0,0.0,0.0,0.0,0.0,0.0,0.0,0.0,0.0,0.0,0.0,0.0,0.0,0.0,-2.3057,-2.6981,-2.4253,-2.7921,-2.7894,0.0,0.0,0.0,0.0,0.0,0.0,-3.128,-3.2781,-3.458,-3.6827,-3.7616,-3.7925,-3.7902,-3.8529,-3.8044,-3.6347,-3.7231,-3.7149,-3.6305,-3.642,-3.5839,-3.4682,-3.5057,-3.4404,-3.2986,-2.9715,-2.7599,-2.6121,-2.2722,-2.078,-1.9825,-1.8579,-1.8337,-1.9018,-2.1982,-2.2851,-2.2647,-2.2291,-2.0085,-1.7184,-1.4616,0.0,0.0,0.0,0.0,-1.318,-1.5857,-1.8538,-2.14,-2.4636,-2.5876,-2.6898,-2.8755,-2.9354,-2.8549,-2.5288,-2.6116,-2.4674,-1.6115,-1.7979,0.0,-1.8606,-2.4348,-2.889,-2.8992,-3.2336,-3.3971,-3.2236,-3.0598,-2.7926,-2.3489,-2.159,-1.8322,-1.2878,-1.1434,-0.898,-0.5024,-0.3232,-0.0248,0.4204,0.0,0.0,0.0,0.0,0.0,0.0,0.0,0.0,0.0,0.0,0.0,0.0,0.0,0.0,0.0,0.0,0.0,0.0,0.0,0.0,0.0,0.0,0.0,0.0,0.0,0.0,0.0,-1.5037,-2.0689,-2.0272,-2.2258,-2.1696,0.0,0.0,0.0,0.0,0.0,0.0,0.0,0.0,0.0,-3.3611,-3.3961,-3.436,-3.4822,-3.6101,-3.5885,-3.4359,-3.5738,-3.599,-3.5273,-3.5533,-3.5115,-3.4192,-3.4136,-3.288,-3.0851,-2.8852,-2.6342,-2.3463,0.0,0.0,0.0,0.0,-1.3349,-1.3514,-1.5132,-1.5713,-1.5678,-1.4901,0.0,0.0,0.0,0.0,0.0,0.0,0.0,-0.3615,-0.58,-0.6686,-0.7506,-0.9313,-1.0631,-1.3186,-1.9665,-2.0664,-1.9552,-1.7017,-1.7801,-1.667,-0.966,-1.0627,0.0,0.0,0.0,-2.1674,-2.3077,-2.6708,-2.8682,-2.7373,-2.5066,-2.2719,-2.0462,-1.7588,-1.3542,-0.81,-0.6679,-0.3949,0.0693,0.2563,0.5407,0.0,0.0,0.0,0.0,0.0,0.0,0.0,0.0,0.0,0.0,0.0,0.0,0.0,0.0,0.0,0.0,0.0,0.0,0.0,0.0,0.0,0.0,0.0,0.0,0.0,0.0,0.0,0.0,0.0,-1.2388,-1.7766,0.0,0.0,0.0,0.0,0.0,0.0,0.0,0.0,0.0,0.0,0.0,0.0,0.0,-2.9957,-3.1146,-3.2608,-3.2792,-3.1788,-3.3655,-3.4063,-3.3148,-3.3776,-3.3815,-3.3301,-3.201,0.0,-2.8529,-2.8409,0.0,0.0,0.0,0.0,0.0,0.0,0.0,0.0,0.0,0.0,0.0,0.0,0.0,0.0,0.0,0.0,0.0,0.0,0.0,0.0,0.0,0.0,0.8818,1.0104,0.8532,0.4357,-0.4455,-0.5692,-0.5629,-0.7389,-0.8932,-0.8619,0.0,0.0,0.0,0.0,0.0,0.0,-1.7539,-2.2057,-2.4737,-2.4171,-2.0895,-1.8715,-1.8715,-1.278,-0.7017,-0.2396,-0.0721,0.1882,0.6069,0.7077,0.0,0.0,0.0,0.0,0.0,0.0,0.0,0.0,0.0,0.0,0.0,0.0,0.0,0.0,0.0,0.0,0.0,0.0,0.0,0.0,0.0,0.0,0.0,0.0,0.0,0.0,0.0,0.0,0.0,0.0,0.0,0.0,0.0,0.0,0.0,0.0,0.0,0.0,0.0,0.0,0.0,0.0,0.0,0.0,0.0,0.0,0.0,0.0,0.0,0.0,-3.2405,-3.2725,-2.9631,-3.3609,-3.4217,-3.1854,-2.8627,-2.7258,-2.6892,-2.3651,0.0,0.0,0.0,0.0,0.0,0.0,0.0,0.0,0.0,0.0,0.0,0.0,0.0,0.0,0.0,0.0,0.0,0.0,0.0,0.0,0.0,0.0,0.0936,-0.0267,-0.1569,-0.0533,0.679,0.0,0.0,0.0,0.0,0.0,0.0,0.0,0.0,0.0,0.0,0.0,-0.6034,-1.2933,-1.6624,-1.3468,-1.1714,-1.071,-1.071,-0.551,-0.189,-0.0942,0.1723,0.595,0.0,0.0,0.0,0.0,0.0,0.0,0.0,0.0,0.0,0.0,0.0,0.0,0.0,0.0,0.0,0.0,0.0,0.0,0.0,0.0,0.0,0.0,0.0,0.0,0.0,0.0,0.0,0.0,0.0,0.0,0.0,0.0,0.0,0.0,0.0,0.0,0.0,0.0,0.0,0.0,0.0,0.0,0.0,0.0,0.0,0.0,0.0,0.0,0.0,0.0,0.0,0.0,0.0,0.0,0.0,0.0,0.0,0.0,-2.5942,-2.2753,0.0,0.0,0.0,0.0,0.0,0.0,0.0,0.0,0.0,0.0,0.0,0.0,0.0,0.0,0.0,0.0,0.0,0.0,0.0,0.0,0.0,0.0,0.0,0.0,0.0,0.0,0.0,0.0,0.0,0.0,0.0,0.0,0.0,0.0,0.0,0.0,0.0,0.0,0.0,0.0,0.3739,-0.0705,-0.3193,-0.1333,-0.0626,-0.0417,-0.0417,0.2073,0.4374,0.6353,0.8192,0.0,0.0,0.0,0.0,0.0,0.0,0.0,0.0,0.0,0.0,0.0,0.0,0.0,0.0,0.0,0.0,0.0,0.0,0.0,0.0,0.0,0.0,0.0,0.0,0.0,0.0,0.0,0.0,0.0,0.0,0.0,0.0,0.0,0.0,0.0,0.0,0.0,0.0,0.0,0.0,0.0,0.0,0.0,0.0,0.0,0.0,0.0,0.0,0.0,0.0,0.0,0.0,0.0,0.0,0.0,0.0,0.0,0.0,0.0,-2.118,-1.6903,0.0,0.0,0.0,0.0,0.0,0.0,0.0,0.0,0.0,0.0,0.0,0.0,0.0,0.0,0.0,0.0,0.0,0.0,0.0,0.0,0.0,0.0,0.0,0.0,0.0,0.0,0.0,0.0,0.0,0.0,0.0,0.0,0.0,0.0,0.0,0.0,0.0,0.0,0.0,0.0,1.1099,0.8932,0.7388,0.7388,0.7388,0.7388,0.7388,0.8404,1.0414,1.3411,1.4394,0.0,0.0,0.0,0.0,0.0,0.0,0.0,0.0,0.0,0.0,0.0,0.0,0.0,0.0,0.0,0.0,0.0,0.0,0.0,0.0,0.0,0.0,0.0,0.0,0.0,0.0,0.0,0.0,0.0,0.0,0.0,0.0,0.0,0.0,0.0,0.0,0.0,0.0,0.0,0.0,0.0,0.0,0.0,0.0,0.0,0.0,0.0,0.0,0.0,0.0,0.0,0.0,0.0,0.0,0.0,0.0,0.0,0.0,0.0,0.0,0.0,0.0,0.0,0.0,0.0,0.0,0.0,0.0,0.0,0.0,0.0,0.0,0.0,0.0,0.0,0.0,0.0,0.0,0.0,0.0,0.0,0.0,0.0,0.0,0.0,0.0,0.0,0.0,0.0,0.0,0.0,0.0,0.0,0.0,0.0,0.0,0.0,0.0,0.0,0.0,0.0,1.4339,1.0366,0.7388,0.7388,0.7388,0.7388,0.7388,1.1801,1.491,1.5588,0.0,0.0,0.0,0.0,0.0,0.0,0.0,0.0,0.0,0.0,0.0,0.0,0.0,0.0,0.0,0.0,0.0,0.0,0.0,0.0,0.0,0.0,0.0,0.0,0.0,0.0,0.0,0.0,0.0,0.0,0.0,0.0,0.0,0.0,0.0,0.0,0.0,0.0,0.0,0.0,0.0,0.0,0.0,0.0,0.0,0.0,0.0,0.0,0.0,0.0,0.0,0.0,0.0,0.0,0.0,0.0,0.0,0.0,0.0,0.0,0.0,0.0,0.0,0.0,0.0,0.0,0.0,0.0,0.0,0.0,0.0,0.0,0.0,0.0,0.0,0.0,0.0,0.0,0.0,0.0,0.0,0.0,0.0,0.0,0.0,0.0,0.0,0.0,0.0,0.0,0.0,0.0,0.0,0.0,0.0,0.0,0.0,0.0,0.0,0.0,0.0,0.0,1.9691,1.8222,1.711,1.711,1.711,1.711,1.711,1.9047,1.9973,1.9357,0.0,0.0,0.0,0.0,0.0,0.0,0.0,0.0,0.0,0.0,0.0,0.0,0.0,0.0,0.0,0.0,0.0,0.0,0.0,0.0,0.0,0.0,0.0,0.0,0.0,0.0,0.0,0.0,0.0,0.0,0.0,0.0,0.0,0.0,0.0,0.0,0.0,0.0,0.0,0.0,0.0,0.0,0.0,0.0,0.0,0.0,0.0,0.0,0.0,0.0,0.0,0.0,0.0,0.0,0.0,0.0,0.0,0.0,0.0,0.0,0.0,0.0,0.0,0.0,0.0,0.0,0.0,0.0,0.0,0.0,0.0,0.0,0.0,0.0,0.0,0.0,0.0,0.0,0.0,0.0,0.0,0.0,0.0,0.0,0.0,0.0,0.0,0.0,0.0,0.0,0.0,0.0,0.0,0.0,0.0,0.0,0.0,0.0,0.0,0.0,0.0,0.0,2.505,2.4859,2.4623,2.4623,2.39,2.3492,2.3492,2.3492,2.321,2.2463,0.0,0.0,0.0,0.0,0.0,0.0,0.0,0.0,0.0,0.0,0.0,0.0,0.0,0.0,0.0,0.0,0.0,0.0,0.0,0.0,0.0,0.0,0.0,0.0,0.0,0.0,0.0,0.0,0.0,0.0,0.0,0.0,0.0,0.0,0.0,0.0,0.0,0.0,0.0,0.0,0.0,0.0,0.0,0.0,0.0,0.0,0.0,0.0,0.0,0.0,0.0,0.0,0.0,0.0,0.0,0.0,0.0,0.0,0.0,0.0,0.0,0.0,0.0,0.0,0.0,0.0,0.0,0.0,0.0,0.0,0.0,0.0,0.0,0.0,0.0,0.0,0.0,0.0,0.0,0.0,0.0,0.0,0.0,0.0,0.0,0.0,0.0,0.0,0.0,0.0,0.0,0.0,0.0,0.0,0.0,0.0,0.0,0.0,0.0,0.0,0.0,0.0,2.9865,2.8425,2.7193,2.7193,2.4961,2.3492,2.3492,2.3492,2.3837,0.0,0.0,0.0,0.0,0.0,0.0,0.0,0.0,0.0,0.0,0.0,0.0,0.0,0.0,0.0,0.0,0.0,0.0,0.0,0.0,0.0,0.0,0.0,0.0,0.0,0.0,0.0,0.0,0.0,0.0,0.0,0.0,0.0,0.0,0.0,0.0,0.0,0.0,0.0,0.0,0.0,0.0,0.0,0.0,0.0,0.0,0.0,0.0,0.0,0.0,0.0,0.0,0.0,0.0,0.0,0.0,0.0,0.0,0.0,0.0,0.0,0.0,0.0,0.0,0.0,0.0,0.0,0.0,0.0,0.0,0.0,0.0,0.0,0.0,0.0,0.0,0.0,0.0,0.0,0.0,0.0,0.0,0.0,0.0,0.0,0.0,0.0,0.0,0.0,0.0,0.0,0.0,0.0,0.0,0.0,0.0,0.0,0.0,0.0,0.0,0.0,0.0,0.0,2.9145,2.9194,2.8325,2.6559,2.7646,2.7869,2.6143,2.7557,2.8496,2.8494,0.0,0.0,0.0,0.0,0.0,0.0,0.0,0.0,0.0,0.0,0.0,0.0,0.0,0.0,0.0,0.0,0.0,0.0,0.0,0.0,0.0,0.0,0.0,0.0,0.0,0.0,0.0,0.0,0.0,0.0,0.0,0.0,0.0,0.0,0.0,0.0,0.0,0.0,0.0,0.0,0.0,0.0,0.0,0.0,0.0,0.0,0.0,0.0,0.0,0.0,0.0,0.0,0.0,0.0,0.0,0.0,0.0,0.0,0.0,0.0,0.0,0.0,0.0,0.0,0.0,0.0,0.0,0.0,0.0,0.0,0.0,0.0,0.0,0.0,0.0,0.0,0.0,0.0,0.0,0.0,0.0,0.0,0.0,0.0,0.0,0.0,0.0,0.0,0.0,0.0,0.0,0.0,0.0,0.0,0.0,0.0,0.0,0.0,0.0,0.0,0.0,0.0,0.0,3.1418,3.0508,2.9008,2.9485,2.9312,2.782,2.9399,3.032,2.9905,0.0,0.0,0.0,0.0,0.0,0.0,0.0,0.0,0.0,0.0,0.0,0.0,0.0,0.0,0.0,0.0,0.0,0.0,0.0,0.0,0.0,0.0,0.0,0.0,0.0,0.0,0.0,0.0,0.0,0.0,0.0,0.0,0.0,0.0,0.0,0.0,0.0,0.0,0.0,0.0,0.0,0.0,0.0,0.0,0.0,0.0,0.0,0.0,0.0,0.0,0.0,0.0,0.0,0.0,0.0,0.0,0.0,0.0,0.0,0.0,0.0,0.0,0.0,0.0,0.0,0.0,0.0,0.0,0.0,0.0,0.0,0.0,0.0,0.0,0.0,0.0,0.0,0.0,0.0,0.0,0.0,0.0,0.0,0.0,0.0,0.0,0.0,0.0,0.0,0.0,0.0,0.0,0.0,0.0,0.0,0.0,0.0,0.0,0.0,0.0,0.0,0.0,0.0,3.4737,3.3557,3.3264,3.064,2.8837,2.8661,2.9576,3.0024,2.9627,2.7987,0.0,0.0,0.0,0.0,0.0,0.0,0.0,0.0,0.0,0.0,0.0,0.0,0.0,0.0,0.0,0.0,0.0,0.0,0.0,0.0,0.0,0.0,0.0,0.0,0.0,0.0,0.0,0.0,0.0,0.0,0.0,0.0,0.0,0.0,0.0,0.0,0.0,0.0,0.0,0.0,0.0,0.0,0.0,0.0,0.0,0.0,0.0,0.0,0.0,0.0,0.0,0.0,0.0,0.0,0.0,0.0,0.0,0.0,0.0,0.0,0.0,0.0,0.0,0.0,0.0,0.0,0.0,0.0,0.0,0.0,0.0,0.0,0.0,0.0,0.0,0.0,0.0,0.0,0.0,0.0,0.0,0.0,0.0,0.0,0.0,0.0,0.0,0.0,0.0,0.0,0.0,0.0,0.0,0.0,0.0,0.0,0.0,0.0,0.0,0.0,0.0,0.0,3.6509,3.5025,3.171,3.2945,3.3316,3.1394,3.3105,3.4411,3.4465,3.1679,0.0,0.0,0.0,0.0,0.0,0.0,0.0,0.0,0.0,0.0,0.0,0.0,0.0,0.0,0.0,0.0,0.0,0.0,0.0,0.0,0.0,0.0,0.0,0.0,0.0,0.0,0.0,0.0,0.0,0.0,0.0,0.0,0.0,0.0,0.0,0.0,0.0,0.0,0.0,0.0,0.0,0.0,0.0,0.0,0.0,0.0,0.0,0.0,0.0,0.0,0.0,0.0,0.0,0.0,0.0,0.0,0.0,0.0,0.0,0.0,0.0,0.0,0.0,0.0,0.0,0.0,0.0,0.0,0.0,0.0,0.0,0.0,0.0,0.0,0.0,0.0,0.0,0.0,0.0,0.0,0.0,0.0,0.0,0.0,0.0,0.0,0.0,0.0,0.0,0.0,0.0,0.0,0.0,0.0,0.0,0.0,0.0,0.0,0.0,0.0,0.0,0.0,3.4822,3.5047,3.3817,3.4652,3.4806,3.3974,3.5419,3.6169,3.5603,3.2767,0.0,0.0,0.0,0.0,0.0,0.0,0.0,0.0,0.0,0.0,0.0,0.0,0.0,0.0,0.0,0.0,0.0,0.0,0.0,0.0,0.0,0.0,0.0,0.0,0.0,0.0,0.0,0.0,0.0,0.0,0.0,0.0,0.0,0.0,0.0,0.0,0.0,0.0,0.0,0.0,0.0,0.0,0.0,0.0,0.0,0.0,0.0,0.0,0.0,0.0,0.0,0.0,0.0,0.0,0.0,0.0,0.0,0.0,0.0,0.0,0.0,0.0,0.0,0.0,0.0,0.0,0.0,0.0,0.0,0.0,0.0,0.0,0.0,0.0,0.0,0.0,0.0,0.0,0.0,0.0,0.0,0.0,0.0,0.0,0.0,0.0,0.0,0.0,0.0,0.0,0.0,0.0,0.0,0.0,0.0,0.0,0.0,0.0,0.0,0.0,0.0,0.0,0.0,3.4823,3.6808,3.5549,3.4811,3.5582,3.6336,3.6169,3.4881,0.0,0.0,0.0,0.0,0.0,0.0,0.0,0.0,0.0,0.0,0.0,0.0,0.0,0.0,0.0,0.0,0.0,0.0,0.0,0.0,0.0,0.0,0.0,0.0,0.0,0.0,0.0,0.0,0.0,0.0,0.0,0.0,0.0,0.0,0.0,0.0,0.0,0.0,0.0,0.0,0.0,0.0,0.0,0.0,0.0,0.0,0.0,0.0,0.0,0.0,0.0,0.0,0.0,0.0,0.0,0.0,0.0,0.0,0.0,0.0,0.0,0.0,0.0,0.0,0.0,0.0,0.0,0.0,0.0,0.0,0.0,0.0,0.0,0.0,0.0,0.0,0.0,0.0,0.0,0.0,0.0,0.0,0.0,0.0,0.0,0.0,0.0,0.0,0.0,0.0,0.0,0.0,0.0,0.0,0.0,0.0,0.0,0.0,0.0,0.0,0.0,0.0,0.0,0.0,3.5963,3.6537,3.5027,3.3947,3.4104,3.4806,3.4819,3.3924,0.0,0.0,0.0,0.0,0.0,0.0,0.0,0.0,0.0,0.0,0.0,0.0,0.0,0.0]}],[{"header":{"parameterUnit":"kt","parameterCategory":2,"dx":1,"dy":1,"la1":29.285339999999998,"la2":30.599998999999997,"lo1":-89.70041500000002,"lo2":-87.6738589999976,"nx":112,"ny":82,"refTime":"2022-09-18T18:00:00:Z","depth":0,"parameterNumber":2,"parameterNumberName":"V-component_of_WINDS"},"data":[5.5847,5.7456,5.7858,5.0425,4.9965,4.9305,4.1224,4.0479,4.0511,3.7095,3.6587,3.7332,3.9304,3.5379,3.2657,3.5247,3.3094,3.0775,0.0,3.0183,0.0,0.0,3.6147,3.911,4.1691,0.0,0.0,5.6421,5.5632,5.7933,6.5298,6.7074,6.7797,6.7797,6.8718,6.9244,6.9244,6.9244,6.9244,6.9244,6.9244,6.9244,6.9244,6.9923,7.0121,7.0187,7.0802,7.1088,7.1088,7.1088,7.1088,7.1176,7.1264,7.1264,7.1131,6.99,6.9834,7.0362,7.089,7.1088,7.1088,7.1088,7.1088,7.1088,7.1088,7.1,7.1,7.1088,7.0911,7.0822,7.0911,7.0911,7.0822,7.0822,7.0822,7.0822,7.0822,7.0822,7.069,7.0164,7.0033,6.9901,6.9309,6.9244,6.9244,6.9244,6.9244,6.9244,6.9244,6.9244,6.9244,6.9244,6.9244,6.9244,6.9244,6.9244,6.9244,6.9244,6.9244,6.9244,6.9244,6.9244,6.9507,7.0033,6.9507,6.9507,7.0033,6.9507,6.9244,6.9244,6.9244,6.9244,5.009,5.1764,5.2239,4.3826,4.3508,4.3456,3.6415,3.593,3.5907,3.25,3.3753,3.4676,3.2237,3.0616,2.992,3.0841,3.0249,2.946,0.0,2.9328,0.0,0.0,0.0,4.1809,4.3258,0.0,0.0,0.0,5.4645,5.7078,6.3851,6.5561,6.635,6.635,6.7271,6.7994,6.852,6.852,6.8718,6.9244,6.9244,6.9244,6.9244,6.9244,6.9244,6.9244,6.9244,6.9244,6.9244,6.9244,6.9331,6.9417,6.9417,6.959,6.9676,6.9331,6.9244,6.9244,6.9244,6.9244,6.9244,6.9244,6.9244,6.9244,6.9244,6.9244,6.9244,6.9244,6.9244,6.9244,6.9244,6.9244,6.9244,6.9244,6.9244,6.9244,6.9244,6.9244,6.9244,6.9244,6.9244,6.9244,6.9244,6.9244,6.9244,6.9244,6.9244,6.9244,6.9244,6.9244,6.9244,6.9244,6.9244,6.9244,6.9244,6.9244,6.9244,6.9244,6.9244,6.9244,6.9244,6.9244,6.9244,6.9244,6.9244,6.9244,6.9244,6.9244,6.9244,6.9244,6.8257,6.7797,4.3945,4.264,4.1956,3.4733,3.392,3.4209,3.1259,3.1656,3.2184,3.0797,3.1524,3.2052,3.0731,2.9168,2.8109,2.821,2.8306,0.0,0.0,3.1801,0.0,0.0,0.0,0.0,0.0,4.4114,4.511,0.0,5.1555,5.3659,6.2207,6.4049,6.4838,6.4838,6.4904,6.5561,6.6942,6.6942,6.7665,6.9112,6.9112,6.9178,6.9178,6.9244,6.9244,6.9244,6.9244,6.9244,6.9244,6.9244,6.9244,6.9244,6.9244,6.9244,6.9244,6.9244,6.9244,6.9244,6.9244,6.9244,6.9244,6.9244,6.9244,6.9244,6.9244,6.9244,6.9244,6.9244,6.9244,6.9244,6.9244,6.9244,6.9244,6.9244,6.9244,6.9244,6.9244,6.9244,6.9244,6.9244,6.9244,6.9244,6.9244,6.9178,6.9112,6.9112,6.9112,6.9112,6.9112,6.9112,6.9112,6.9112,6.9112,6.9112,6.9112,6.9112,6.9112,6.9112,6.9112,6.9112,6.9112,6.9112,6.9112,6.9112,6.9112,6.9112,6.9112,6.9112,6.9112,6.9046,6.6219,6.4969,3.8699,3.994,4.1202,3.5943,3.6501,3.7258,3.3139,3.164,3.0967,3.057,2.9078,0.0,0.0,0.0,2.6995,2.8118,0.0,3.3447,3.0863,3.6147,0.0,0.0,0.0,0.0,0.0,5.1226,5.287,5.8393,5.5171,5.5369,6.0892,6.2536,6.3325,6.3325,6.4377,6.5101,6.5495,6.5495,6.5693,6.6153,6.7139,6.7665,6.7665,6.8783,6.9244,6.9244,6.9244,6.9244,6.9244,6.9244,6.9244,6.9244,6.9244,6.9244,6.9244,6.9244,6.9244,6.9244,6.9244,6.9244,6.9244,6.9244,6.9244,6.9244,6.9244,6.9244,6.9244,6.9244,6.9244,6.9244,6.9244,6.9244,6.9244,6.9244,6.9244,6.9244,6.9244,6.9244,6.9244,6.9244,6.9244,6.9244,6.9244,6.7534,6.6087,6.6087,6.6087,6.6087,6.6087,6.6087,6.6087,6.6087,6.6087,6.6087,6.6087,6.6087,6.6087,6.6087,6.6087,6.6087,6.6087,6.6087,6.6087,6.6087,6.6087,6.6087,6.6087,6.6087,6.6087,6.6087,6.5298,6.4969,3.742,3.8245,3.9419,3.492,3.6033,3.6655,3.0674,2.9164,2.8661,2.7162,0.0,0.0,0.0,0.0,0.0,0.0,3.213,3.5027,0.0,0.0,4.3551,0.0,0.0,0.0,5.247,5.2937,5.4974,5.9446,5.6223,5.6026,6.0432,6.1418,6.1879,6.1879,6.2668,6.3457,6.3983,6.4049,6.4312,6.4969,6.5758,6.6153,6.6219,6.7074,6.7468,6.7468,6.7468,6.7468,6.7468,6.806,6.8323,6.8257,6.7665,6.7468,6.7468,6.7468,6.7468,6.7468,6.7468,6.7797,6.8257,6.76,6.7468,6.7468,6.7468,6.7468,6.7534,6.8126,6.8323,6.8323,6.8323,6.8323,6.8191,6.76,6.7468,6.7468,6.7468,6.7468,6.7468,6.7468,6.7468,6.7468,6.7468,6.6021,6.4969,6.4969,6.4969,6.4969,6.4969,6.4969,6.4969,6.4969,6.4969,6.4969,6.4969,6.4969,6.4969,6.4969,6.4969,6.4969,6.4969,6.4969,6.4969,6.4969,6.4969,6.4969,6.4969,6.4969,6.4312,6.3128,6.3128,6.3128,3.8146,3.7136,3.7092,3.2961,3.3686,3.3755,2.7299,0.0,2.6889,2.4662,0.0,2.4146,2.5594,0.0,0.0,2.7561,3.2661,3.6393,3.5863,4.0892,4.4909,4.5939,5.2568,5.5576,5.1735,5.2125,5.419,5.8006,5.5899,5.6162,6.0169,6.0432,6.0432,6.0629,6.0629,6.1221,6.247,6.2615,6.3128,6.4443,6.464,6.4706,6.4706,6.4838,6.4969,6.4969,6.4969,6.4969,6.5035,6.6284,6.6811,6.6679,6.543,6.4969,6.4969,6.4969,6.4969,6.4969,6.4969,6.5758,6.6613,6.5364,6.4969,6.4969,6.4969,6.4969,6.5232,6.6482,6.6811,6.6811,6.6811,6.6811,6.6482,6.5232,6.4969,6.4969,6.4969,6.4969,6.4969,6.4969,6.4969,6.4838,6.4509,6.4443,6.4443,6.4443,6.4443,6.4443,6.4443,6.4443,6.4443,6.4443,6.4443,6.4443,6.4443,6.4443,6.4443,6.4443,6.4443,6.4443,6.4443,6.4443,6.4443,6.4443,6.4443,6.4443,6.4443,6.4443,6.3128,6.0629,6.0629,6.0629,3.6242,3.5895,3.6382,3.4097,3.2198,3.1407,0.0,0.0,0.0,3.7957,3.7061,3.5926,3.7474,3.7605,3.7703,3.8125,4.3929,0.0,0.0,4.8215,0.0,5.2127,5.4549,5.5858,5.5102,5.6143,5.7047,5.7388,5.6853,5.7246,5.8854,5.892,5.9446,6.0629,6.0629,6.0761,6.1024,6.1024,6.1155,6.1484,6.2602,6.3128,6.3194,6.4377,6.4969,6.4969,6.4969,6.4969,6.4969,6.5232,6.5364,6.5298,6.5035,6.4969,6.4969,6.4969,6.4969,6.4969,6.4969,6.5101,6.5298,6.5035,6.4969,6.4969,6.4969,6.4969,6.4969,6.5232,6.5364,6.5364,6.5364,6.5364,6.5298,6.4969,6.4969,6.4969,6.4969,6.4969,6.4969,6.4969,6.4969,6.418,6.1879,6.1484,6.1484,6.1484,6.1484,6.1484,6.1484,6.1484,6.1484,6.1484,6.1484,6.1484,6.1484,6.1484,6.1484,6.1484,6.1484,6.1484,6.1484,6.1484,6.1484,6.1484,6.1484,6.1484,6.1484,6.1484,6.1155,6.0629,6.0629,6.0629,3.4688,3.367,3.313,3.1526,2.9982,0.0,0.0,2.8577,2.9204,3.5238,3.465,3.4442,3.9046,4.0351,4.0835,4.0945,4.6357,5.0202,4.9393,5.2404,5.473,5.473,5.5082,5.5329,5.5329,5.567,5.613,5.6564,5.7244,5.7789,5.8327,5.8326,5.8522,5.8901,5.8901,5.9155,5.9577,5.9577,5.9906,6.0629,6.1353,6.1681,6.1681,6.247,6.2799,6.2799,6.2799,6.2799,6.2865,6.3588,6.3391,6.2799,6.2799,6.2799,6.2799,6.2799,6.2799,6.2799,6.2799,6.326,6.372,6.2997,6.326,6.372,6.2997,6.2799,6.2931,6.3654,6.3851,6.3851,6.3851,6.3851,6.3654,6.2931,6.2799,6.2799,6.2799,6.2799,6.2799,6.2799,6.2799,6.2339,6.0892,6.0629,6.0366,5.9709,5.9577,5.9314,5.8591,5.8459,5.8459,5.8459,5.8459,5.8459,5.8459,5.8459,5.8459,5.8459,5.8459,5.8459,5.8459,5.8459,5.8459,5.8459,5.8459,5.8854,5.9577,5.8854,5.8459,5.8459,5.8459,5.8459,3.2297,3.1038,3.0182,2.8969,2.797,0.0,2.6892,2.6069,2.7034,3.2711,3.2828,3.3842,3.9963,4.2007,4.2799,4.2799,4.6915,5.0746,5.252,5.3928,5.4795,5.5125,5.4658,5.4471,5.4749,5.4392,5.4666,5.5776,5.6833,5.7532,5.7681,5.7749,5.7634,5.7321,5.7321,5.7656,5.8427,5.8283,5.8877,5.9999,5.985,5.9972,6.0235,6.0235,6.0366,6.0629,6.0629,6.0629,6.0761,6.1879,6.1715,6.0685,6.095,6.1016,6.1016,6.0932,6.0857,6.0857,6.0705,6.1353,6.2142,6.1024,6.1418,6.2142,6.0958,6.0629,6.0892,6.201,6.2417,6.2417,6.2417,6.2417,6.2076,6.0892,6.0629,6.0629,6.0629,6.0629,6.0432,5.9906,5.9774,5.9774,5.9774,5.9774,5.9446,5.8262,5.813,5.767,5.6486,5.6426,5.6426,5.6426,5.6426,5.6426,5.6426,5.6426,5.6426,5.6426,5.6426,5.6426,5.6426,5.6426,5.6426,5.6426,5.6426,5.6947,5.8065,5.6618,5.6026,5.6426,5.6426,5.6426,2.7492,2.8563,3.0467,3.0325,2.7114,0.0,3.7468,3.6596,3.6391,4.6495,4.8464,4.8605,4.9405,4.9686,4.9827,4.9827,5.1537,5.245,5.1348,5.1323,5.1957,5.3365,5.3458,5.3973,5.5379,5.5469,5.549,5.563,5.5236,5.5316,5.6235,5.6243,5.6796,5.7964,5.8032,5.8037,5.8177,5.759,5.7388,5.7521,5.7033,5.7473,5.8788,5.8788,5.9446,6.0629,6.0629,6.0629,6.0629,6.0827,6.0785,6.0616,6.2041,6.2585,6.2449,6.1822,6.1536,6.1391,6.0791,6.0761,6.0827,6.0695,6.0761,6.0827,6.0695,6.0629,6.0695,6.0827,6.0892,6.0892,6.0892,6.0892,6.0827,6.0695,6.0629,6.0629,6.0629,6.0629,5.9906,5.7276,5.6815,5.6815,5.6815,5.6815,5.6749,5.6618,5.6552,5.6486,5.6355,5.6426,5.6426,5.6426,5.6426,5.6426,5.6426,5.6426,5.6426,5.6426,5.6426,5.6426,5.6426,5.6426,5.6426,5.6426,5.6426,5.6421,5.6552,5.504,5.504,5.6426,5.6426,5.6426,2.5136,2.5401,2.64,2.64,0.0,0.0,3.3712,3.4438,3.6224,4.5215,4.6376,4.6759,5.0267,5.0971,5.0971,5.0971,5.069,5.0338,4.9704,5.0338,5.1182,5.1816,5.1886,5.2168,5.2802,5.3717,5.4232,5.4232,5.4858,5.5375,5.574,5.574,5.5855,5.6086,5.6086,5.6325,5.6864,5.6617,5.6898,5.7713,5.752,5.7724,5.8328,5.8328,5.8664,5.9201,5.9201,5.9201,5.9201,5.9201,5.9134,5.9179,5.9857,6.0061,5.9997,5.967,5.9538,5.9538,5.9201,5.9132,5.9132,5.9063,5.9132,5.9201,5.9201,5.9201,5.9201,5.9201,5.8856,5.857,5.8276,5.813,5.813,5.813,5.813,5.813,5.813,5.813,5.7802,5.6623,5.6426,5.6426,5.6426,5.6426,5.6026,5.5171,5.504,5.4711,5.3856,5.3725,5.3725,5.3725,5.3725,5.3725,5.3725,5.3725,5.3725,5.3725,5.3725,5.3725,5.3725,5.3725,5.3725,5.3725,5.3725,5.3725,5.3725,5.3133,5.3133,5.3725,5.3725,5.3725,2.2565,0.0,0.0,0.0,0.0,0.0,3.3152,3.4622,3.6699,4.3525,4.4055,4.4546,4.8945,4.9677,4.9677,4.9677,4.8761,4.7986,4.7944,4.893,4.9774,5.0267,5.0267,5.0478,5.0901,5.1957,5.2661,5.2661,5.3717,5.4351,5.4351,5.4725,5.4928,5.4923,5.4871,5.5216,5.5879,5.5708,5.6071,5.7107,5.6993,5.7136,5.7545,5.7545,5.7749,5.8095,5.8095,5.7805,5.7363,5.7835,5.7972,5.804,5.8512,5.865,5.8589,5.8467,5.8474,5.8344,5.8095,5.8032,5.8095,5.8032,5.8032,5.8095,5.8095,5.7969,5.7905,5.8095,5.7649,5.7054,5.671,5.643,5.6426,5.6426,5.6426,5.6426,5.6426,5.5697,5.5106,5.5106,5.5106,5.5106,5.5106,5.5106,5.4708,5.3659,5.3326,5.2998,5.2015,5.1818,5.1818,5.1818,5.1818,5.1818,5.1818,5.1818,5.1818,5.1818,5.1818,5.1818,5.1818,5.1818,5.1752,5.1818,5.1818,5.1818,5.1883,5.103,5.0636,5.0636,5.0636,5.07,0.0,0.0,0.0,2.9183,2.9183,3.0917,4.1678,4.1786,4.0933,4.5619,4.6573,4.6534,4.6597,4.6557,4.6557,4.6557,4.6557,4.6446,4.6365,4.6395,4.6958,4.8507,4.8648,4.9282,5.076,5.0971,5.1042,5.1042,5.1042,5.1042,5.1042,5.252,5.4021,5.5498,5.5569,5.5569,5.5589,5.4993,5.473,5.4677,5.4198,5.4734,5.6039,5.6039,5.6857,5.8095,5.8095,5.706,5.5445,5.6964,5.7524,5.7733,5.938,5.9995,5.994,5.9435,5.9262,5.9145,5.8344,5.8095,5.8095,5.8095,5.8095,5.8095,5.8095,5.7649,5.7321,5.7969,5.7649,5.7122,5.7122,5.6779,5.6426,5.6426,5.6426,5.6426,5.6426,5.4053,5.2015,5.2015,5.2015,5.2015,5.2015,5.1949,5.1883,5.1949,5.1751,5.1615,5.1684,5.1617,5.1483,5.1483,5.1483,5.1483,5.1483,5.1483,5.1483,5.1483,5.1483,5.1483,5.1483,5.1483,5.1617,5.1751,5.1751,5.1752,5.1883,4.8872,4.7437,4.7559,4.7559,4.762,2.2002,2.4411,2.7821,3.2787,3.4938,3.7216,4.1993,4.3918,4.5022,4.6476,4.676,4.6722,4.6605,4.6605,4.6605,4.6605,4.6526,4.6416,4.6376,4.6295,4.6465,4.6958,4.7029,4.724,4.7803,4.8789,4.9352,4.9352,5.0338,5.0971,5.0971,5.1464,5.1911,5.231,5.238,5.2824,5.3757,5.3659,5.4099,5.5147,5.5045,5.5272,5.5707,5.5654,5.5879,5.6311,5.6202,5.5809,5.5236,5.5776,5.5986,5.6056,5.6597,5.6807,5.6807,5.6596,5.6542,5.6489,5.6147,5.6091,5.6147,5.6036,5.6091,5.6147,5.6147,5.6036,5.5867,5.6091,5.5754,5.5102,5.4678,5.4182,5.3663,5.3258,5.319,5.3258,5.3258,5.2405,5.1619,5.1619,5.1619,5.1619,5.1619,5.1617,5.1291,5.0377,5.0182,4.9791,4.8877,4.8746,4.8683,4.8683,4.953,4.9725,4.8748,4.9595,4.9725,4.8748,4.8683,4.8683,4.8683,4.8683,4.8683,4.8746,4.8746,4.8744,4.8807,4.7702,4.7245,4.7306,4.7306,4.7306,2.4,2.6667,2.9897,3.6064,3.9322,4.1651,4.3853,4.5941,4.7311,4.706,4.6952,4.695,4.6683,4.6912,4.7024,4.6837,4.676,4.6573,4.6376,4.6295,4.6254,4.6254,4.6254,4.6254,4.6254,4.7169,4.7733,4.7733,4.8718,4.9282,4.9282,4.9774,5.0082,4.9967,5.0484,5.121,5.2098,5.2215,5.2706,5.3687,5.4297,5.4627,5.4627,5.5089,5.5319,5.5249,5.3979,5.339,5.339,5.339,5.339,5.3459,5.4068,5.4277,5.4347,5.4956,5.5166,5.5166,5.5114,5.5114,5.5166,5.5114,5.5114,5.5166,5.5166,5.5063,5.4958,5.5114,5.473,5.4117,5.3721,5.3371,5.2958,5.2337,5.2273,5.1945,5.057,5.0116,4.9986,4.9986,4.9986,4.9986,4.9986,4.9921,4.953,4.8748,4.849,4.8102,4.719,4.706,4.6998,4.6998,4.7842,4.8037,4.7128,4.7907,4.8037,4.7063,4.6998,4.6998,4.6998,4.6998,4.6998,4.706,4.706,4.6605,4.544,4.544,4.55,4.562,4.556,4.5685,2.4966,2.8001,3.1317,3.9243,4.2292,4.4214,4.7297,4.8027,4.7832,4.7373,4.7271,4.7132,4.6799,4.7311,4.7617,4.7169,4.6989,4.6803,4.6335,4.6254,4.6254,4.6254,4.6254,4.6254,4.6254,4.6254,4.6254,4.6254,4.6254,4.6254,4.6254,4.7662,4.8437,4.8464,4.9871,5.06,5.0509,5.0557,5.0651,5.0721,5.212,5.275,5.282,5.4308,5.4956,5.4747,5.157,5.0152,5.0152,5.0152,5.0152,5.0291,5.1967,5.2573,5.2713,5.4347,5.4956,5.4956,5.4956,5.4956,5.4956,5.4956,5.4956,5.4956,5.4956,5.4522,5.4185,5.4732,5.4522,5.4021,5.4021,5.3953,5.3855,5.3295,5.3177,5.2198,4.8627,4.7489,4.7245,4.7184,4.7184,4.7184,4.7184,4.6998,4.6936,4.7057,4.6808,4.6555,4.6616,4.6491,4.6428,4.6428,4.6492,4.6492,4.6428,4.6492,4.6492,4.6428,4.6428,4.6428,4.6428,4.6428,4.6491,4.6616,4.6616,4.5198,4.2371,4.2371,4.2543,4.2761,4.2592,4.277,2.8068,3.4093,3.9193,4.499,4.6619,4.7005,4.7808,4.8027,4.7997,4.7832,4.7739,4.7675,4.7545,4.7484,4.7346,4.7167,4.6878,4.6534,4.6416,4.6335,4.6254,4.6254,4.6254,4.6254,4.6254,4.6254,4.6254,4.6254,4.6254,4.6254,4.6243,4.6664,4.6791,4.6577,4.6926,4.7091,4.7161,4.8141,4.9323,5.0602,5.1093,5.128,5.128,5.1556,5.1668,5.1431,5.0499,5.0152,5.0152,5.0152,5.0152,5.0221,5.0568,5.0826,5.0826,5.1292,5.1431,5.1431,5.1431,5.1431,5.1431,5.1431,5.1431,5.1431,5.1431,5.1331,5.1231,5.1381,5.1331,5.113,5.0594,5.0434,5.0326,4.9716,4.9545,4.9229,4.8105,4.7965,4.784,4.6936,4.6812,4.6812,4.6812,4.6749,4.6362,4.5327,4.5137,4.4689,4.3654,4.3525,4.3466,4.3466,4.4431,4.4625,4.353,4.4431,4.456,4.353,4.3466,4.3466,4.3466,4.3466,4.3525,4.3525,4.346,4.3138,4.2371,4.2371,4.2428,4.2486,4.2421,4.2486,2.7097,3.4238,4.1428,4.7228,4.8557,4.8425,4.8425,4.8425,4.8399,4.813,4.8159,4.826,4.826,4.7984,4.777,4.7603,4.7339,4.7062,4.6989,4.6728,4.6534,4.6534,4.6376,4.6254,4.6254,4.6254,4.6254,4.6284,4.6284,4.6243,4.6188,4.6188,4.6146,4.5975,4.5975,4.5932,4.5845,4.6635,4.7539,4.8442,4.9161,4.9487,4.9556,5.0088,4.9576,4.821,4.821,4.821,4.821,4.821,4.821,4.8279,4.8973,4.925,4.932,4.9944,5.0152,5.0152,5.0152,5.0152,5.0152,5.0152,5.0152,5.0152,5.0152,5.0152,5.0152,5.0152,5.0152,5.0054,4.9704,4.9653,4.9482,4.9169,4.9062,4.8616,4.6918,4.6703,4.6582,4.576,4.5288,4.511,4.511,4.4935,4.4496,4.3659,4.3594,4.3272,4.2435,4.2371,4.2371,4.2371,4.3079,4.3208,4.2435,4.3079,4.3208,4.2435,4.2371,4.2371,4.2371,4.2371,4.2371,4.2371,4.2371,4.2371,4.2371,4.2371,4.2428,4.2421,4.2428,4.2428,2.5847,3.2293,4.033,4.6962,4.8819,4.8968,4.8968,4.8968,4.8825,4.8383,4.8582,4.8781,4.8756,4.8681,4.8452,4.8101,4.8014,4.7894,4.7611,4.7204,4.6952,4.6952,4.6651,4.6455,4.6455,4.6376,4.6335,4.6325,4.6313,4.623,4.6033,4.6061,4.6061,4.6061,4.6061,4.5975,4.5845,4.5845,4.5801,4.5713,4.71,4.7724,4.7724,4.8973,4.814,4.5668,4.5668,4.5668,4.5668,4.5668,4.5668,4.5807,4.7169,4.7724,4.7863,4.9112,4.948,4.9549,4.9549,4.9431,4.9431,4.948,4.9431,4.95,4.948,4.948,4.948,4.9597,4.9597,4.9597,4.9597,4.9597,4.9597,4.9597,4.9597,4.8691,4.5644,4.4954,4.4762,4.4368,4.3737,4.3246,4.3192,4.2705,4.2371,4.2371,4.2371,4.2371,4.2371,4.2371,4.2371,4.2371,4.2371,4.2371,4.2371,4.2371,4.2371,4.2371,4.2371,4.2371,4.2371,4.2371,4.2371,4.2371,4.2371,4.2371,4.2371,4.2371,4.2486,4.2536,4.2428,4.2486,3.2754,3.5873,3.8696,4.5232,4.798,4.8968,4.8968,4.8968,4.8945,4.8899,4.8899,4.8899,4.8829,4.8531,4.8215,4.7999,4.7697,4.7473,4.7479,4.7411,4.7377,4.7377,4.7309,4.7202,4.7202,4.6952,4.6766,4.6728,4.6446,4.623,4.6033,4.5975,4.5845,4.5757,4.5757,4.5801,4.5845,4.5757,4.5757,4.5845,4.599,4.6084,4.6084,4.6292,4.6153,4.5668,4.5668,4.5668,4.5668,4.5668,4.5668,4.5668,4.599,4.6084,4.6129,4.6361,4.6339,4.6154,4.6154,4.6013,4.5802,4.6107,4.6013,4.5918,4.6339,4.6293,4.6201,4.6385,4.6476,4.6476,4.6476,4.6476,4.6476,4.6476,4.6476,4.6292,4.5648,4.5258,4.4858,4.4762,4.4368,4.3789,4.3246,4.2705,4.2371,4.2371,4.2371,4.2371,4.2371,4.2371,4.2371,4.2371,4.2371,4.2371,4.2371,4.2371,4.2371,4.2371,4.2371,4.2371,4.2371,4.2371,4.2313,4.2197,4.2313,4.2371,4.2371,4.2371,4.2428,4.2428,4.2428,4.2428,2.9749,3.3453,3.7542,4.0571,4.4584,4.7683,4.7683,4.8373,4.8968,4.8968,4.8922,4.8899,4.8853,4.8633,4.8479,4.8425,4.8187,4.8043,4.8043,4.7863,4.7707,4.7707,4.7578,4.7445,4.7445,4.7237,4.7097,4.7026,4.6915,4.6651,4.6365,4.6243,4.6033,4.5801,4.5713,4.5713,4.5757,4.5713,4.5713,4.5757,4.5713,4.5668,4.5668,4.5668,4.5668,4.5668,4.5533,4.5488,4.5488,4.535,4.5304,4.5304,4.5304,4.5304,4.5304,4.5304,4.5142,4.5117,4.5117,4.5001,4.4906,4.5001,4.4954,4.4906,4.5189,4.5211,4.5096,4.5189,4.5396,4.5488,4.5488,4.5578,4.5668,4.5668,4.5488,4.5304,4.5304,4.5049,4.4858,4.4858,4.4713,4.4368,4.3737,4.3419,4.3105,4.2536,4.2313,4.2197,4.2255,4.2255,4.2313,4.2371,4.2371,4.2371,4.2255,4.2255,4.2255,4.2138,4.2255,4.2255,4.2138,4.2255,4.2255,4.2138,4.2313,4.2371,4.2371,4.2371,4.2371,4.2371,4.2371,4.2371,2.712,3.1339,3.6443,3.7484,4.1091,4.4712,4.6123,4.7206,4.8045,4.8373,4.8083,4.7963,4.8681,4.8485,4.8386,4.8707,4.8681,4.8557,4.8557,4.8316,4.8116,4.8116,4.7832,4.7675,4.7675,4.7611,4.7512,4.7339,4.7237,4.699,4.6722,4.6605,4.6365,4.6061,4.5975,4.5932,4.5932,4.5775,4.5731,4.5731,4.5713,4.5668,4.5713,4.5845,4.5888,4.5888,4.5599,4.5509,4.5464,4.5282,4.5235,4.5189,4.5096,4.5049,4.5049,4.4906,4.4858,4.481,4.4906,4.4906,4.4906,4.5096,4.5096,4.5096,4.5189,4.5189,4.5142,4.5096,4.5189,4.5328,4.5189,4.5396,4.5578,4.5668,4.5304,4.4858,4.4858,4.4858,4.4858,4.4858,4.4858,4.4713,4.4233,4.4182,4.3751,4.2705,4.2255,4.2025,4.2143,4.2138,4.2138,4.2255,4.2313,4.2255,4.2138,4.2138,4.2143,4.2025,4.2084,4.208,4.1966,4.2084,4.208,4.2021,4.2197,4.2313,4.2313,4.2313,4.2313,4.2313,4.2313,4.2313,3.2782,3.4034,3.5672,4.0087,3.9418,3.9177,4.5083,4.5503,4.4983,4.6367,4.5454,4.5263,4.8262,4.7498,4.6933,4.8383,4.8579,4.8579,4.8579,4.8552,4.8526,4.8526,4.8499,4.8499,4.8499,4.8146,4.7905,4.778,4.7381,4.7024,4.687,4.6683,4.6605,4.6566,4.6566,4.6566,4.6566,4.6213,4.6048,4.6048,4.5775,4.5668,4.5713,4.6284,4.6526,4.6335,4.6335,4.6254,4.6172,4.6131,4.6131,4.6089,4.5706,4.5599,4.5554,4.5049,4.4713,4.4616,4.5117,4.5049,4.5001,4.5618,4.5636,4.5549,4.6006,4.6006,4.5723,4.5687,4.5643,4.5554,4.5049,4.4954,4.5096,4.5554,4.5282,4.4858,4.4858,4.4858,4.4858,4.4858,4.4858,4.4713,4.4233,4.4182,4.3751,4.2705,4.2255,4.1966,4.2025,4.2025,4.2025,4.2025,4.2025,4.2025,4.2025,4.2025,4.2025,4.1966,4.2025,4.2025,4.1966,4.2025,4.1843,4.1663,4.1843,4.2025,4.2025,4.2025,4.2025,4.2025,4.2025,4.2025,2.5816,2.8518,3.1809,3.2727,3.5661,3.9046,4.1667,4.1773,4.2343,4.5948,4.6905,4.7201,4.7459,4.7638,4.7622,4.7278,4.7941,4.8579,4.8579,4.8579,4.8579,4.8579,4.8579,4.8526,4.8344,4.8232,4.8087,4.7936,4.778,4.7479,4.7204,4.7098,4.6915,4.676,4.6683,4.6566,4.6295,4.6172,4.6089,4.6089,4.5963,4.5878,4.5878,4.6048,4.5963,4.5775,4.5599,4.5395,4.5167,4.5027,4.498,4.4933,4.4694,4.481,4.5049,4.4762,4.4762,4.5001,4.5189,4.5258,4.5142,4.5464,4.544,4.5395,4.5643,4.5618,4.5618,4.5599,4.5662,4.5749,4.5574,4.5395,4.5328,4.5049,4.481,4.4567,4.4216,4.4166,4.4166,4.4166,4.4166,4.4114,4.3975,4.3923,4.3645,4.2929,4.2364,4.1902,4.1545,4.1603,4.1783,4.1966,4.1966,4.1966,4.1783,4.1723,4.1723,4.1603,4.1723,4.1543,4.1052,4.1361,4.1484,4.136,4.1787,4.1723,4.1297,4.1723,4.1723,4.1297,4.1723,4.1966,2.1884,2.467,2.8043,2.7387,3.1525,3.6114,3.7047,3.7284,3.8747,4.3726,4.5554,4.619,4.604,4.6809,4.7215,4.6525,4.7694,4.8756,4.8756,4.8656,4.8605,4.8605,4.8499,4.8316,4.8175,4.8175,4.8116,4.7967,4.7967,4.7843,4.7479,4.7411,4.7239,4.706,4.6987,4.6799,4.6495,4.6376,4.6335,4.6335,4.6254,4.6254,4.6376,4.6184,4.6048,4.5819,4.5574,4.5395,4.5282,4.498,4.4886,4.4838,4.4597,4.4694,4.5049,4.481,4.4954,4.5282,4.5419,4.5464,4.5509,4.5643,4.5687,4.5687,4.5687,4.5775,4.5749,4.5618,4.5749,4.5851,4.5749,4.5706,4.5574,4.5027,4.4858,4.4616,4.4267,4.4233,4.4114,4.4027,4.3975,4.3923,4.3765,4.3765,4.3539,4.3039,4.2414,4.1839,4.1361,4.1237,4.136,4.1482,4.1482,4.1421,4.1299,4.1299,4.1237,4.1114,4.1237,4.1052,4.0485,4.0739,4.0989,4.0989,4.1361,4.1237,4.074,4.1237,4.1237,4.074,4.136,4.1727,2.4657,2.4657,2.5172,2.6827,2.7286,2.8206,3.1411,3.2239,3.3748,3.8664,3.9631,4.049,4.3738,4.4351,4.4884,4.6382,4.7967,4.897,4.897,4.8778,4.8582,4.8582,4.826,4.8027,4.8027,4.8027,4.7967,4.7811,4.778,4.7788,4.7623,4.7623,4.7623,4.7623,4.7623,4.7556,4.7418,4.706,4.6841,4.6841,4.6573,4.6612,4.706,4.7169,4.7169,4.6989,4.6989,4.7024,4.6984,4.6908,4.6722,4.6605,4.6019,4.5851,4.5809,4.5419,4.5304,4.5328,4.5749,4.5851,4.5936,4.6486,4.6644,4.6644,4.6644,4.6644,4.6566,4.5978,4.5851,4.5766,4.5373,4.5574,4.5851,4.5851,4.553,4.5304,4.5235,4.5304,4.5096,4.4567,4.4468,4.4318,4.3818,4.3765,4.3539,4.3039,4.2414,4.1839,4.1482,4.0864,4.0421,4.0421,4.0421,4.0421,4.0421,4.0421,4.0421,4.0421,4.0421,4.0421,4.0421,4.0421,4.0421,4.0421,4.0421,4.0421,4.0421,4.0421,4.0421,4.0421,4.0802,4.099,2.1518,2.3188,2.531,2.6944,2.7322,2.824,3.1566,3.4064,3.6865,4.0739,4.1467,4.2081,4.4052,4.6182,4.7447,4.6756,4.7967,4.897,4.897,4.8885,4.8841,4.8841,4.8704,4.8658,4.8557,4.827,4.8072,4.7967,4.7748,4.769,4.7623,4.7623,4.7623,4.7623,4.7556,4.7418,4.7169,4.6952,4.6878,4.6878,4.6841,4.6912,4.6875,4.6799,4.6534,4.6224,4.6061,4.5936,4.5991,4.5948,4.5862,4.5687,4.5464,4.5599,4.5862,4.5643,4.5731,4.5963,4.6089,4.6172,4.6172,4.6335,4.6376,4.6376,4.6376,4.6486,4.6455,4.6295,4.6335,4.6365,4.5991,4.6076,4.6089,4.5793,4.5687,4.5464,4.5142,4.5049,4.5001,4.479,4.4713,4.4468,4.413,4.387,4.3605,4.328,4.26,4.2197,4.2306,4.1779,4.1479,4.172,4.136,4.0927,4.0485,4.0421,4.0421,4.0421,4.0033,3.977,3.977,3.9968,4.0033,4.0033,3.9968,3.9776,3.9644,3.9776,3.9776,3.9644,4.0612,4.099,2.1551,2.345,2.5421,2.7003,2.602,2.5868,3.0486,3.1612,3.304,3.7667,3.8642,3.9293,4.1382,4.4903,4.7339,4.698,4.8206,4.9185,4.9223,4.9051,4.897,4.897,4.8819,4.8755,4.8682,4.8405,4.8243,4.813,4.7905,4.782,4.782,4.769,4.7623,4.7623,4.7487,4.7348,4.7133,4.6952,4.6915,4.6915,4.6989,4.6987,4.6946,4.6722,4.6526,4.6254,4.6089,4.5963,4.5836,4.5836,4.5775,4.5599,4.5554,4.5687,4.5905,4.5862,4.5991,4.6131,4.6131,4.6131,4.6131,4.6131,4.6213,4.6295,4.6243,4.6365,4.6486,4.6365,4.6406,4.6446,4.6325,4.6365,4.6213,4.5905,4.5819,4.5731,4.5395,4.5373,4.5282,4.4838,4.4645,4.4418,4.3751,4.3485,4.3323,4.3105,4.2543,4.2255,4.2479,4.1779,4.1358,4.1663,4.1052,4.0485,4.0098,4.0033,4.0033,4.0033,3.9505,3.9296,3.9296,3.9371,3.9505,3.9572,3.9304,3.9109,3.8974,3.8906,3.8906,3.9042,3.9841,4.0421,2.3831,2.4818,2.5273,2.6863,2.4138,2.2697,2.8896,2.6542,2.4795,3.0998,3.2282,3.3253,3.6542,4.0965,4.4856,4.6884,4.8422,4.9413,4.9552,4.9259,4.9011,4.8991,4.8704,4.8483,4.8483,4.8457,4.8431,4.8431,4.8159,4.8057,4.8057,4.778,4.769,4.7657,4.7522,4.7418,4.7205,4.7133,4.7025,4.7133,4.7025,4.706,4.7058,4.7021,4.6946,4.6799,4.6799,4.6683,4.6416,4.6416,4.6365,4.6271,4.6271,4.6188,4.6103,4.6076,4.6076,4.6146,4.6076,4.6188,4.6188,4.6188,4.6284,4.6486,4.6201,4.6325,4.6486,4.6201,4.623,4.6354,4.6486,4.6455,4.6446,4.616,4.6076,4.6076,4.6076,4.6103,4.5775,4.479,4.4597,4.425,4.3149,4.2929,4.2873,4.2817,4.2486,4.2197,4.2197,4.1299,4.0612,4.0612,3.9968,3.9572,3.9572,3.9498,3.9431,3.9431,3.9093,3.8887,3.8887,3.8887,3.8956,3.9033,3.8552,3.8285,3.8425,3.7921,3.7921,3.8425,3.8769,3.9304,2.1028,2.2167,2.3532,2.5042,2.8397,3.1737,3.3333,3.0827,2.8618,3.02,3.0498,3.1548,3.4815,3.7436,4.0797,4.6223,4.7366,4.8077,4.9401,4.9505,4.9365,4.9255,4.9166,4.9165,4.9126,4.8864,4.8728,4.8728,4.8483,4.8298,4.8298,4.826,4.8087,4.777,4.7683,4.7484,4.7241,4.7133,4.7276,4.7617,4.7346,4.7169,4.7133,4.6875,4.6722,4.6683,4.6683,4.6605,4.6416,4.6416,4.6335,4.6284,4.6313,4.6271,4.623,4.6325,4.6406,4.6446,4.6754,4.6832,4.6832,4.6832,4.687,4.6908,4.6832,4.687,4.6908,4.6832,4.6715,4.6566,4.6722,4.6722,4.6722,4.6832,4.6566,4.6406,4.6406,4.6201,4.5991,4.5731,4.5599,4.5373,4.481,4.42,4.3737,4.3539,4.2938,4.2479,4.2592,4.2421,4.2249,4.2249,4.1173,4.055,4.055,3.9638,3.9024,3.9024,3.8956,3.8887,3.8887,3.8887,3.8887,3.8897,3.8344,3.7934,3.7934,3.7291,3.7146,3.7492,3.7735,3.8157,2.2018,2.4067,2.5433,2.3159,2.5889,2.8918,2.8161,2.6649,2.5589,2.6268,2.6419,2.793,3.275,3.4408,3.6958,4.2805,4.5027,4.6624,4.8194,4.9055,4.9567,4.9461,4.9365,4.9313,4.9365,4.911,4.8949,4.8949,4.8704,4.8534,4.8534,4.8379,4.8187,4.8014,4.7832,4.7748,4.7617,4.7484,4.7551,4.778,4.7584,4.7484,4.7484,4.7133,4.6952,4.6987,4.6875,4.6799,4.6722,4.6722,4.6644,4.6566,4.6486,4.6406,4.6365,4.6526,4.6526,4.6376,4.6683,4.676,4.676,4.676,4.687,4.6946,4.6722,4.6799,4.6912,4.6799,4.6837,4.6912,4.6908,4.687,4.687,4.6683,4.6566,4.6335,4.6335,4.6118,4.5819,4.553,4.5213,4.4906,4.4468,4.3908,4.3366,4.3214,4.277,4.2486,4.2536,4.2364,4.2249,4.2364,4.1112,4.0359,4.0359,3.9438,3.8887,3.8887,3.8542,3.8402,3.8542,3.8133,3.8133,3.868,3.7779,3.7435,3.7793,3.7218,3.7073,3.7492,3.765,3.8075,2.4116,2.7143,2.8565,2.3095,2.2648,2.3043,2.1459,2.0703,2.0711,2.1714,2.202,2.3766,2.9681,3.1043,3.2782,3.7239,4.1008,4.4131,4.6345,4.8397,4.9639,4.9639,4.9398,4.9255,4.9371,4.9238,4.9204,4.9165,4.896,4.8825,4.8802,4.8483,4.8298,4.8215,4.8146,4.8087,4.8116,4.7967,4.7905,4.7905,4.7843,4.778,4.7715,4.7479,4.7309,4.7313,4.7097,4.7024,4.7021,4.7021,4.6946,4.687,4.6832,4.6644,4.6486,4.6566,4.6526,4.6335,4.6455,4.6495,4.6534,4.6534,4.6722,4.6837,4.6495,4.6651,4.6878,4.6728,4.6915,4.7169,4.7024,4.6912,4.6799,4.6455,4.6376,4.6335,4.6335,4.5963,4.5485,4.5005,4.4548,4.413,4.3659,4.316,4.2761,4.2705,4.2486,4.2255,4.2313,4.1962,4.1723,4.1779,4.074,3.9968,3.9902,3.9237,3.8887,3.8887,3.8262,3.7979,3.805,3.7291,3.7363,3.8344,3.7275,3.6927,3.7507,3.7,3.7,3.7435,3.7435,3.7934,2.2641,2.6216,2.9837,3.0272,2.9519,2.8179,2.6529,2.4003,2.1634,2.0468,2.0258,2.1103,2.3615,2.5129,2.6715,2.8972,3.3284,3.8333,4.4259,4.7787,4.9733,4.97,4.9578,4.9502,4.9355,4.9365,4.9259,4.9011,4.9065,4.9024,4.8938,4.8894,4.8731,4.8399,4.8215,4.8243,4.8505,4.8499,4.8472,4.8472,4.8116,4.7739,4.7305,4.7239,4.706,4.6644,4.6875,4.7021,4.7021,4.6946,4.6908,4.687,4.6605,4.6526,4.6416,4.6335,4.6526,4.6722,4.676,4.6912,4.7133,4.7133,4.7133,4.7133,4.7097,4.7133,4.7276,4.7634,4.7445,4.7205,4.7551,4.7346,4.706,4.7097,4.6912,4.6722,4.6722,4.6201,4.5687,4.553,4.5142,4.4762,4.4665,4.4216,4.3751,4.33,4.2817,4.2428,4.2084,4.1966,4.1966,4.1966,4.1175,4.0425,3.9846,3.9237,3.8887,3.8887,3.875,3.8402,3.7836,3.7636,3.7636,3.7836,3.7636,3.6854,3.5549,3.5473,3.5451,3.5429,3.5429,3.6187,2.5015,2.7185,2.9293,2.8405,2.7604,2.6793,2.6137,2.4066,2.2141,2.1398,2.0536,2.0791,2.3373,2.3688,2.5361,3.0674,3.3403,3.6961,4.2704,4.6342,4.8704,4.964,4.9614,4.9554,4.9602,4.9515,4.9416,4.9339,4.9221,4.9204,4.9071,4.8981,4.8778,4.8608,4.8505,4.8557,4.8681,4.8582,4.8479,4.8479,4.8175,4.7936,4.7675,4.7617,4.7415,4.7241,4.7277,4.7241,4.7241,4.7132,4.7024,4.7024,4.695,4.6803,4.6728,4.6766,4.6837,4.7021,4.7241,4.7415,4.7484,4.7611,4.7512,4.7343,4.7617,4.7617,4.7584,4.7874,4.7715,4.7517,4.7748,4.765,4.7484,4.7517,4.7276,4.7024,4.7024,4.6376,4.5793,4.5793,4.5167,4.4665,4.4665,4.4063,4.3473,4.3366,4.2873,4.2421,4.2197,4.2197,4.2138,4.2025,4.1297,4.0678,4.0362,3.9578,3.8828,3.8274,3.8262,3.7992,3.742,3.7492,3.7348,3.691,3.6983,3.691,3.6559,3.6132,3.5886,3.581,3.5298,3.5528,2.9675,0.0,3.0025,2.8039,2.7533,2.7224,0.0,2.4925,2.3652,2.2509,2.1016,2.0769,2.3261,2.2758,2.4066,3.0446,3.2118,3.4397,3.9481,4.2908,4.6032,4.8884,4.9073,4.9183,4.9758,4.9636,4.9528,4.9528,4.9339,4.9203,4.9185,4.9003,4.8848,4.8825,4.8682,4.8682,4.8774,4.8559,4.8531,4.8531,4.8288,4.8146,4.7984,4.7997,4.7905,4.7811,4.765,4.7584,4.7623,4.745,4.7415,4.7381,4.7381,4.7311,4.7276,4.7346,4.7276,4.7313,4.765,4.7748,4.7748,4.7894,4.777,4.7578,4.7905,4.7843,4.7715,4.7874,4.778,4.7683,4.778,4.7715,4.765,4.765,4.745,4.7205,4.7205,4.6573,4.5894,4.5894,4.5213,4.4567,4.4567,4.3841,4.3258,4.3432,4.2994,4.2536,4.2428,4.2371,4.2255,4.1906,4.1297,4.0865,4.0489,3.9907,3.9042,3.8063,3.8063,3.785,3.742,3.7492,3.7202,3.6485,3.6615,3.691,3.7549,3.6763,3.6411,3.6411,3.5755,3.568,0.0,3.5919,3.4091,3.5669,3.5911,3.4595,3.0233,2.8916,0.0,2.2902,2.0802,1.9931,2.0117,2.0233,2.041,2.1028,2.3764,2.7486,3.2498,3.6062,4.0536,4.6831,4.7496,4.7999,4.9642,4.9515,4.9401,4.9401,4.9365,4.9316,4.9221,4.9181,4.914,4.896,4.8853,4.8756,4.8781,4.8756,4.8732,4.8732,4.8732,4.8479,4.8028,4.827,4.8187,4.7832,4.8043,4.8175,4.816,4.7997,4.7863,4.777,4.778,4.7748,4.7748,4.7748,4.7748,4.7748,4.778,4.778,4.778,4.7811,4.7811,4.778,4.7811,4.7551,4.7415,4.8014,4.7739,4.7346,4.7715,4.7551,4.7276,4.7276,4.7241,4.7205,4.7205,4.6612,4.6019,4.6019,4.5395,4.4858,4.4858,4.4418,4.396,4.3751,4.3149,4.2649,4.2428,4.2371,4.2138,4.1482,4.1421,4.0802,3.9512,3.9902,3.9836,3.9033,3.9109,3.8906,3.8274,3.7779,3.7492,3.742,3.7113,3.6892,3.7022,3.6317,3.6036,3.6187,3.6112,3.6615,3.6951,3.7138,3.664,3.5386,3.5857,3.5788,3.2933,3.0656,2.8349,2.5573,2.2151,1.9718,1.9694,1.9776,2.0903,2.4031,2.5645,2.8314,3.3329,3.6899,4.0319,4.3868,4.6952,4.9136,4.9834,4.978,4.9724,4.9724,4.9554,4.9461,4.9339,4.9146,4.9065,4.9259,4.9045,4.8894,4.8945,4.8731,4.8633,4.8557,4.8499,4.8362,4.8146,4.8175,4.8146,4.8057,4.7984,4.7954,0.0,4.7905,4.7874,4.7843,4.7811,4.7715,4.7545,4.7545,4.7551,4.7484,4.7715,4.778,4.7811,4.8027,4.8043,4.8057,4.7843,4.778,4.7843,4.8215,4.8159,4.8014,4.813,4.7924,4.7748,4.7748,4.7512,4.7343,4.7343,4.7024,4.6683,4.6683,4.5963,4.5395,4.5395,4.479,4.4216,4.3908,4.3645,4.3269,4.2536,4.2479,4.2313,4.1783,4.1297,4.0865,4.0298,4.0487,4.0423,3.9968,3.9907,3.9776,3.9311,3.9117,3.8906,3.8483,3.8133,3.7707,3.7332,3.6689,3.6091,3.5636,3.5505,3.5505,3.8013,3.8344,3.8295,3.6165,3.6882,3.7464,3.5229,3.2204,2.9293,2.7153,2.2886,1.9592,1.9561,1.9694,2.1083,2.5051,2.6618,2.9144,3.4233,3.7806,4.0698,4.2895,4.6666,4.9081,4.9085,4.9585,4.9876,4.9986,4.9782,4.9566,4.9541,4.9238,4.9165,4.9278,4.9126,4.8981,4.8968,4.8755,4.8633,4.8557,4.8472,4.839,4.839,4.8334,4.8288,4.8472,4.8101,4.8043,4.8043,4.7967,4.7936,4.8027,4.8027,4.7954,4.7881,4.7881,4.779,4.777,4.7894,4.8027,4.8057,4.8101,4.813,4.8072,4.7936,4.7967,4.8072,4.8298,4.8352,4.8352,4.8352,4.8187,4.8087,4.7997,4.7739,4.7545,4.7445,4.7241,4.7058,4.695,4.6416,4.5978,4.5978,4.535,4.4694,4.4449,4.4216,4.3856,4.3258,4.2984,4.277,4.2255,4.16,4.1173,4.1353,4.1232,4.0988,4.0802,4.0989,4.0927,4.0489,4.0173,3.9785,3.9318,3.8297,3.7507,3.7057,3.6466,3.594,3.5537,3.5406,3.5198,4.0938,4.0271,3.9053,3.9039,4.0231,4.0533,3.7096,3.3825,3.0509,2.7169,2.2737,1.9418,1.9459,1.9635,2.0359,2.2065,2.5177,2.9151,3.4237,3.789,4.1231,4.4487,4.6394,4.7372,4.7246,4.8629,4.9657,4.9964,4.9833,4.9763,4.9722,4.9502,4.9255,4.8981,4.8981,4.8945,4.8756,4.8756,4.8756,4.8756,4.8756,4.8756,4.8756,4.8756,4.8829,4.8945,4.8608,4.8457,4.8557,4.8334,4.8288,4.8405,4.8405,4.8584,4.8819,4.8819,4.8819,4.8774,4.8508,4.8405,4.8352,4.8146,4.8027,4.8027,4.8027,4.8072,4.8215,4.8215,4.8215,4.8215,4.8215,4.8215,4.8159,4.7894,4.7832,4.7739,4.7522,4.7241,4.6989,4.6878,4.6728,4.6683,4.6644,4.5894,4.5346,4.5505,4.4838,4.4368,4.4468,4.4079,4.3485,4.2817,4.2249,4.201,4.2575,4.2106,4.1701,4.147,4.2106,4.2341,4.1829,4.0616,3.9858,3.9858,3.7464,3.6187,3.6187,3.5712,3.569,3.5995,3.5995,3.6167,3.9696,3.9577,3.92,3.921,4.0415,4.0716,3.7386,3.4041,3.0688,2.7353,2.2872,1.9449,1.9464,1.9655,2.0382,2.1935,2.5123,2.8699,3.2563,3.6974,4.1153,4.4491,4.6311,4.7749,4.9035,4.9591,4.9841,4.9825,4.9722,4.9642,4.959,4.9515,4.9431,4.9259,4.9106,4.8981,4.8968,4.8916,4.8894,4.8825,4.8871,4.8968,4.8968,4.8848,4.8871,4.8938,4.8755,4.8682,4.8707,4.8656,4.8682,4.8797,4.8707,4.8774,4.8882,4.8789,4.8789,4.8758,4.8693,4.8556,4.8411,4.8509,4.8383,4.8215,4.8436,4.8579,4.8648,4.8821,4.8862,4.8862,4.8862,4.8737,4.8556,4.8284,4.8231,4.8151,4.8014,4.7924,4.7894,4.779,4.7643,4.7411,4.7097,4.6694,4.6184,4.5592,4.5281,4.4912,4.4183,4.398,4.3737,4.328,4.3566,4.3897,4.4048,4.3589,4.3274,4.3168,4.3138,4.316,4.316,4.2863,4.2575,4.2341,4.1216,4.0429,3.9992,3.9482,3.9482,3.9929,3.9546,3.961,3.9411,3.8295,3.7009,3.688,3.6381,3.5582,3.4516,3.1264,2.8151,2.7041,2.2957,1.9727,2.0411,2.0609,2.1932,2.5513,2.8473,3.1956,3.6544,4.0433,4.3779,4.6497,4.7635,4.8701,4.9763,4.99,4.9863,4.98,4.9773,4.9722,4.9616,4.9666,4.9541,4.9381,4.9185,4.9071,4.8949,4.8991,4.9011,4.8937,4.9051,4.9051,4.9051,4.8957,4.9051,4.911,4.8949,4.8907,4.8928,4.8819,4.8907,4.9091,4.8949,4.9091,4.9215,4.911,4.9091,4.9053,4.8979,4.8862,4.8684,4.88,4.8705,4.8651,4.8978,4.9017,4.8997,4.9231,4.928,4.9295,4.9236,4.9173,4.896,4.8705,4.864,4.8574,4.8411,4.8361,4.8409,4.8278,4.8169,4.797,4.7666,4.7406,4.699,4.6274,4.6073,4.5739,4.4983,4.4701,4.4412,4.425,4.4796,4.5277,4.5366,4.5208,4.505,4.496,4.5005,4.4981,4.4891,4.4773,4.4479,4.3957,4.2887,4.198,4.1271,4.0671,4.0611,4.1034,4.0794,3.913,3.879,3.5916,3.3025,3.2762,3.0192,2.8158,2.9595,2.6783,2.4284,2.567,2.235,1.9607,2.1088,2.1409,2.3629,3.044,3.3255,3.6867,4.3731,4.6288,4.8023,4.9621,4.978,4.9765,4.9817,4.9773,4.978,4.975,4.9876,4.987,4.9763,4.9773,4.9614,4.9339,4.9339,4.9273,4.9035,4.9016,4.9091,4.9248,4.9231,4.9215,4.9215,4.9215,4.9248,4.9371,4.9088,4.9071,4.9215,4.896,4.9017,4.9264,4.9189,4.937,4.959,4.959,4.959,4.9515,4.9309,4.9251,4.9129,4.896,4.904,4.9289,4.9516,4.944,4.9248,4.9351,4.939,4.9403,4.9439,4.9451,4.9415,4.9129,4.9048,4.8978,4.8726,4.8726,4.8758,4.8559,4.8485,4.8436,4.8278,4.8101,4.776,4.7406,4.7132,4.6807,4.6424,4.5907,4.5653,4.5739,4.6084,4.6361,4.6547,4.6775,4.6842,4.656,4.7167,4.7311,4.6749,4.6306,4.5729,4.5207,4.3335,4.199,4.1435,3.9426,3.8638,3.8981,3.7683,3.3399,3.102,2.9395,2.8721,2.87,3.0516,3.1058,2.642,2.6043,2.5311,2.0258,1.7279,1.5608,1.5477,1.5472,1.8149,2.6487,3.0374,3.526,4.353,4.7375,4.9526,4.9915,4.9924,4.9939,4.9883,4.9784,4.9754,4.9748,4.9817,4.9817,4.9915,4.9841,4.9678,4.9381,4.9355,4.9416,4.9474,4.9446,4.9488,4.9503,4.9515,4.9446,4.9371,4.9371,4.9339,4.9381,4.9311,4.9341,4.9356,4.9262,4.9352,4.9612,4.9385,4.9484,4.9718,4.949,4.9577,4.9735,4.9659,4.95,4.9325,4.9545,4.9574,4.9659,4.9734,4.9583,4.9506,4.9645,4.9721,4.9718,4.9834,4.9818,4.9813,4.9794,4.9602,4.9385,4.9073,4.9071,4.9091,4.9129,4.9148,4.911,4.8842,4.8551,4.8312,4.8023,4.7939,4.7722,4.724,4.6877,4.6949,4.7572,4.782,4.782,4.7707,4.7542,4.7351,4.7219,4.7095,4.7079,4.7268,4.7031,4.6981,4.7081,4.6494,4.6165,4.5984,3.4852,2.9463,2.9259,1.8419,1.2453,2.8037,2.5968,2.439,2.439,2.3997,2.2975,2.0788,2.0062,1.9732,1.9236,1.6644,1.4949,1.6883,1.565,1.78,2.8264,3.112,3.5508,4.5718,4.8697,4.9863,4.9876,4.9888,4.9834,4.9867,4.9772,4.9763,4.9848,4.9894,4.7981,4.3601,4.7448,4.9683,4.9592,4.5246,4.5098,4.9602,4.9649,4.9621,4.9672,4.9678,4.9597,4.9579,4.9579,4.9573,4.956,4.9585,4.9597,4.9597,4.9541,4.9636,4.9725,4.9574,4.9659,4.9727,4.9576,4.9645,4.9152,4.4667,4.5973,4.8874,4.4527,4.6084,4.9672,4.9697,4.9639,4.9571,4.9647,4.9647,4.9723,4.9807,4.9884,4.9885,4.9887,4.9725,4.9607,4.9462,4.9488,4.9451,4.9441,4.9538,4.9478,4.9248,4.9085,4.8881,4.8604,4.8577,4.8448,4.7992,4.7963,4.812,4.8651,4.8672,4.8577,4.8439,4.8356,4.8349,4.8181,4.807,4.8145,4.8358,4.8372,4.825,4.8069,4.8033,4.4539,3.7606,3.0369,2.3369,1.6701,0.8276,0.2412,2.5116,2.2267,1.9636,1.9507,1.6436,1.3796,1.4845,1.3542,1.347,1.8096,1.5785,1.4172,1.8015,1.7012,1.8864,2.903,3.1024,3.4598,4.4006,4.6622,4.7,4.525,4.6394,4.7377,4.7379,4.7381,4.7455,4.753,4.6098,4.1862,3.4168,4.0943,4.4986,4.5007,3.9148,3.9617,4.7301,4.8818,4.8057,4.5056,4.6621,4.7402,4.741,4.741,4.8215,4.9715,4.9708,4.9705,4.9625,4.8023,4.7445,4.721,4.5608,4.493,4.4766,4.4739,4.4664,4.3452,3.5961,3.9409,4.5293,3.4332,3.6941,4.4393,4.4382,4.4366,4.4684,4.6473,4.6936,4.7409,4.9311,4.9787,4.98,4.9759,4.9777,4.9705,4.9705,4.9727,4.9734,4.9576,4.9629,4.9667,4.9484,4.9394,4.9279,4.9118,4.9038,4.8919,4.8598,4.8899,4.9158,4.9214,4.9101,4.904,4.8887,4.9076,4.9173,4.9049,4.9192,4.9325,4.9335,4.9352,4.8051,4.5161,4.5072,3.8069,2.3835,2.1345,1.4189,0.2552,-0.198,-0.7703,1.5985,1.3875,1.3323,1.2737,1.472,1.5727,1.1274,1.2626,1.3845,1.0293,0.888,0.8457,0.8943,1.3513,1.756,1.8611,2.3627,2.7419,2.7516,3.416,3.5756,2.7002,3.3102,3.7951,3.7975,3.7883,3.781,3.8006,3.0578,2.5483,2.4235,2.5314,2.5953,2.6007,3.2401,3.6449,3.7783,4.5717,4.1758,2.6082,3.4032,3.7759,3.775,3.775,4.2087,4.9582,4.9566,4.9553,4.8995,4.1189,3.8003,3.7191,2.9127,2.5523,2.4777,2.4696,2.4216,2.3522,2.3005,2.8871,3.3638,1.5653,1.609,2.3574,2.3577,2.3523,2.5248,3.4133,3.6547,3.8607,4.7465,4.9765,4.9773,4.978,4.9672,4.9553,4.9553,4.9576,4.9583,4.9581,4.9582,4.9657,4.9727,4.9507,4.9351,4.935,4.9348,4.9332,4.9408,4.9515,4.9591,4.9363,4.9421,4.9415,4.9118,4.9274,4.9325,4.935,4.9167,4.9101,4.9203,4.8919,4.3239,3.1454,3.1142,2.4418,1.0985,-0.1151,-0.8842,-1.2611,-2.4956,-3.2321,1.4663,1.2741,1.155,1.0863,1.1449,1.1565,0.9078,0.9241,0.9754,0.9324,0.7686,0.6769,0.7849,0.8719,1.0449,1.4252,1.7019,1.9917,2.3355,2.7273,2.7858,2.2946,2.5953,2.8425,2.8411,2.8387,2.8344,2.8369,2.4475,1.9668,1.4221,1.836,1.8675,1.4075,2.2783,2.4975,1.9878,2.8495,2.8766,2.0858,2.4892,2.6476,2.5879,2.6118,2.8136,3.1393,3.1971,3.224,3.1992,2.8347,2.6872,2.6475,2.2403,2.0609,2.0234,2.0157,1.9913,1.8901,1.4099,1.3155,1.2785,0.4792,0.8455,1.5898,1.5898,1.6308,1.7633,2.1939,2.3586,2.5047,2.9496,3.1206,3.1644,3.1474,3.1857,3.2136,3.1866,3.646,4.065,4.0752,4.5608,4.9743,4.9718,4.9661,4.9602,4.9602,4.9616,4.5264,3.3329,3.1836,3.1835,3.1804,3.7175,4.0676,4.047,3.9863,4.2221,4.8646,4.2687,3.8495,3.7584,3.7391,3.1055,1.7588,1.7282,1.005,-0.4549,-1.046,-1.8493,-2.8399,-3.5701,-3.9929,1.4699,1.2529,1.0278,0.8983,0.7817,0.6909,0.6469,0.5451,0.5368,0.7959,0.6567,0.5389,0.7073,0.6229,0.6391,0.9801,1.1202,1.2958,1.6303,1.8872,1.9131,1.5711,1.7623,1.9206,1.9113,1.9188,1.7996,1.4876,1.4444,1.1211,0.3937,0.9297,0.9862,0.3682,1.2365,1.3797,0.6946,1.2999,1.4779,1.2203,1.4273,1.4779,1.3991,1.4121,1.5013,1.6446,1.7039,1.7239,1.7101,1.5252,1.4515,1.4252,1.1923,1.0819,1.0653,1.0653,1.0486,0.9273,0.1847,-0.327,-0.6391,-0.5724,-0.076,0.4992,0.4992,0.5743,0.7022,0.9392,1.0644,1.1822,1.4389,1.5685,1.6327,1.6034,1.694,1.7723,1.722,2.3724,2.9653,2.9733,3.6224,4.1642,4.1672,4.1672,4.1672,4.1672,4.1633,3.5875,1.9947,1.7858,1.7931,1.8001,2.4861,2.9329,2.9289,2.8166,3.1103,3.9473,3.1655,2.5838,2.3907,2.389,1.7392,0.3512,0.2833,-0.4739,-1.9829,-1.9914,-2.6494,-3.9036,-4.0713,-4.2122,1.3801,1.0635,0.8033,0.5098,0.4315,0.3885,0.242,0.1992,0.2247,0.3257,0.3122,0.307,0.3622,0.8357,0.981,0.2579,0.6298,0.7214,-0.0935,0.5692,0.7609,-0.2612,0.4747,1.0573,1.0185,1.0492,0.6038,-0.5424,-0.6028,-0.6267,-0.6954,-0.6594,-0.6594,-0.6954,0.1825,0.6391,0.5937,0.6308,0.1622,-0.7958,-0.0265,0.3337,0.3249,0.2324,0.6589,1.4635,1.3724,1.3323,1.2658,0.3972,0.0468,-0.0398,-0.9188,-1.3123,-1.3764,-1.3764,-1.4285,-1.5401,-1.7713,-1.8713,-1.8907,-1.8907,-1.7948,-1.6824,-1.6824,-1.6165,-1.3357,-0.3758,-0.1083,0.1185,1.0682,1.3232,1.3198,1.2927,1.4244,1.5454,1.5186,1.7013,1.8682,1.874,1.9107,1.9512,1.9512,1.9557,1.9557,1.9557,1.9512,1.9165,1.8045,1.7856,1.7893,1.7893,1.7621,1.7434,1.7428,1.6666,1.6171,1.6147,1.5337,1.3884,1.1678,1.1362,0.4185,-1.091,-1.264,-1.9963,-3.3374,-3.4848,-3.7217,-4.0306,-4.043,-4.192,2.3825,1.7561,1.0787,0.9337,0.5749,0.242,0.1905,0.1732,0.1646,0.1389,0.0824,0.0288,0.0293,0.1947,0.2591,0.0215,0.1565,0.1746,-0.2055,-0.0315,-0.0311,-0.4767,-0.2695,-0.0994,-0.1277,-0.0397,-0.1635,-0.6277,-0.7804,-0.877,-0.9412,-0.9961,-1.0478,-1.0781,-0.6914,-0.5123,-0.5897,-0.5897,-0.8009,-1.2261,-1.0025,-0.9759,-1.1047,-1.1009,-0.9656,-0.7294,-0.6843,-0.6674,-0.6968,-0.9906,-1.1511,-1.2387,-1.5746,-1.7579,-1.8347,-1.8347,-1.8545,-1.9264,-2.285,-2.4397,-2.464,-2.4247,-2.3812,-2.3528,-2.3528,-2.2825,-2.1208,-1.7111,-1.5486,-1.3912,-0.9699,-0.8078,-0.7673,-0.8162,-0.7182,-0.6347,-0.7012,-0.1163,0.4149,0.4149,1.0571,1.5976,1.5976,1.708,1.7907,1.7907,0.4775,-0.5137,-0.5137,-0.4478,-0.4095,-0.4095,0.1756,0.5639,0.5523,0.4475,0.6965,1.4201,0.6088,0.0144,-0.1812,-0.337,-1.0724,-2.4658,-2.6533,-3.0355,-3.6445,-3.7588,-3.9671,-4.2406,-4.212,-4.3048,2.6042,1.9252,1.224,1.0713,0.5563,0.078,0.052,0.0433,0.0347,-0.0087,-0.0741,-0.1173,-0.1273,-0.1664,-0.1744,-0.1308,-0.1853,-0.2506,-0.3268,-0.4131,-0.5106,-0.5872,-0.6305,-0.663,-0.6953,-0.6932,-0.7147,-0.7792,-0.9398,-1.0569,-1.1116,-1.1981,-1.2491,-1.2787,-1.205,-1.2242,-1.3396,-1.3396,-1.4125,-1.5496,-1.6089,-1.7289,-1.9233,-1.9473,-1.9969,-2.0723,-2.066,-2.0597,-2.0597,-2.0302,-2.0565,-2.1151,-2.1151,-2.1666,-2.2364,-2.2112,-2.2744,-2.421,-2.7137,-2.8392,-2.8704,-2.8346,-2.7896,-2.7583,-2.7583,-2.6723,-2.5669,-2.511,-2.4302,-2.3445,-2.271,-2.2094,-2.1672,-2.2158,-2.0923,-1.984,-2.0562,-1.4296,-0.8645,-0.8645,-0.2023,0.3524,0.3524,0.4536,0.5333,0.5333,-0.8207,-1.8228,-1.7952,-1.696,-1.6369,-1.6369,-1.024,-0.6203,-0.6237,-0.7967,-0.5799,0.1729,-0.7238,-1.3738,-1.5706,-1.7264,-2.2728,-3.2661,-3.4365,-3.6152,-3.8074,-3.9271,-4.0988,-4.3115,-4.2817,-4.3446,1.9653,1.5084,1.1928,0.8583,0.356,-0.0778,-0.1913,-0.1992,-0.1729,-0.1478,-0.1487,-0.1471,-0.0881,-0.156,-0.2183,-0.2183,-0.392,-0.5331,-0.5647,-0.6178,-0.6825,-0.7374,-0.6404,-0.5864,-0.6188,-0.865,-1.0585,-1.1328,-1.228,-1.2912,-1.2912,-1.3457,-1.3751,-1.3541,-1.3751,-1.4377,-1.5448,-1.5448,-1.6577,-1.8732,-1.853,-1.9133,-2.0427,-2.2482,-2.3445,-2.3541,-2.56,-2.6476,-2.6476,-2.6476,-2.6569,-2.6569,-2.6569,-2.6946,-2.7409,-2.6896,-2.8703,-3.1575,-3.1575,-3.1575,-3.149,-3.149,-3.0799,-2.9972,-2.9972,-2.8837,-2.7499,-2.7499,-2.7038,-2.6569,-2.6476,-2.6476,-2.6569,-2.7079,-2.4923,-2.2799,-2.3373,-2.1053,-1.8904,-1.8904,-1.9104,-1.9204,-1.9204,-1.9403,-1.9503,-1.9503,-1.9603,-1.9304,-1.8228,-1.7267,-1.6678,-1.6575,-1.7191,-1.7626,-1.7599,-2.0161,-2.1997,-2.2482,-2.466,-2.6873,-2.9013,-2.9409,-3.1083,-3.4262,-3.593,-3.7447,-3.9005,-4.0615,-4.1663,-4.2197,-4.2592,-4.3049,2.8805,2.1133,1.3406,0.8329,0.6298,0.4063,-0.152,0.1335,0.3777,-0.1185,-0.2791,-0.2945,-0.2059,-0.2911,-0.3594,-0.3154,-0.4456,-0.5539,-0.5647,-0.6512,-0.7266,-0.7374,-0.7697,-0.8556,-1.025,-1.0797,-1.1522,-1.2872,-1.3102,-1.373,-1.4875,-1.4377,-1.4481,-1.5519,-1.5496,-1.6011,-1.7165,-1.7952,-1.8932,-2.0031,-2.1183,-2.2192,-2.3061,-2.4811,-2.56,-2.5694,-2.6631,-2.7179,-2.7179,-2.7679,-2.8305,-2.897,-2.897,-2.9541,-3.0455,-3.0791,-3.1767,-3.2861,-3.2432,-3.2316,-3.2115,-3.166,-3.1273,-3.1103,-3.1103,-3.0713,-3.0196,-2.9451,-2.8793,-2.8256,-2.7859,-2.7129,-2.662,-2.7492,-2.6672,-2.5748,-2.6079,-2.5483,-2.483,-2.483,-2.3754,-2.2956,-2.3076,-2.1442,-2.0204,-2.0401,-2.3302,-2.5072,-2.4096,-2.3718,-2.3242,-2.2476,-2.0625,-1.9792,-2.0526,-2.1313,-2.1802,-2.1997,-2.5498,-2.7906,-2.8528,-3.0277,-3.1732,-3.2679,-3.5387,-3.695,-3.7377,-4.0108,-4.1663,-4.2197,-4.2592,-4.3049,2.875,2.159,1.3322,0.8163,0.53,0.2616,-0.1756,0.0701,0.2627,-0.1692,-0.3215,-0.3563,-0.3028,-0.3796,-0.4495,-0.4551,-0.5531,-0.6404,-0.6502,-0.7589,-0.8448,-0.877,-0.9319,-1.0266,-1.1857,-1.2577,-1.3396,-1.4229,-1.5266,-1.6114,-1.6934,-1.6627,-1.673,-1.7471,-1.7546,-1.8228,-1.9693,-2.0291,-2.1346,-2.2772,-2.3541,-2.4396,-2.5468,-2.6251,-2.6988,-2.7764,-2.8704,-2.9146,-2.9146,-2.9496,-3.0018,-3.0581,-3.0581,-3.114,-3.2115,-3.3491,-3.4209,-3.4419,-3.413,-3.4157,-3.4157,-3.3137,-3.3056,-3.3168,-3.2531,-3.2115,-3.178,-3.1178,-3.0495,-2.9936,-2.9758,-2.9102,-2.8659,-2.9321,-2.8704,-2.8213,-2.8481,-2.7854,-2.7311,-2.7311,-2.6263,-2.539,-2.5576,-2.4378,-2.3681,-2.4304,-2.6275,-2.7402,-2.6356,-2.6223,-2.5576,-2.3659,-2.19,-2.1149,-2.1705,-2.2545,-2.3373,-2.4227,-2.6782,-2.8749,-2.9671,-3.114,-3.2316,-3.3087,-3.5462,-3.7093,-3.7728,-4.0173,-4.1543,-4.1843,-4.2479,-4.3138,2.2523,1.8213,1.2276,0.763,0.3026,-0.059,0.0,-0.1245,-0.1048,-0.19,-0.2818,-0.3515,-0.3647,-0.4396,-0.5191,-0.5996,-0.6901,-0.7661,-0.7899,-0.8877,-0.9946,-1.092,-1.1133,-1.1451,-1.2385,-1.4229,-1.5551,-1.5654,-1.7722,-1.889,-1.889,-1.9162,-1.9262,-1.899,-1.9463,-2.0458,-2.2064,-2.2259,-2.3516,-2.5787,-2.5561,-2.6211,-2.7534,-2.7311,-2.8124,-2.9716,-3.0932,-3.149,-3.1575,-3.1744,-3.1829,-3.1744,-3.1864,-3.2365,-3.3137,-3.5375,-3.6112,-3.6112,-3.6206,-3.6595,-3.6831,-3.5397,-3.5473,-3.5797,-3.4366,-3.3411,-3.2893,-3.3006,-3.2316,-3.166,-3.1864,-3.1696,-3.1527,-3.1732,-3.0923,-3.0191,-3.0409,-2.9146,-2.7859,-2.7859,-2.7583,-2.7303,-2.7303,-2.7625,-2.8256,-2.9455,-2.8792,-2.7764,-2.6905,-2.6773,-2.5669,-2.293,-2.2545,-2.2255,-2.1997,-2.3373,-2.5258,-2.7318,-2.7995,-2.9276,-3.1405,-3.178,-3.2679,-3.4104,-3.5687,-3.7164,-3.8542,-4.03,-4.1175,-4.1175,-4.2414,-4.3485,0.0,0.0,0.0,0.0,0.0,0.0,0.0,0.3837,0.5236,0.2247,-0.0906,-0.331,-0.3622,-0.4712,-0.5797,-0.6821,-0.7908,-0.8711,-0.9156,-0.9412,-1.0159,-1.1981,-1.2596,-1.3437,-1.4608,-1.5543,-1.6653,-1.7952,-1.8284,-1.889,-1.9923,-1.9191,-1.8789,-1.8789,-2.026,-2.1117,-2.1509,-2.3132,-2.4792,-2.658,-2.6855,-2.7854,-2.9586,-2.9894,-3.0155,-3.0502,-3.076,-3.1273,-3.2032,-3.3462,-3.3623,-3.3188,-3.4576,-3.5198,-3.5505,-3.7089,-3.7249,-3.696,-3.8052,-3.8122,-3.7703,-3.735,-3.7364,-3.7434,-3.7079,-3.6115,-3.5365,-3.6501,-3.4599,-3.2729,-3.4496,-3.3249,-3.166,-3.215,-3.1732,-3.1188,-3.1273,-3.1017,-3.0713,-3.0713,-3.0674,-3.0502,-3.0283,-2.9761,-2.9761,-3.1055,-3.0628,-3.0068,-2.9849,-2.9849,-2.9323,-2.8034,-2.7179,-2.5669,-2.3253,-2.2579,-2.3218,-2.5165,-2.6914,-2.897,-3.1405,-3.1575,-3.1864,-3.2564,-3.4104,-3.5061,-3.5311,-3.8551,-3.9986,-3.9793,-4.2916,-4.4565,0.0,0.0,0.0,0.0,0.0,0.0,0.0,0.0,0.0,0.0,0.0,-0.133,-0.4117,0.0,-0.621,-0.7852,-0.8249,-0.8704,-0.9273,-0.9855,-1.0837,-1.272,-1.3212,-1.4115,-1.6036,-1.6986,-1.7979,-1.9292,-1.9892,-2.0421,-2.1016,-2.062,-2.0489,-2.0886,-2.1771,-2.2614,-2.3349,-2.4811,-2.6251,-2.7673,-2.8392,-2.9499,-3.076,-3.1017,-3.132,-3.166,-3.2115,-3.2646,-3.33,-3.4733,-3.5044,-3.4888,-3.6429,-3.6798,-3.6724,-3.8573,-3.8982,-3.8651,-3.8592,-3.8592,-3.8397,-3.7633,-3.7633,-3.7855,-3.7855,-3.7364,-3.6992,-3.7716,-3.6573,-3.5387,-3.6501,-3.5762,-3.483,-3.5137,-3.4418,-3.36,-3.36,-3.2761,-3.1948,-3.1948,-3.1696,-3.149,-3.1612,-3.1225,-3.097,-3.1188,-3.0932,-3.0721,-3.0721,-3.0721,-3.0155,-2.8748,-2.8081,-2.6864,-2.4548,-2.3885,-2.3469,-2.3051,-2.4864,-2.6971,-2.9232,-3.0923,-3.1864,-3.2115,-3.36,-3.4418,-3.4365,-3.8015,-3.98,-3.9864,-4.3461,-4.5427,0.0,0.0,0.0,0.0,0.0,0.0,0.0,0.0,0.0,0.0,0.0,0.0,0.0,0.0,0.0,-0.8395,-0.8275,-0.8396,-0.927,-1.0317,-1.1514,-1.3174,-1.3426,-1.4369,-1.6398,-1.7733,-1.8917,-1.9711,-2.1149,-2.2,-2.2,-2.2098,-2.2488,-2.3105,-2.336,-2.409,-2.5281,-2.6211,-2.7402,-2.8792,-2.9631,0.0,-3.166,-3.166,-3.1913,-3.2498,-3.3351,-3.3915,-3.4182,-3.5044,-3.5505,-3.581,-3.7162,-3.7177,-3.6742,-3.8982,-3.9972,-4.0037,-3.8915,-3.8998,-3.9534,-3.8328,-3.8328,-3.8745,-3.8745,-3.8601,0.0,-3.8677,-3.8338,-3.7925,-3.827,-3.8132,-3.7855,-3.7855,-3.7064,-3.6115,-3.5817,-3.434,-3.3006,-3.2729,-3.2199,-3.1913,-3.2032,-3.2282,-3.215,-3.1395,-3.0932,-3.0721,-3.0721,-3.0721,-2.9936,-2.7991,-2.7409,-2.659,-2.5072,-2.464,-2.2521,-1.8111,-1.9634,-2.1636,-2.3516,-2.6131,-2.8797,-3.1399,-3.2669,-3.3531,-3.3947,-3.775,-3.9675,-3.9869,-4.2055,-4.3867,0.0,0.0,0.0,0.0,0.0,0.0,0.0,0.0,0.0,0.0,0.0,0.0,0.0,0.0,0.0,0.0,-0.8087,-0.8767,-1.0033,-1.0793,-1.1656,-1.2926,-1.3703,-1.422,-1.4456,-1.6789,-1.8344,-1.844,-2.0665,-2.2,-2.2,-2.2585,0.0,0.0,0.0,-2.5093,-2.5281,-2.6066,-2.7353,-2.9279,-2.9367,-3.0329,-3.2032,-3.2032,-3.2115,-3.2414,-3.258,-3.2828,-3.3188,-3.3351,-3.3915,-3.4811,-3.581,-3.5658,-3.5068,-3.6742,-3.818,-3.9331,-3.9789,0.0,0.0,-4.1775,-4.1775,-4.1898,-4.1898,-4.0988,-4.0239,-4.1537,-3.9922,-3.8201,-3.9599,-3.8938,-3.7855,-3.7855,-3.7785,-3.7293,-3.6041,-3.5571,-3.4961,-3.3623,-3.3269,-3.2943,-3.2199,-3.2811,-3.3491,-3.3469,-3.1851,-3.0721,-3.0548,-3.0635,-2.9936,-2.7991,-2.6183,0.0,-2.3026,-2.1642,-1.6273,-0.5677,-0.7248,-0.9192,-1.0598,-1.1037,-1.6861,-2.891,-2.9361,-3.032,-3.2316,-3.6595,-3.8527,-3.821,-3.4956,-3.6183,0.0,0.0,0.0,0.0,0.0,0.0,0.0,0.0,0.0,0.0,0.0,0.0,0.0,0.0,0.0,0.0,-0.7252,-0.7984,-0.9397,-1.038,-1.1412,-1.2767,-1.3535,-1.4313,-1.5256,-1.6327,-1.7516,-1.8532,-1.9611,-2.0463,-2.127,-2.1588,-2.2425,-2.3744,-2.4413,-2.517,-2.588,-2.6845,-2.8029,-2.9367,-2.9849,-3.0885,-3.2331,-3.2331,-3.2498,-3.2746,-3.3351,-3.3674,-3.3915,-3.4497,-3.4654,-3.4576,0.0,0.0,0.0,0.0,-3.6469,-3.8244,-3.87,-3.9331,-4.0044,-4.0865,-4.0865,-4.0741,-4.2016,-4.2016,-4.1716,-4.2191,-4.1473,-4.074,-4.1293,-4.0988,-4.0491,-4.0491,-3.9858,-3.9005,-3.7925,-3.6992,-3.6096,-3.5198,-3.4966,0.0,-3.3219,-3.333,-3.3249,-3.2184,-3.1225,-3.0721,-3.0635,-3.0721,-2.9716,-2.7325,-2.6195,-2.2011,-1.2935,-1.1538,0.0,0.0,0.0,0.5133,0.36,0.3527,0.0,0.0,0.0,-2.8748,-3.0275,-3.1404,0.0,0.0,-3.3297,-3.4946,0.0,0.0,0.0,0.0,0.0,0.0,0.0,0.0,0.0,0.0,0.0,0.0,0.0,0.0,0.0,0.0,-0.6407,-0.7288,-0.8711,-0.9644,-1.0696,-1.2222,-1.2921,-1.3807,-1.4998,-1.5674,-1.6583,-1.7917,-1.8547,-1.9222,-2.0229,-2.0796,-2.1914,-2.3609,-2.4207,-2.5076,-2.6066,-2.712,-2.8029,-2.9014,-2.9936,-3.097,-3.2081,-3.2414,-3.2663,-3.2993,-3.3754,-3.4023,-3.4182,-3.4966,-3.4888,-3.413,-3.3009,-3.3401,-3.4599,-3.356,-3.4485,-3.6304,-3.7372,-3.8297,-3.9192,-4.0236,-3.9992,-3.9684,-4.1413,-4.1677,-4.1444,-4.1606,-4.1526,-4.15,-4.1776,-4.1848,-4.1913,-4.23,-4.1596,-4.0553,-3.9337,-3.826,-3.7264,-3.6336,-3.6355,-3.6226,-3.5114,-3.4078,-3.2924,-3.1479,-3.0932,-3.0721,-3.0635,-3.0023,-2.8528,-2.5931,-2.488,-1.8888,-0.5048,-0.3954,0.2549,1.8044,1.8876,1.9786,2.1902,1.9049,1.1804,-0.0124,-1.4779,-2.4215,0.0,0.0,0.0,0.0,0.0,0.0,0.0,0.0,0.0,0.0,0.0,0.0,0.0,0.0,0.0,0.0,0.0,0.0,0.0,0.0,0.0,0.0,0.0,0.0,-0.804,-0.8586,-0.9392,-1.0911,-1.1736,-1.226,-1.2492,-1.4475,-1.5785,-1.5843,-1.7737,-1.8851,-1.894,-2.0859,-2.2005,-2.2005,-2.4117,-2.5319,-2.5281,-2.6066,-2.7029,-2.8029,-2.9235,-3.0283,-3.1188,-3.2282,-3.2911,-3.3025,-3.3025,-3.3269,-3.3513,-3.3513,-3.3513,-3.3309,-3.1044,-3.0966,-3.1909,-3.1393,-3.1892,-3.325,-3.6312,-3.9192,-4.1479,-4.1421,-4.0831,-4.0281,-4.0553,-3.9643,-3.8612,-3.953,-3.9172,-3.8884,-4.0205,-4.0474,-4.0807,-4.2106,-4.2371,-4.1716,-3.9534,-3.9072,-3.8397,-3.6503,-3.7048,-3.7855,-3.8122,-3.5235,-3.2793,-3.2629,-3.1564,0.0,-3.0548,-2.8262,-2.584,-2.3797,-2.1118,-1.4671,-0.2813,-0.2164,0.6773,2.8255,2.9255,3.4299,4.602,3.6261,3.0253,2.977,0.4003,-1.4772,-2.577,0.0,0.0,0.0,0.0,0.0,0.0,0.0,0.0,0.0,0.0,0.0,0.0,0.0,0.0,0.0,0.0,0.0,0.0,0.0,0.0,0.0,0.0,0.0,0.0,-0.63,-0.88,-0.9689,-1.1204,-1.199,-1.1444,-1.3191,-1.4367,-1.4467,-1.5382,-1.669,-1.8088,-1.8862,-2.0213,-2.2462,-2.321,-2.4055,-2.5103,-2.5971,-2.6971,-2.7914,-2.8923,-3.0329,-3.178,-3.1696,-3.2282,-3.3269,-3.2861,-3.2542,-3.2415,-3.2415,-3.1752,-3.0766,-3.0749,-3.0988,-3.1341,-3.0898,-3.1438,-3.2579,-3.3524,-3.5298,-3.7295,-3.8594,-3.8505,-3.8078,-3.8973,-3.8947,-3.861,-3.8806,-3.8767,-3.8712,-3.9079,-3.9156,-3.9481,-4.0907,-4.1231,-4.1147,-4.0922,-4.0865,-4.0616,-3.9529,-3.8601,-3.7057,-3.433,-3.3313,-3.2322,-3.0816,-3.0684,-3.0721,-3.0635,-2.9803,-2.7594,-2.3194,-2.1858,-1.2608,0.8803,1.0526,1.9382,4.038,4.1753,4.3623,4.7697,4.4464,3.8395,2.9496,2.0526,0.8019,-0.8162,0.0,0.0,0.0,0.0,0.0,0.0,0.0,0.0,0.0,0.0,0.0,0.0,0.0,0.0,0.0,0.0,0.0,0.0,0.0,0.0,0.0,0.0,0.0,0.0,0.0,0.0,-0.8589,-1.0344,0.0,-1.0321,-1.1718,-1.2671,-1.2671,-1.3678,-1.4951,-1.6361,-1.7318,-1.8869,-2.0895,-2.1834,-2.278,-2.3799,-2.4609,-2.5493,-2.6404,-2.7433,-2.8804,-3.0262,-3.0262,-3.075,-3.1712,-3.1424,-3.1156,-3.0663,-3.0264,-2.9165,-2.7905,-2.8792,-2.9393,-2.9745,-2.9998,-3.0866,-3.1944,-3.2752,-3.3984,-3.5341,-3.7123,-3.6617,-3.5571,-3.6983,-3.645,-3.5615,-3.7057,-3.71,-3.6988,-3.8257,-3.817,-3.824,-3.9915,-4.0432,-4.0658,-4.0999,-4.1398,-4.1416,-3.9861,-3.7877,-3.5549,-3.2786,-3.2127,-3.1449,-3.0061,-3.0288,-3.0588,-3.0667,-2.8925,-2.6337,-2.278,-1.7229,-0.5462,1.5153,2.03,2.97,4.6656,4.8027,4.813,4.813,4.8298,4.2898,3.1182,2.6354,1.6598,0.0,0.0,0.0,0.0,0.0,0.0,0.0,0.0,0.0,0.0,0.0,0.0,0.0,0.0,0.0,0.0,0.0,0.0,0.0,0.0,0.0,0.0,0.0,0.0,0.0,0.0,0.0,-0.6704,-0.8392,0.0,0.0,0.0,0.0,-1.0119,-1.2214,-1.3581,-1.3712,-1.6208,-1.7727,-1.779,-2.0215,-2.1499,-2.1462,-2.2183,-2.2944,-2.3823,-2.4847,-2.5856,-2.6862,-2.7953,-2.8489,-2.8641,-2.9044,-2.8969,-2.8372,-2.7096,-2.5953,-2.5007,-2.5337,-2.6097,-2.7151,-2.8721,-3.0019,-3.134,-3.3752,-3.4886,-3.5547,-3.6808,-3.4989,-3.2741,-3.4565,-3.2315,0.0,0.0,-3.4201,-3.3951,-3.7286,-3.7278,-3.6844,-3.877,-3.9702,-4.0043,-3.9554,-4.046,-4.0553,-3.7479,-3.5104,-3.3577,-3.3094,0.0,-3.0017,-3.0083,-3.0162,-3.0092,-2.9778,-2.5053,-2.148,-2.0623,-0.6906,0.6352,1.6859,2.6934,3.7093,4.7396,4.827,4.8383,4.8361,4.8017,4.392,3.5706,2.2755,0.0,0.0,0.0,0.0,0.0,0.0,0.0,0.0,0.0,0.0,0.0,0.0,0.0,0.0,0.0,0.0,0.0,0.0,0.0,0.0,0.0,0.0,0.0,0.0,0.0,0.0,0.607,0.3313,0.7415,0.1097,-0.1645,0.0,0.0,0.0,0.0,0.0,0.0,-1.2164,-1.3915,-1.5487,-1.6783,-1.9166,-2.0378,-2.0259,-2.1799,-2.2634,-2.2933,-2.3948,-2.5175,-2.6377,-2.6218,-2.7007,-2.8717,-2.8136,-2.7736,-2.7192,-2.4714,-2.3572,-2.3416,-2.3022,-2.3487,-2.4591,-2.7033,-2.8922,-3.0288,-3.0394,-3.1452,-3.2344,-3.0262,-2.9223,-2.874,-2.8686,0.0,0.0,0.0,0.0,-3.2018,-3.1121,-3.2434,-3.4082,-3.3909,-3.4029,-3.4583,-3.6312,-3.6903,-3.6377,-3.3711,-3.2394,-3.102,-2.8484,-2.7163,0.0,-2.7199,-2.8133,-2.5559,-1.6907,-1.4736,-0.9341,0.2679,0.7842,1.54,2.7869,3.1414,3.7359,4.7646,4.8559,4.8454,4.7801,4.2246,3.7965,3.5516,0.0,0.0,0.0,0.0,0.0,0.0,0.0,0.0,0.0,0.0,0.0,0.0,0.0,0.0,0.0,0.0,0.0,0.0,0.0,0.0,0.0,0.0,0.0,0.0,0.0,0.0,0.0,1.3599,0.8782,1.0052,0.519,0.3291,0.0,0.0,0.0,0.0,0.0,0.0,0.0,0.0,0.0,-1.4094,-1.5746,-1.6851,-1.7457,-1.8793,-1.9994,-2.0952,-2.19,-2.2928,-2.4017,-2.3631,-2.4247,-2.5533,-2.5607,-2.5003,-2.378,-2.1643,-2.0673,-2.0577,0.0,0.0,0.0,0.0,-2.6774,-2.7708,-2.8761,-2.9398,-2.9331,-2.7161,0.0,0.0,0.0,0.0,0.0,0.0,0.0,-2.6559,-2.6713,-2.6818,-2.6837,-2.6667,-2.6987,-2.8117,-3.0867,-3.0207,-2.8851,-2.8043,-2.7281,-2.6293,-2.5002,-2.4441,0.0,0.0,0.0,-1.6782,-1.0335,-0.417,0.3141,1.2259,1.8463,2.5012,3.243,3.7291,4.2305,4.7762,4.8288,4.7521,4.5402,3.9097,3.32,0.0,0.0,0.0,0.0,0.0,0.0,0.0,0.0,0.0,0.0,0.0,0.0,0.0,0.0,0.0,0.0,0.0,0.0,0.0,0.0,0.0,0.0,0.0,0.0,0.0,0.0,0.0,0.0,0.0,1.6144,0.9447,0.0,0.0,0.0,0.0,0.0,0.0,0.0,0.0,0.0,0.0,0.0,0.0,0.0,-1.2793,-1.3867,-1.4689,-1.6082,-1.7985,-1.8848,-1.9666,-2.0313,-2.0597,-2.0823,-2.1215,-2.1795,0.0,-1.8527,-1.8012,0.0,0.0,0.0,0.0,0.0,0.0,0.0,0.0,0.0,0.0,0.0,0.0,0.0,0.0,0.0,0.0,0.0,0.0,0.0,0.0,0.0,0.0,-1.7494,-1.8706,-1.9391,-2.0499,-2.3191,-2.1429,-1.9793,-2.1307,-2.079,-2.0428,0.0,0.0,0.0,0.0,0.0,0.0,-0.4947,0.706,1.6141,1.7886,2.8367,3.5198,3.5198,4.3492,4.8394,4.7701,4.7224,4.5368,4.1856,3.6836,0.0,0.0,0.0,0.0,0.0,0.0,0.0,0.0,0.0,0.0,0.0,0.0,0.0,0.0,0.0,0.0,0.0,0.0,0.0,0.0,0.0,0.0,0.0,0.0,0.0,0.0,0.0,0.0,0.0,0.0,0.0,0.0,0.0,0.0,0.0,0.0,0.0,0.0,0.0,0.0,0.0,0.0,0.0,0.0,0.0,0.0,0.0,0.0,0.0,0.0,-1.4768,-1.5521,-1.5921,-1.7496,-1.8772,-1.9808,-1.6779,-1.3739,-1.107,-1.3245,0.0,0.0,0.0,0.0,0.0,0.0,0.0,0.0,0.0,0.0,0.0,0.0,0.0,0.0,0.0,0.0,0.0,0.0,0.0,0.0,0.0,0.0,-1.0437,-1.3589,-1.2124,-1.0161,-1.0709,0.0,0.0,0.0,0.0,0.0,0.0,0.0,0.0,0.0,0.0,0.0,1.0719,2.0301,3.0459,4.1451,4.4891,4.6389,4.6389,4.7442,4.8103,4.7979,4.3854,4.0415,0.0,0.0,0.0,0.0,0.0,0.0,0.0,0.0,0.0,0.0,0.0,0.0,0.0,0.0,0.0,0.0,0.0,0.0,0.0,0.0,0.0,0.0,0.0,0.0,0.0,0.0,0.0,0.0,0.0,0.0,0.0,0.0,0.0,0.0,0.0,0.0,0.0,0.0,0.0,0.0,0.0,0.0,0.0,0.0,0.0,0.0,0.0,0.0,0.0,0.0,0.0,0.0,0.0,0.0,0.0,0.0,0.0,0.0,-0.8617,-0.5726,0.0,0.0,0.0,0.0,0.0,0.0,0.0,0.0,0.0,0.0,0.0,0.0,0.0,0.0,0.0,0.0,0.0,0.0,0.0,0.0,0.0,0.0,0.0,0.0,0.0,0.0,0.0,0.0,0.0,0.0,0.0,0.0,0.0,0.0,0.0,0.0,0.0,0.0,0.0,0.0,1.6359,2.9377,4.0574,4.6983,4.7833,4.7835,4.7835,4.7488,4.6492,4.45,4.0719,0.0,0.0,0.0,0.0,0.0,0.0,0.0,0.0,0.0,0.0,0.0,0.0,0.0,0.0,0.0,0.0,0.0,0.0,0.0,0.0,0.0,0.0,0.0,0.0,0.0,0.0,0.0,0.0,0.0,0.0,0.0,0.0,0.0,0.0,0.0,0.0,0.0,0.0,0.0,0.0,0.0,0.0,0.0,0.0,0.0,0.0,0.0,0.0,0.0,0.0,0.0,0.0,0.0,0.0,0.0,0.0,0.0,0.0,0.0,-0.0462,0.1889,0.0,0.0,0.0,0.0,0.0,0.0,0.0,0.0,0.0,0.0,0.0,0.0,0.0,0.0,0.0,0.0,0.0,0.0,0.0,0.0,0.0,0.0,0.0,0.0,0.0,0.0,0.0,0.0,0.0,0.0,0.0,0.0,0.0,0.0,0.0,0.0,0.0,0.0,0.0,0.0,1.9718,3.5492,4.6648,4.6648,4.6648,4.6648,4.6648,4.6475,4.4664,4.0671,3.7256,0.0,0.0,0.0,0.0,0.0,0.0,0.0,0.0,0.0,0.0,0.0,0.0,0.0,0.0,0.0,0.0,0.0,0.0,0.0,0.0,0.0,0.0,0.0,0.0,0.0,0.0,0.0,0.0,0.0,0.0,0.0,0.0,0.0,0.0,0.0,0.0,0.0,0.0,0.0,0.0,0.0,0.0,0.0,0.0,0.0,0.0,0.0,0.0,0.0,0.0,0.0,0.0,0.0,0.0,0.0,0.0,0.0,0.0,0.0,0.0,0.0,0.0,0.0,0.0,0.0,0.0,0.0,0.0,0.0,0.0,0.0,0.0,0.0,0.0,0.0,0.0,0.0,0.0,0.0,0.0,0.0,0.0,0.0,0.0,0.0,0.0,0.0,0.0,0.0,0.0,0.0,0.0,0.0,0.0,0.0,0.0,0.0,0.0,0.0,0.0,0.0,2.5736,3.8021,4.6648,4.6648,4.6648,4.6648,4.6648,4.6045,4.3612,3.8826,0.0,0.0,0.0,0.0,0.0,0.0,0.0,0.0,0.0,0.0,0.0,0.0,0.0,0.0,0.0,0.0,0.0,0.0,0.0,0.0,0.0,0.0,0.0,0.0,0.0,0.0,0.0,0.0,0.0,0.0,0.0,0.0,0.0,0.0,0.0,0.0,0.0,0.0,0.0,0.0,0.0,0.0,0.0,0.0,0.0,0.0,0.0,0.0,0.0,0.0,0.0,0.0,0.0,0.0,0.0,0.0,0.0,0.0,0.0,0.0,0.0,0.0,0.0,0.0,0.0,0.0,0.0,0.0,0.0,0.0,0.0,0.0,0.0,0.0,0.0,0.0,0.0,0.0,0.0,0.0,0.0,0.0,0.0,0.0,0.0,0.0,0.0,0.0,0.0,0.0,0.0,0.0,0.0,0.0,0.0,0.0,0.0,0.0,0.0,0.0,0.0,0.0,2.5662,3.7155,4.516,4.516,4.516,4.516,4.516,4.4873,4.1875,3.5283,0.0,0.0,0.0,0.0,0.0,0.0,0.0,0.0,0.0,0.0,0.0,0.0,0.0,0.0,0.0,0.0,0.0,0.0,0.0,0.0,0.0,0.0,0.0,0.0,0.0,0.0,0.0,0.0,0.0,0.0,0.0,0.0,0.0,0.0,0.0,0.0,0.0,0.0,0.0,0.0,0.0,0.0,0.0,0.0,0.0,0.0,0.0,0.0,0.0,0.0,0.0,0.0,0.0,0.0,0.0,0.0,0.0,0.0,0.0,0.0,0.0,0.0,0.0,0.0,0.0,0.0,0.0,0.0,0.0,0.0,0.0,0.0,0.0,0.0,0.0,0.0,0.0,0.0,0.0,0.0,0.0,0.0,0.0,0.0,0.0,0.0,0.0,0.0,0.0,0.0,0.0,0.0,0.0,0.0,0.0,0.0,0.0,0.0,0.0,0.0,0.0,0.0,2.6054,3.6169,4.33,4.33,4.3789,4.4182,4.4182,4.4182,4.0609,3.238,0.0,0.0,0.0,0.0,0.0,0.0,0.0,0.0,0.0,0.0,0.0,0.0,0.0,0.0,0.0,0.0,0.0,0.0,0.0,0.0,0.0,0.0,0.0,0.0,0.0,0.0,0.0,0.0,0.0,0.0,0.0,0.0,0.0,0.0,0.0,0.0,0.0,0.0,0.0,0.0,0.0,0.0,0.0,0.0,0.0,0.0,0.0,0.0,0.0,0.0,0.0,0.0,0.0,0.0,0.0,0.0,0.0,0.0,0.0,0.0,0.0,0.0,0.0,0.0,0.0,0.0,0.0,0.0,0.0,0.0,0.0,0.0,0.0,0.0,0.0,0.0,0.0,0.0,0.0,0.0,0.0,0.0,0.0,0.0,0.0,0.0,0.0,0.0,0.0,0.0,0.0,0.0,0.0,0.0,0.0,0.0,0.0,0.0,0.0,0.0,0.0,0.0,2.8094,3.5895,4.1279,4.1279,4.3017,4.4182,4.4182,4.4182,4.0067,0.0,0.0,0.0,0.0,0.0,0.0,0.0,0.0,0.0,0.0,0.0,0.0,0.0,0.0,0.0,0.0,0.0,0.0,0.0,0.0,0.0,0.0,0.0,0.0,0.0,0.0,0.0,0.0,0.0,0.0,0.0,0.0,0.0,0.0,0.0,0.0,0.0,0.0,0.0,0.0,0.0,0.0,0.0,0.0,0.0,0.0,0.0,0.0,0.0,0.0,0.0,0.0,0.0,0.0,0.0,0.0,0.0,0.0,0.0,0.0,0.0,0.0,0.0,0.0,0.0,0.0,0.0,0.0,0.0,0.0,0.0,0.0,0.0,0.0,0.0,0.0,0.0,0.0,0.0,0.0,0.0,0.0,0.0,0.0,0.0,0.0,0.0,0.0,0.0,0.0,0.0,0.0,0.0,0.0,0.0,0.0,0.0,0.0,0.0,0.0,0.0,0.0,0.0,2.8516,3.3881,3.8455,4.169,4.0794,4.055,4.2042,4.0854,3.6803,2.9378,0.0,0.0,0.0,0.0,0.0,0.0,0.0,0.0,0.0,0.0,0.0,0.0,0.0,0.0,0.0,0.0,0.0,0.0,0.0,0.0,0.0,0.0,0.0,0.0,0.0,0.0,0.0,0.0,0.0,0.0,0.0,0.0,0.0,0.0,0.0,0.0,0.0,0.0,0.0,0.0,0.0,0.0,0.0,0.0,0.0,0.0,0.0,0.0,0.0,0.0,0.0,0.0,0.0,0.0,0.0,0.0,0.0,0.0,0.0,0.0,0.0,0.0,0.0,0.0,0.0,0.0,0.0,0.0,0.0,0.0,0.0,0.0,0.0,0.0,0.0,0.0,0.0,0.0,0.0,0.0,0.0,0.0,0.0,0.0,0.0,0.0,0.0,0.0,0.0,0.0,0.0,0.0,0.0,0.0,0.0,0.0,0.0,0.0,0.0,0.0,0.0,0.0,0.0,3.2677,3.6845,3.9743,3.9485,3.9614,4.0859,3.955,3.5815,2.926,0.0,0.0,0.0,0.0,0.0,0.0,0.0,0.0,0.0,0.0,0.0,0.0,0.0,0.0,0.0,0.0,0.0,0.0,0.0,0.0,0.0,0.0,0.0,0.0,0.0,0.0,0.0,0.0,0.0,0.0,0.0,0.0,0.0,0.0,0.0,0.0,0.0,0.0,0.0,0.0,0.0,0.0,0.0,0.0,0.0,0.0,0.0,0.0,0.0,0.0,0.0,0.0,0.0,0.0,0.0,0.0,0.0,0.0,0.0,0.0,0.0,0.0,0.0,0.0,0.0,0.0,0.0,0.0,0.0,0.0,0.0,0.0,0.0,0.0,0.0,0.0,0.0,0.0,0.0,0.0,0.0,0.0,0.0,0.0,0.0,0.0,0.0,0.0,0.0,0.0,0.0,0.0,0.0,0.0,0.0,0.0,0.0,0.0,0.0,0.0,0.0,0.0,0.0,3.2111,3.5985,3.6461,3.8693,4.0242,4.0367,3.9607,3.6261,2.9756,2.6213,0.0,0.0,0.0,0.0,0.0,0.0,0.0,0.0,0.0,0.0,0.0,0.0,0.0,0.0,0.0,0.0,0.0,0.0,0.0,0.0,0.0,0.0,0.0,0.0,0.0,0.0,0.0,0.0,0.0,0.0,0.0,0.0,0.0,0.0,0.0,0.0,0.0,0.0,0.0,0.0,0.0,0.0,0.0,0.0,0.0,0.0,0.0,0.0,0.0,0.0,0.0,0.0,0.0,0.0,0.0,0.0,0.0,0.0,0.0,0.0,0.0,0.0,0.0,0.0,0.0,0.0,0.0,0.0,0.0,0.0,0.0,0.0,0.0,0.0,0.0,0.0,0.0,0.0,0.0,0.0,0.0,0.0,0.0,0.0,0.0,0.0,0.0,0.0,0.0,0.0,0.0,0.0,0.0,0.0,0.0,0.0,0.0,0.0,0.0,0.0,0.0,0.0,2.9962,3.2805,3.7623,3.675,3.6517,3.8084,3.6606,3.323,2.7661,2.3441,0.0,0.0,0.0,0.0,0.0,0.0,0.0,0.0,0.0,0.0,0.0,0.0,0.0,0.0,0.0,0.0,0.0,0.0,0.0,0.0,0.0,0.0,0.0,0.0,0.0,0.0,0.0,0.0,0.0,0.0,0.0,0.0,0.0,0.0,0.0,0.0,0.0,0.0,0.0,0.0,0.0,0.0,0.0,0.0,0.0,0.0,0.0,0.0,0.0,0.0,0.0,0.0,0.0,0.0,0.0,0.0,0.0,0.0,0.0,0.0,0.0,0.0,0.0,0.0,0.0,0.0,0.0,0.0,0.0,0.0,0.0,0.0,0.0,0.0,0.0,0.0,0.0,0.0,0.0,0.0,0.0,0.0,0.0,0.0,0.0,0.0,0.0,0.0,0.0,0.0,0.0,0.0,0.0,0.0,0.0,0.0,0.0,0.0,0.0,0.0,0.0,0.0,2.6962,2.9933,3.5636,3.5571,3.5419,3.6115,3.4806,3.1999,2.7566,2.2837,0.0,0.0,0.0,0.0,0.0,0.0,0.0,0.0,0.0,0.0,0.0,0.0,0.0,0.0,0.0,0.0,0.0,0.0,0.0,0.0,0.0,0.0,0.0,0.0,0.0,0.0,0.0,0.0,0.0,0.0,0.0,0.0,0.0,0.0,0.0,0.0,0.0,0.0,0.0,0.0,0.0,0.0,0.0,0.0,0.0,0.0,0.0,0.0,0.0,0.0,0.0,0.0,0.0,0.0,0.0,0.0,0.0,0.0,0.0,0.0,0.0,0.0,0.0,0.0,0.0,0.0,0.0,0.0,0.0,0.0,0.0,0.0,0.0,0.0,0.0,0.0,0.0,0.0,0.0,0.0,0.0,0.0,0.0,0.0,0.0,0.0,0.0,0.0,0.0,0.0,0.0,0.0,0.0,0.0,0.0,0.0,0.0,0.0,0.0,0.0,0.0,0.0,0.0,2.7699,3.2422,3.4782,3.5734,3.4966,3.4182,3.1999,2.787,0.0,0.0,0.0,0.0,0.0,0.0,0.0,0.0,0.0,0.0,0.0,0.0,0.0,0.0,0.0,0.0,0.0,0.0,0.0,0.0,0.0,0.0,0.0,0.0,0.0,0.0,0.0,0.0,0.0,0.0,0.0,0.0,0.0,0.0,0.0,0.0,0.0,0.0,0.0,0.0,0.0,0.0,0.0,0.0,0.0,0.0,0.0,0.0,0.0,0.0,0.0,0.0,0.0,0.0,0.0,0.0,0.0,0.0,0.0,0.0,0.0,0.0,0.0,0.0,0.0,0.0,0.0,0.0,0.0,0.0,0.0,0.0,0.0,0.0,0.0,0.0,0.0,0.0,0.0,0.0,0.0,0.0,0.0,0.0,0.0,0.0,0.0,0.0,0.0,0.0,0.0,0.0,0.0,0.0,0.0,0.0,0.0,0.0,0.0,0.0,0.0,0.0,0.0,0.0,2.7347,3.0523,3.4122,3.6244,3.6096,3.5419,3.2469,2.6385,0.0,0.0,0.0,0.0,0.0,0.0,0.0,0.0,0.0,0.0,0.0,0.0,0.0,0.0]}]]]